[[{"header":{"parameterUnit":"m.s-1","parameterCategory":1,"la1":31.0,"la2":29.5877,"lo1":-88.7671,"lo2":-86.6584,"dy":0.0162,"dx":0.0185,"nx":115,"ny":88,"refTime":"2024-03-04T06:00:00:Z","depth":0,"parameterNumber":2,"parameterNumberName":"U-component_of_WINDS"},"data":[0.0,0.0,0.0,0.0,0.0,0.0,0.0,0.0,0.0,0.0,0.0,0.0,0.0,0.0,0.0,0.0,0.0,0.0,0.0,0.0,0.0,0.0,0.0,0.0,0.0,0.0,0.0,0.0,0.0,0.0,0.0,0.0,0.0,0.0,0.0,0.0,0.0,0.0,0.0,0.0,0.0,0.0,0.0,0.0,0.0,0.0,0.0,0.0,0.0,0.0,0.0,0.0,0.0,0.0,0.0,0.0,0.0,0.0,0.0,0.0,0.0,0.0,0.0,0.0,0.0,0.0,0.0,0.0,0.0,0.0,0.0,0.0,0.0,0.0,0.0,0.0,0.0,0.0,0.0,0.0,0.0,0.0,0.0,0.0,0.0,0.0,0.0,0.0,0.0,0.0,0.0,0.0,0.0,0.0,0.0,0.0,0.0,0.0,0.0,0.0,0.0,0.0,0.0,0.0,0.0,0.0,0.0,0.0,0.0,0.0,0.0,0.0,0.0,0.0,0.0,0.0,0.0,0.0,0.0,0.0,0.0,0.0,0.0,0.0,0.0,0.0,0.0,0.0,0.0,0.0,0.0,0.0,0.0,0.0,0.0,0.0,0.0,0.0,0.0,0.0,0.0,0.0,0.0,0.0,0.0,0.0,0.0,0.0,0.0,0.0,0.0,0.0,0.0,0.0,0.0,0.0,0.0,0.0,0.0,0.0,0.0,0.0,0.0,0.0,0.0,0.0,0.0,0.0,0.0,0.0,0.0,0.0,0.0,0.0,0.0,0.0,0.0,0.0,0.0,0.0,0.0,0.0,0.0,0.0,0.0,0.0,0.0,0.0,0.0,0.0,0.0,0.0,0.0,0.0,0.0,0.0,0.0,0.0,0.0,0.0,0.0,0.0,0.0,0.0,0.0,0.0,0.0,0.0,0.0,0.0,0.0,0.0,0.0,0.0,0.0,0.0,0.0,0.0,0.0,0.0,0.0,0.0,0.0,0.0,0.0,0.0,0.0,0.0,0.0,0.0,0.0,0.0,0.0,0.0,0.0,0.0,0.0,0.0,0.0,0.0,0.0,0.0,0.0,0.0,0.0,0.0,0.0,0.0,0.0,0.0,0.0,0.0,0.0,0.0,0.0,0.0,0.0,0.0,0.0,0.0,0.0,0.0,0.0,0.0,0.0,0.0,0.0,0.0,0.0,0.0,0.0,0.0,0.0,0.0,0.0,0.0,0.0,0.0,0.0,0.0,0.0,0.0,0.0,0.0,0.0,0.0,0.0,0.0,0.0,0.0,0.0,0.0,0.0,0.0,0.0,0.0,0.0,0.0,0.0,0.0,0.0,0.0,0.0,0.0,0.0,0.0,0.0,0.0,0.0,0.0,0.0,0.0,0.0,0.0,0.0,0.0,0.0,0.0,0.0,0.0,0.0,0.0,0.0,0.0,0.0,0.0,0.0,0.0,0.0,0.0,0.0,0.0,0.0,0.0,0.0,0.0,0.0,0.0,0.0,0.0,0.0,0.0,0.0,0.0,0.0,0.0,0.0,0.0,0.0,0.0,0.0,0.0,0.0,0.0,0.0,0.0,0.0,0.0,0.0,0.0,0.0,0.0,0.0,0.0,0.0,0.0,0.0,0.0,0.0,0.0,0.0,0.0,0.0,0.0,0.0,0.0,0.0,0.0,0.0,0.0,0.0,0.0,0.0,0.0,0.0,0.0,0.0,0.0,0.0,0.0,0.0,0.0,0.0,0.0,0.0,0.0,0.0,0.0,0.0,0.0,0.0,0.0,0.0,0.0,0.0,0.0,0.0,0.0,0.0,0.0,0.0,0.0,0.0,0.0,0.0,0.0,0.0,0.0,0.0,0.0,0.0,0.0,0.0,0.0,0.0,0.0,0.0,0.0,0.0,0.0,0.0,0.0,0.0,0.0,0.0,0.0,0.0,0.0,0.0,0.0,0.0,0.0,0.0,0.0,0.0,0.0,0.0,0.0,0.0,0.0,0.0,0.0,0.0,0.0,0.0,0.0,0.0,0.0,0.0,0.0,0.0,0.0,0.0,0.0,0.0,0.0,0.0,0.0,0.0,0.0,0.0,0.0,0.0,0.0,0.0,0.0,0.0,0.0,0.0,0.0,0.0,0.0,0.0,0.0,0.0,0.0,0.0,0.0,0.0,0.0,0.0,0.0,0.0,0.0,0.0,0.0,0.0,0.0,0.0,0.0,0.0,0.0,0.0,0.0,0.0,0.0,0.0,0.0,0.0,0.0,0.0,0.0,0.0,0.0,0.0,0.0,0.0,0.0,0.0,0.0,0.0,0.0,0.0,0.0,0.0,0.0,0.0,0.0,0.0,0.0,0.0,0.0,0.0,0.0,0.0,0.0,0.0,0.0,0.0,0.0,0.0,0.0,0.0,0.0,0.0,0.0,0.0,0.0,0.0,0.0,0.0,0.0,0.0,0.0,0.0,0.0,0.0,0.0,0.0,0.0,0.0,0.0,0.0,0.0,0.0,0.0,0.0,0.0,0.0,0.0,0.0,0.0,0.0,0.0,0.0,0.0,0.0,0.0,0.0,0.0,0.0,0.0,0.0,0.0,0.0,0.0,0.0,0.0,0.0,0.0,0.0,0.0,0.0,0.0,0.0,0.0,0.0,0.0,0.0,0.0,0.0,0.0,0.0,0.0,0.0,0.0,0.0,0.0,0.0,0.0,0.0,0.0,0.0,0.0,0.0,0.0,0.0,0.0,0.0,0.0,0.0,0.0,0.0,0.0,0.0,0.0,0.0,0.0,0.0,0.0,0.0,0.0,0.0,0.0,0.0,0.0,0.0,0.0,0.0,0.0,0.0,0.0,0.0,0.0,0.0,0.0,0.0,0.0,0.0,0.0,0.0,0.0,0.0,0.0,0.0,0.0,0.0,0.0,0.0,0.0,0.0,0.0,0.0,0.0,0.0,0.0,0.0,0.0,0.0,0.0,0.0,0.0,0.0,0.0,0.0,0.0,0.0,0.0,0.0,0.0,0.0,0.0,0.0,0.0,0.0,0.0,0.0,0.0,0.0,0.0,0.0,0.0,0.0,0.0,0.0,0.0,0.0,0.0,0.0,0.0,0.0,0.0,0.0,0.0,0.0,0.0,0.0,0.0,0.0,0.0,0.0,0.0,0.0,0.0,0.0,0.0,0.0,0.0,0.0,0.0,0.0,0.0,0.0,0.0,0.0,0.0,0.0,0.0,0.0,0.0,0.0,0.0,0.0,0.0,0.0,0.0,0.0,0.0,0.0,0.0,0.0,0.0,0.0,0.0,0.0,0.0,0.0,0.0,0.0,0.0,0.0,0.0,0.0,0.0,0.0,0.0,0.0,0.0,0.0,0.0,0.0,0.0,0.0,0.0,0.0,0.0,0.0,0.0,0.0,0.0,0.0,0.0,0.0,0.0,0.0,0.0,0.0,0.0,0.0,0.0,0.0,0.0,0.0,0.0,0.0,0.0,0.0,0.0,0.0,0.0,0.0,0.0,0.0,0.0,0.0,0.0,0.0,0.0,0.0,0.0,0.0,0.0,0.0,0.0,0.0,0.0,0.0,0.0,0.0,0.0,0.0,0.0,0.0,0.0,0.0,0.0,0.0,0.0,0.0,0.0,0.0,0.0,0.0,0.0,0.0,0.0,0.0,0.0,0.0,0.0,0.0,0.0,0.0,0.0,0.0,0.0,0.0,0.0,0.0,0.0,0.0,0.0,0.0,0.0,0.0,0.0,0.0,0.0,0.0,0.0,0.0,0.0,0.0,0.0,0.0,0.0,0.0,0.0,0.0,0.0,0.0,0.0,0.0,0.0,0.0,0.0,0.0,0.0,0.0,0.0,0.0,0.0,0.0,0.0,0.0,0.0,0.0,0.0,0.0,0.0,0.0,0.0,0.0,0.0,0.0,0.0,0.0,0.0,0.0,0.0,0.0,0.0,0.0,0.0,0.0,0.0,0.0,0.0,0.0,0.0,0.0,0.0,0.0,0.0,0.0,0.0,0.0,0.0,0.0,0.0,0.0,0.0,0.0,0.0,0.0,0.0,0.0,0.0,0.0,0.0,0.0,0.0,0.0,0.0,0.0,0.0,0.0,0.0,0.0,0.0,0.0,0.0,0.0,0.0,0.0,0.0,0.0,0.0,0.0,0.0,0.0,0.0,0.0,0.0,0.0,0.0,0.0,0.0,0.0,0.0,0.0,0.0,0.0,0.0,0.0,0.0,0.0,0.0,0.0,0.0,0.0,0.0,0.0,0.0,0.0,0.0,-2.9588,0.0,0.0,0.0,0.0,0.0,0.0,0.0,0.0,0.0,0.0,0.0,0.0,0.0,0.0,0.0,0.0,0.0,0.0,0.0,0.0,0.0,0.0,0.0,0.0,0.0,0.0,0.0,0.0,0.0,0.0,0.0,0.0,0.0,0.0,0.0,0.0,0.0,0.0,0.0,0.0,0.0,0.0,0.0,0.0,0.0,0.0,0.0,0.0,0.0,0.0,0.0,0.0,0.0,0.0,0.0,0.0,0.0,0.0,0.0,0.0,0.0,0.0,0.0,0.0,0.0,0.0,0.0,0.0,0.0,0.0,0.0,0.0,0.0,0.0,0.0,0.0,0.0,0.0,0.0,0.0,0.0,0.0,0.0,0.0,0.0,0.0,0.0,0.0,0.0,0.0,0.0,0.0,0.0,0.0,0.0,0.0,0.0,0.0,0.0,0.0,0.0,0.0,0.0,0.0,0.0,0.0,0.0,0.0,0.0,0.0,-3.2637,-3.19,-3.1628,-3.111,-3.0336,0.0,0.0,0.0,0.0,0.0,0.0,0.0,0.0,0.0,0.0,0.0,0.0,0.0,0.0,0.0,0.0,0.0,0.0,0.0,0.0,0.0,0.0,0.0,0.0,0.0,0.0,0.0,0.0,0.0,0.0,0.0,0.0,0.0,0.0,0.0,0.0,0.0,0.0,0.0,0.0,0.0,0.0,0.0,0.0,0.0,0.0,0.0,0.0,0.0,0.0,0.0,0.0,0.0,0.0,0.0,0.0,0.0,0.0,0.0,0.0,0.0,0.0,0.0,0.0,0.0,0.0,0.0,0.0,0.0,0.0,0.0,0.0,0.0,0.0,0.0,0.0,0.0,0.0,0.0,0.0,0.0,0.0,0.0,0.0,0.0,0.0,0.0,0.0,0.0,0.0,0.0,0.0,0.0,0.0,0.0,0.0,0.0,0.0,0.0,0.0,0.0,0.0,0.0,0.0,0.0,0.0,0.0,0.0,0.0,0.0,0.0,0.0,-3.2104,-3.1685,-3.1139,0.0,0.0,0.0,0.0,0.0,0.0,0.0,0.0,0.0,0.0,0.0,0.0,0.0,0.0,0.0,0.0,0.0,0.0,0.0,0.0,0.0,0.0,0.0,0.0,0.0,0.0,0.0,0.0,0.0,0.0,0.0,0.0,0.0,0.0,0.0,0.0,0.0,0.0,0.0,0.0,0.0,0.0,0.0,0.0,0.0,0.0,0.0,0.0,0.0,0.0,0.0,0.0,0.0,0.0,0.0,0.0,0.0,0.0,0.0,0.0,0.0,0.0,0.0,0.0,0.0,0.0,0.0,0.0,0.0,0.0,0.0,0.0,0.0,0.0,0.0,0.0,0.0,0.0,0.0,0.0,0.0,0.0,0.0,0.0,0.0,0.0,0.0,0.0,0.0,0.0,0.0,0.0,0.0,0.0,0.0,0.0,0.0,0.0,0.0,0.0,0.0,0.0,0.0,0.0,0.0,0.0,0.0,0.0,0.0,0.0,-3.3075,-3.3594,-3.2456,0.0,-3.1879,0.0,0.0,0.0,0.0,0.0,0.0,0.0,0.0,0.0,0.0,0.0,0.0,0.0,0.0,0.0,0.0,0.0,0.0,0.0,0.0,0.0,0.0,0.0,0.0,0.0,0.0,0.0,0.0,0.0,0.0,0.0,0.0,0.0,0.0,0.0,0.0,0.0,0.0,0.0,0.0,0.0,0.0,0.0,0.0,0.0,0.0,0.0,0.0,0.0,0.0,0.0,0.0,0.0,0.0,0.0,0.0,0.0,0.0,0.0,0.0,0.0,0.0,0.0,0.0,0.0,0.0,0.0,0.0,0.0,0.0,0.0,0.0,0.0,0.0,0.0,0.0,0.0,0.0,0.0,0.0,0.0,0.0,0.0,0.0,0.0,0.0,0.0,0.0,0.0,0.0,0.0,0.0,0.0,0.0,0.0,0.0,0.0,0.0,0.0,0.0,0.0,0.0,0.0,0.0,0.0,0.0,0.0,0.0,0.0,0.0,-3.3395,-3.3268,-3.2741,-3.2498,0.0,0.0,0.0,0.0,0.0,0.0,0.0,0.0,0.0,0.0,0.0,0.0,0.0,0.0,0.0,0.0,0.0,0.0,0.0,0.0,0.0,0.0,0.0,0.0,0.0,0.0,0.0,0.0,0.0,0.0,0.0,0.0,0.0,0.0,0.0,0.0,0.0,0.0,0.0,0.0,0.0,0.0,0.0,0.0,0.0,0.0,0.0,0.0,0.0,0.0,0.0,0.0,0.0,0.0,0.0,0.0,0.0,0.0,0.0,0.0,0.0,0.0,0.0,0.0,0.0,0.0,0.0,0.0,0.0,0.0,0.0,0.0,0.0,0.0,0.0,0.0,0.0,0.0,0.0,0.0,0.0,0.0,0.0,0.0,0.0,0.0,0.0,0.0,0.0,0.0,0.0,0.0,0.0,0.0,0.0,0.0,0.0,0.0,0.0,0.0,0.0,0.0,0.0,0.0,0.0,0.0,0.0,0.0,0.0,0.0,-3.3347,-3.3325,-3.2905,-3.2868,-3.29,-3.2963,0.0,0.0,0.0,0.0,0.0,0.0,0.0,0.0,0.0,0.0,0.0,0.0,0.0,0.0,0.0,0.0,0.0,0.0,0.0,0.0,0.0,0.0,0.0,0.0,0.0,0.0,0.0,0.0,0.0,0.0,0.0,0.0,0.0,0.0,0.0,0.0,0.0,0.0,0.0,0.0,0.0,0.0,0.0,0.0,0.0,0.0,0.0,0.0,0.0,0.0,0.0,0.0,0.0,0.0,0.0,0.0,0.0,0.0,0.0,0.0,0.0,0.0,0.0,0.0,0.0,0.0,0.0,0.0,0.0,0.0,0.0,0.0,0.0,0.0,0.0,0.0,0.0,0.0,0.0,0.0,0.0,0.0,0.0,0.0,0.0,0.0,0.0,0.0,0.0,0.0,0.0,0.0,0.0,0.0,0.0,0.0,0.0,0.0,0.0,0.0,0.0,0.0,0.0,0.0,0.0,0.0,0.0,0.0,-3.3582,-3.2947,-3.2643,-3.2825,-3.2807,-3.2838,0.0,0.0,0.0,0.0,0.0,0.0,0.0,0.0,0.0,0.0,0.0,0.0,0.0,0.0,0.0,0.0,0.0,0.0,0.0,0.0,0.0,0.0,0.0,0.0,0.0,0.0,0.0,0.0,0.0,0.0,0.0,0.0,0.0,0.0,0.0,0.0,0.0,0.0,0.0,0.0,0.0,0.0,0.0,0.0,0.0,0.0,0.0,0.0,0.0,0.0,0.0,0.0,0.0,0.0,0.0,0.0,0.0,0.0,0.0,0.0,0.0,0.0,0.0,0.0,0.0,0.0,0.0,0.0,0.0,0.0,0.0,0.0,0.0,0.0,0.0,0.0,0.0,0.0,0.0,0.0,0.0,0.0,0.0,0.0,0.0,0.0,0.0,0.0,0.0,0.0,0.0,0.0,0.0,0.0,0.0,0.0,0.0,0.0,0.0,0.0,0.0,0.0,0.0,0.0,0.0,0.0,0.0,0.0,0.0,-3.2912,-3.2664,-3.282,-3.3332,-3.2922,-3.2425,0.0,0.0,0.0,0.0,0.0,0.0,0.0,0.0,0.0,0.0,0.0,0.0,0.0,0.0,0.0,0.0,0.0,0.0,0.0,0.0,0.0,0.0,0.0,0.0,0.0,0.0,0.0,0.0,0.0,0.0,0.0,0.0,0.0,0.0,0.0,0.0,0.0,0.0,0.0,0.0,0.0,0.0,0.0,0.0,0.0,0.0,0.0,0.0,0.0,0.0,0.0,0.0,0.0,0.0,0.0,0.0,0.0,0.0,0.0,0.0,0.0,0.0,0.0,0.0,0.0,0.0,0.0,0.0,0.0,0.0,0.0,0.0,0.0,0.0,0.0,0.0,0.0,0.0,0.0,0.0,0.0,0.0,0.0,0.0,0.0,0.0,0.0,0.0,0.0,0.0,0.0,0.0,0.0,0.0,0.0,0.0,0.0,0.0,0.0,0.0,0.0,0.0,0.0,0.0,0.0,0.0,0.0,0.0,0.0,-3.1812,0.0,-3.2529,-3.3108,-3.2668,-3.2034,0.0,0.0,0.0,0.0,0.0,0.0,0.0,0.0,0.0,0.0,0.0,0.0,0.0,0.0,0.0,0.0,0.0,0.0,0.0,0.0,0.0,0.0,0.0,0.0,0.0,0.0,0.0,0.0,0.0,0.0,0.0,0.0,0.0,0.0,0.0,0.0,0.0,0.0,0.0,0.0,0.0,0.0,0.0,0.0,0.0,0.0,0.0,0.0,0.0,0.0,0.0,0.0,0.0,0.0,0.0,0.0,0.0,0.0,0.0,0.0,0.0,0.0,0.0,0.0,0.0,0.0,0.0,0.0,0.0,0.0,0.0,0.0,0.0,0.0,0.0,0.0,0.0,0.0,0.0,0.0,0.0,0.0,0.0,0.0,0.0,0.0,0.0,0.0,0.0,0.0,0.0,0.0,0.0,0.0,0.0,0.0,0.0,0.0,0.0,0.0,0.0,0.0,0.0,0.0,0.0,0.0,0.0,0.0,-2.9549,-3.0409,-3.118,-3.171,-3.1985,-3.1986,-3.169,0.0,0.0,0.0,0.0,0.0,0.0,0.0,0.0,0.0,0.0,0.0,0.0,0.0,0.0,0.0,0.0,0.0,0.0,0.0,0.0,0.0,0.0,0.0,0.0,0.0,0.0,0.0,0.0,0.0,0.0,0.0,0.0,0.0,0.0,0.0,0.0,0.0,0.0,0.0,0.0,0.0,0.0,0.0,0.0,0.0,0.0,0.0,0.0,0.0,0.0,0.0,0.0,0.0,0.0,0.0,0.0,0.0,0.0,0.0,0.0,0.0,0.0,0.0,0.0,0.0,0.0,0.0,0.0,0.0,0.0,0.0,0.0,0.0,0.0,0.0,0.0,0.0,0.0,0.0,0.0,0.0,0.0,0.0,0.0,0.0,0.0,0.0,0.0,0.0,0.0,0.0,0.0,0.0,0.0,0.0,0.0,0.0,0.0,0.0,0.0,0.0,0.0,0.0,0.0,0.0,0.0,0.0,0.0,0.0,-3.0448,-3.1129,-3.1542,-3.1637,-3.1174,-3.0851,0.0,0.0,0.0,0.0,0.0,0.0,0.0,0.0,0.0,0.0,0.0,0.0,0.0,0.0,0.0,0.0,0.0,0.0,0.0,0.0,0.0,0.0,0.0,0.0,0.0,0.0,0.0,0.0,0.0,0.0,0.0,0.0,0.0,0.0,0.0,0.0,0.0,0.0,0.0,0.0,0.0,0.0,0.0,0.0,0.0,0.0,0.0,0.0,0.0,0.0,0.0,0.0,0.0,0.0,0.0,0.0,0.0,0.0,0.0,0.0,0.0,0.0,0.0,0.0,0.0,0.0,0.0,0.0,0.0,0.0,0.0,0.0,0.0,0.0,0.0,0.0,0.0,0.0,0.0,0.0,0.0,0.0,0.0,0.0,0.0,0.0,0.0,0.0,0.0,0.0,0.0,0.0,0.0,0.0,0.0,0.0,0.0,0.0,0.0,0.0,0.0,0.0,0.0,0.0,0.0,0.0,0.0,0.0,0.0,-3.097,-3.1345,-3.1735,-3.2125,-3.1431,-3.067,-2.9929,0.0,0.0,0.0,0.0,0.0,0.0,0.0,0.0,0.0,0.0,0.0,0.0,0.0,0.0,0.0,0.0,0.0,0.0,0.0,0.0,0.0,0.0,0.0,0.0,0.0,0.0,0.0,0.0,0.0,0.0,0.0,0.0,0.0,0.0,0.0,0.0,0.0,0.0,0.0,0.0,0.0,0.0,0.0,0.0,0.0,0.0,0.0,0.0,0.0,0.0,0.0,0.0,0.0,0.0,0.0,0.0,0.0,0.0,0.0,0.0,0.0,0.0,0.0,0.0,0.0,0.0,0.0,0.0,0.0,0.0,0.0,0.0,0.0,0.0,0.0,0.0,0.0,0.0,0.0,0.0,0.0,0.0,0.0,0.0,0.0,0.0,0.0,0.0,0.0,0.0,0.0,0.0,0.0,0.0,0.0,0.0,0.0,0.0,0.0,0.0,0.0,0.0,0.0,0.0,0.0,0.0,0.0,0.0,-3.2064,-3.1921,-3.2319,-3.3194,-3.2475,-3.1079,0.0,0.0,0.0,0.0,0.0,0.0,0.0,0.0,0.0,0.0,0.0,0.0,0.0,0.0,0.0,0.0,0.0,0.0,0.0,0.0,0.0,0.0,0.0,0.0,0.0,0.0,0.0,0.0,0.0,0.0,0.0,0.0,0.0,0.0,0.0,0.0,0.0,0.0,0.0,0.0,0.0,0.0,0.0,0.0,0.0,0.0,0.0,0.0,0.0,0.0,0.0,0.0,0.0,0.0,0.0,0.0,0.0,0.0,0.0,0.0,0.0,0.0,0.0,0.0,0.0,0.0,0.0,0.0,0.0,0.0,0.0,0.0,0.0,0.0,0.0,0.0,0.0,0.0,0.0,0.0,0.0,0.0,0.0,0.0,0.0,0.0,0.0,0.0,0.0,0.0,0.0,0.0,0.0,0.0,0.0,0.0,0.0,0.0,0.0,0.0,0.0,0.0,0.0,0.0,0.0,0.0,0.0,0.0,0.0,-3.4041,-3.4591,-3.4506,-3.3801,-3.2474,-3.132,0.0,0.0,0.0,0.0,0.0,0.0,0.0,0.0,0.0,0.0,0.0,0.0,0.0,0.0,0.0,0.0,0.0,0.0,0.0,0.0,0.0,0.0,0.0,0.0,0.0,0.0,0.0,0.0,0.0,0.0,0.0,0.0,0.0,0.0,0.0,0.0,0.0,0.0,0.0,0.0,0.0,0.0,0.0,0.0,0.0,0.0,0.0,0.0,0.0,0.0,0.0,0.0,0.0,0.0,0.0,0.0,0.0,0.0,0.0,0.0,0.0,0.0,0.0,0.0,0.0,0.0,0.0,0.0,0.0,0.0,0.0,0.0,0.0,0.0,0.0,0.0,0.0,0.0,0.0,0.0,0.0,0.0,0.0,0.0,0.0,0.0,0.0,0.0,0.0,0.0,0.0,0.0,0.0,0.0,0.0,0.0,0.0,0.0,0.0,0.0,0.0,0.0,0.0,0.0,0.0,0.0,0.0,0.0,-3.3766,-3.5589,-3.7008,-3.7208,-3.6117,-3.4064,-3.2265,0.0,0.0,0.0,0.0,0.0,0.0,0.0,0.0,0.0,0.0,0.0,0.0,0.0,0.0,0.0,0.0,0.0,0.0,0.0,0.0,0.0,0.0,0.0,0.0,0.0,0.0,0.0,0.0,0.0,0.0,0.0,0.0,0.0,0.0,0.0,0.0,0.0,0.0,0.0,0.0,0.0,0.0,0.0,0.0,0.0,0.0,0.0,0.0,0.0,0.0,0.0,0.0,0.0,0.0,0.0,0.0,0.0,0.0,0.0,0.0,0.0,0.0,0.0,0.0,0.0,0.0,0.0,0.0,0.0,0.0,0.0,0.0,0.0,0.0,0.0,0.0,0.0,0.0,0.0,0.0,0.0,0.0,0.0,0.0,0.0,0.0,0.0,0.0,0.0,0.0,0.0,0.0,0.0,0.0,0.0,0.0,0.0,0.0,0.0,0.0,0.0,0.0,0.0,0.0,0.0,0.0,0.0,0.0,-3.5465,-3.6797,-3.9029,-3.9824,-3.9035,-3.6356,-3.3591,0.0,0.0,0.0,0.0,0.0,0.0,0.0,0.0,0.0,0.0,0.0,0.0,0.0,0.0,0.0,0.0,0.0,0.0,0.0,0.0,0.0,0.0,0.0,0.0,0.0,0.0,0.0,0.0,0.0,0.0,0.0,0.0,0.0,0.0,0.0,0.0,0.0,0.0,0.0,0.0,0.0,0.0,0.0,0.0,0.0,0.0,0.0,0.0,0.0,0.0,0.0,0.0,0.0,0.0,0.0,0.0,0.0,0.0,0.0,0.0,0.0,0.0,0.0,0.0,0.0,0.0,0.0,0.0,0.0,0.0,0.0,0.0,0.0,0.0,0.0,0.0,0.0,0.0,0.0,0.0,0.0,0.0,0.0,0.0,0.0,0.0,0.0,0.0,0.0,0.0,0.0,0.0,0.0,0.0,0.0,0.0,0.0,0.0,0.0,0.0,0.0,0.0,0.0,0.0,0.0,0.0,0.0,0.0,-3.6373,-3.8319,-3.9951,-4.0471,-3.9689,-3.657,-3.4071,0.0,0.0,0.0,0.0,0.0,0.0,0.0,0.0,0.0,0.0,0.0,0.0,0.0,0.0,0.0,0.0,0.0,0.0,0.0,0.0,0.0,0.0,0.0,0.0,0.0,0.0,0.0,0.0,0.0,0.0,0.0,0.0,0.0,0.0,0.0,0.0,0.0,0.0,0.0,0.0,0.0,0.0,0.0,0.0,0.0,0.0,0.0,0.0,-2.7257,0.0,0.0,0.0,0.0,0.0,0.0,0.0,0.0,0.0,0.0,0.0,0.0,0.0,0.0,0.0,0.0,0.0,0.0,0.0,0.0,0.0,0.0,0.0,0.0,0.0,0.0,0.0,0.0,0.0,0.0,0.0,0.0,0.0,0.0,0.0,0.0,0.0,0.0,0.0,0.0,0.0,0.0,0.0,0.0,0.0,0.0,0.0,0.0,0.0,0.0,0.0,0.0,0.0,0.0,0.0,0.0,0.0,0.0,0.0,-3.7497,-3.9561,-4.0759,-4.0988,-4.0131,-3.7533,-3.535,0.0,0.0,0.0,0.0,0.0,0.0,0.0,0.0,0.0,0.0,0.0,0.0,0.0,0.0,0.0,0.0,0.0,0.0,0.0,0.0,0.0,0.0,0.0,0.0,0.0,0.0,0.0,0.0,0.0,0.0,0.0,0.0,0.0,0.0,0.0,0.0,0.0,0.0,0.0,0.0,0.0,0.0,0.0,0.0,0.0,0.0,0.0,0.0,0.0,0.0,0.0,0.0,0.0,0.0,0.0,0.0,0.0,0.0,0.0,0.0,0.0,0.0,0.0,0.0,0.0,0.0,0.0,0.0,0.0,0.0,0.0,0.0,0.0,0.0,0.0,0.0,0.0,0.0,0.0,0.0,0.0,0.0,0.0,0.0,0.0,0.0,0.0,0.0,0.0,0.0,0.0,0.0,0.0,0.0,0.0,0.0,0.0,0.0,0.0,0.0,0.0,0.0,0.0,0.0,0.0,0.0,0.0,-3.634,-3.8399,-4.0647,-4.1367,-4.1334,-4.0582,-3.8614,-3.6694,-3.4824,0.0,0.0,0.0,0.0,0.0,0.0,0.0,0.0,0.0,0.0,0.0,0.0,0.0,0.0,0.0,0.0,0.0,0.0,0.0,0.0,0.0,0.0,0.0,0.0,0.0,0.0,0.0,0.0,0.0,0.0,0.0,0.0,0.0,0.0,0.0,0.0,0.0,0.0,-2.6381,-2.7629,0.0,0.0,0.0,0.0,0.0,0.0,0.0,0.0,-2.9058,0.0,0.0,0.0,0.0,0.0,0.0,0.0,0.0,0.0,0.0,0.0,0.0,0.0,0.0,0.0,0.0,0.0,0.0,0.0,0.0,0.0,0.0,0.0,0.0,0.0,0.0,0.0,0.0,0.0,0.0,0.0,0.0,0.0,0.0,0.0,0.0,0.0,0.0,0.0,0.0,0.0,0.0,0.0,0.0,0.0,0.0,0.0,0.0,0.0,0.0,0.0,0.0,0.0,0.0,0.0,0.0,-3.6517,-3.6372,-3.8055,-4.1709,-4.1419,-4.1161,-4.097,-3.8948,-3.6957,-3.5082,0.0,0.0,0.0,0.0,0.0,0.0,0.0,0.0,0.0,0.0,0.0,0.0,0.0,0.0,0.0,0.0,0.0,0.0,0.0,0.0,0.0,0.0,0.0,0.0,0.0,0.0,0.0,0.0,0.0,0.0,0.0,0.0,0.0,0.0,0.0,0.0,0.0,0.0,0.0,-2.9307,-2.9852,0.0,0.0,0.0,0.0,0.0,0.0,0.0,0.0,-2.8963,0.0,0.0,0.0,0.0,0.0,0.0,0.0,0.0,0.0,0.0,0.0,0.0,0.0,0.0,0.0,0.0,0.0,0.0,0.0,0.0,0.0,0.0,0.0,0.0,0.0,0.0,0.0,0.0,0.0,0.0,0.0,0.0,0.0,0.0,0.0,0.0,0.0,0.0,0.0,0.0,0.0,0.0,0.0,0.0,0.0,0.0,0.0,0.0,0.0,0.0,0.0,0.0,0.0,0.0,0.0,-3.6192,-3.673,-3.84,-4.1421,-4.0925,-4.0366,-3.9874,-3.8139,-3.6298,0.0,0.0,0.0,0.0,0.0,0.0,0.0,0.0,0.0,0.0,0.0,0.0,0.0,0.0,0.0,0.0,0.0,0.0,0.0,0.0,0.0,0.0,0.0,0.0,0.0,0.0,0.0,0.0,0.0,0.0,0.0,0.0,0.0,0.0,0.0,0.0,0.0,0.0,0.0,0.0,-3.0429,-3.1173,-3.3143,0.0,0.0,0.0,0.0,0.0,0.0,-3.0797,-2.9436,0.0,0.0,0.0,0.0,0.0,0.0,0.0,0.0,0.0,0.0,0.0,0.0,0.0,0.0,0.0,0.0,0.0,0.0,0.0,0.0,0.0,0.0,0.0,0.0,0.0,0.0,0.0,0.0,0.0,0.0,0.0,0.0,0.0,0.0,0.0,0.0,0.0,0.0,0.0,0.0,0.0,0.0,0.0,0.0,0.0,0.0,0.0,0.0,0.0,0.0,0.0,0.0,0.0,0.0,0.0,-3.5577,-3.6927,-3.8721,-4.0944,-4.0275,-3.956,-3.8819,-3.6986,-3.5209,0.0,0.0,0.0,0.0,0.0,0.0,0.0,0.0,0.0,0.0,0.0,0.0,0.0,0.0,0.0,0.0,0.0,0.0,0.0,0.0,0.0,0.0,0.0,0.0,0.0,0.0,0.0,0.0,0.0,0.0,0.0,0.0,0.0,0.0,0.0,0.0,0.0,0.0,0.0,0.0,0.0,-3.2546,-3.3895,-3.3518,0.0,0.0,0.0,0.0,-3.3882,-3.2565,0.0,0.0,0.0,0.0,0.0,0.0,0.0,0.0,0.0,0.0,0.0,0.0,0.0,0.0,0.0,0.0,0.0,0.0,0.0,0.0,0.0,0.0,0.0,0.0,0.0,0.0,0.0,0.0,0.0,0.0,0.0,0.0,0.0,0.0,0.0,0.0,0.0,0.0,0.0,0.0,0.0,0.0,0.0,0.0,0.0,0.0,0.0,0.0,0.0,0.0,0.0,0.0,0.0,0.0,0.0,0.0,-3.5087,-3.6487,-3.8435,-4.0908,-3.978,-3.906,-3.8951,-3.5886,-3.3917,0.0,0.0,0.0,0.0,0.0,0.0,0.0,0.0,0.0,0.0,0.0,0.0,0.0,0.0,0.0,0.0,0.0,0.0,0.0,0.0,0.0,0.0,0.0,0.0,0.0,0.0,0.0,0.0,0.0,0.0,0.0,0.0,0.0,0.0,0.0,0.0,0.0,0.0,0.0,0.0,0.0,-3.3794,-3.4641,-3.4181,-3.3932,0.0,0.0,-3.6149,-3.6952,-3.7434,0.0,0.0,0.0,0.0,0.0,0.0,0.0,0.0,0.0,0.0,0.0,0.0,0.0,0.0,0.0,0.0,0.0,0.0,0.0,0.0,0.0,0.0,0.0,0.0,0.0,0.0,0.0,0.0,0.0,0.0,0.0,0.0,0.0,0.0,0.0,0.0,0.0,0.0,0.0,0.0,0.0,0.0,0.0,0.0,0.0,0.0,0.0,0.0,0.0,0.0,0.0,0.0,0.0,0.0,0.0,-3.2295,-3.4919,-3.661,-3.8433,-4.0335,-3.912,-3.8434,-3.8418,-3.5054,-3.3162,0.0,0.0,0.0,0.0,0.0,0.0,0.0,0.0,0.0,0.0,0.0,0.0,0.0,0.0,0.0,0.0,0.0,0.0,0.0,0.0,0.0,0.0,0.0,0.0,0.0,0.0,0.0,0.0,0.0,0.0,0.0,0.0,0.0,0.0,0.0,0.0,0.0,0.0,0.0,0.0,0.0,0.0,-3.4676,-3.5031,0.0,0.0,0.0,-3.6934,-3.6345,0.0,0.0,0.0,0.0,0.0,0.0,0.0,0.0,0.0,0.0,0.0,0.0,0.0,0.0,0.0,0.0,0.0,0.0,0.0,0.0,0.0,0.0,0.0,0.0,0.0,0.0,0.0,0.0,0.0,0.0,0.0,0.0,0.0,0.0,0.0,0.0,0.0,0.0,0.0,0.0,0.0,0.0,0.0,0.0,0.0,0.0,0.0,0.0,0.0,0.0,0.0,0.0,0.0,0.0,0.0,0.0,0.0,-3.4778,-3.6848,-3.8613,-4.0031,-3.899,-3.8291,-3.8074,-3.5035,0.0,0.0,0.0,0.0,0.0,0.0,0.0,0.0,0.0,0.0,0.0,0.0,0.0,0.0,0.0,0.0,0.0,0.0,0.0,0.0,0.0,0.0,0.0,0.0,0.0,0.0,0.0,-2.5139,0.0,0.0,0.0,0.0,0.0,0.0,0.0,0.0,0.0,0.0,0.0,0.0,0.0,0.0,-3.3811,-3.5131,-3.593,-3.6235,0.0,0.0,-3.7505,-3.6524,-3.738,-3.7202,0.0,0.0,0.0,0.0,0.0,0.0,0.0,0.0,0.0,0.0,0.0,0.0,0.0,0.0,0.0,0.0,0.0,0.0,0.0,0.0,0.0,0.0,0.0,0.0,0.0,0.0,0.0,0.0,0.0,0.0,0.0,0.0,0.0,0.0,0.0,0.0,0.0,0.0,0.0,0.0,0.0,0.0,0.0,0.0,0.0,0.0,0.0,0.0,0.0,0.0,0.0,0.0,0.0,0.0,-3.184,-3.4503,-3.7123,-3.9077,-4.037,-3.9754,-3.9093,-3.8464,-3.6415,-3.444,0.0,0.0,0.0,0.0,0.0,0.0,0.0,0.0,0.0,0.0,0.0,0.0,0.0,0.0,0.0,0.0,0.0,0.0,0.0,0.0,0.0,0.0,0.0,0.0,0.0,0.0,0.0,0.0,0.0,0.0,0.0,0.0,0.0,0.0,0.0,0.0,0.0,0.0,0.0,0.0,0.0,-3.5859,-3.6569,-3.6768,-3.7093,0.0,-3.817,-3.861,-3.9366,-4.1324,-4.1347,-3.6899,0.0,0.0,0.0,0.0,0.0,0.0,0.0,0.0,0.0,0.0,0.0,0.0,0.0,0.0,0.0,0.0,0.0,0.0,0.0,0.0,0.0,0.0,0.0,0.0,0.0,0.0,0.0,0.0,0.0,0.0,0.0,0.0,0.0,0.0,0.0,0.0,0.0,0.0,0.0,0.0,0.0,0.0,0.0,0.0,0.0,0.0,0.0,0.0,0.0,0.0,0.0,0.0,0.0,-3.2017,-3.4327,-3.7011,-3.857,-3.8928,-3.8831,-3.8371,-3.76,-3.5583,-3.3842,0.0,0.0,0.0,0.0,0.0,0.0,0.0,0.0,0.0,0.0,0.0,0.0,0.0,0.0,0.0,0.0,0.0,0.0,0.0,0.0,0.0,0.0,0.0,0.0,0.0,0.0,0.0,0.0,-2.8478,-2.9169,-2.8939,0.0,0.0,0.0,0.0,0.0,0.0,0.0,0.0,0.0,0.0,-3.5545,-3.7178,-3.7888,0.0,0.0,-3.8998,-3.9391,-3.8357,-3.9449,-3.9315,-3.6114,-3.5293,0.0,0.0,0.0,0.0,0.0,0.0,0.0,0.0,0.0,0.0,0.0,0.0,0.0,0.0,0.0,0.0,0.0,0.0,0.0,0.0,0.0,0.0,0.0,0.0,0.0,0.0,0.0,0.0,0.0,0.0,0.0,0.0,0.0,0.0,0.0,0.0,0.0,0.0,0.0,0.0,0.0,0.0,0.0,0.0,0.0,0.0,0.0,0.0,0.0,0.0,0.0,0.0,-3.2038,-3.4044,-3.6478,-3.7764,-3.7861,-3.8275,-3.8037,-3.7023,-3.5776,-3.4379,0.0,0.0,0.0,0.0,0.0,0.0,0.0,0.0,0.0,0.0,0.0,0.0,0.0,0.0,0.0,0.0,0.0,0.0,0.0,0.0,0.0,0.0,0.0,0.0,0.0,0.0,0.0,0.0,-2.8421,-2.9194,-2.9024,0.0,0.0,0.0,0.0,0.0,0.0,0.0,0.0,0.0,0.0,-3.6339,-3.804,-3.8712,-3.875,-3.7937,-3.8958,-3.9306,-3.776,-3.8091,-3.7887,-3.606,0.0,0.0,0.0,0.0,0.0,0.0,0.0,0.0,0.0,0.0,0.0,0.0,0.0,0.0,0.0,0.0,0.0,0.0,0.0,0.0,0.0,0.0,0.0,0.0,0.0,0.0,0.0,-2.2362,0.0,0.0,-2.255,0.0,0.0,0.0,0.0,0.0,0.0,0.0,0.0,0.0,0.0,0.0,0.0,0.0,0.0,0.0,0.0,0.0,0.0,0.0,0.0,0.0,0.0,-3.1653,-3.3713,-3.5574,-3.6828,-3.7507,-3.8462,-3.8329,-3.7036,-3.7567,-3.6594,-3.3879,0.0,0.0,0.0,0.0,0.0,0.0,0.0,0.0,0.0,0.0,0.0,0.0,0.0,0.0,0.0,0.0,0.0,0.0,0.0,0.0,0.0,0.0,0.0,0.0,0.0,0.0,-2.4671,-2.633,-2.7717,0.0,0.0,0.0,0.0,0.0,0.0,0.0,0.0,0.0,-3.4941,-3.7184,-3.8812,-3.9247,-3.9088,-3.856,-3.762,-3.7892,-3.8204,-3.8219,-3.8256,-3.8084,0.0,0.0,0.0,0.0,0.0,0.0,0.0,0.0,0.0,0.0,0.0,0.0,0.0,0.0,0.0,0.0,0.0,0.0,0.0,0.0,0.0,0.0,0.0,0.0,0.0,0.0,0.0,-2.4218,-2.3842,0.0,0.0,0.0,0.0,0.0,0.0,0.0,0.0,0.0,0.0,0.0,-2.8445,-2.9145,0.0,0.0,0.0,0.0,0.0,0.0,0.0,0.0,0.0,0.0,0.0,0.0,-3.1976,-3.3926,-3.594,-3.6941,-3.7075,-3.8202,-3.7985,-3.6324,-3.6753,-3.5404,-3.2095,0.0,0.0,0.0,0.0,0.0,0.0,0.0,0.0,0.0,0.0,0.0,0.0,0.0,0.0,0.0,0.0,0.0,0.0,0.0,0.0,0.0,0.0,0.0,0.0,0.0,-2.6156,0.0,0.0,0.0,0.0,0.0,0.0,0.0,0.0,0.0,0.0,-3.1463,-3.3042,-3.5176,-3.6249,-3.7256,-3.8493,-3.8597,-3.8613,0.0,0.0,0.0,0.0,0.0,0.0,0.0,0.0,0.0,0.0,0.0,0.0,0.0,0.0,-3.5683,-3.213,-3.1135,-3.0708,-3.026,0.0,0.0,0.0,0.0,0.0,0.0,0.0,0.0,0.0,0.0,0.0,0.0,0.0,0.0,-2.5955,-2.5396,-2.5261,0.0,0.0,0.0,0.0,0.0,0.0,0.0,0.0,-2.8868,-2.9813,-3.0069,-3.0832,-3.1064,-3.0765,-3.0597,-2.9477,0.0,0.0,0.0,0.0,0.0,0.0,0.0,0.0,-3.234,-3.3669,-3.5658,-3.6641,-3.667,-3.7641,-3.7499,-3.6074,-3.6177,-3.4839,-3.1735,-3.1794,-3.0475,0.0,0.0,0.0,0.0,0.0,0.0,0.0,0.0,0.0,0.0,0.0,0.0,0.0,0.0,0.0,0.0,0.0,0.0,0.0,0.0,0.0,0.0,0.0,-2.6948,0.0,0.0,0.0,0.0,0.0,0.0,0.0,0.0,0.0,-3.1582,-3.2504,-3.399,-3.6468,-3.6956,-3.7547,-3.8879,0.0,0.0,0.0,0.0,0.0,0.0,0.0,-3.6529,-3.5392,-3.5642,-3.6174,-3.676,-3.7524,-3.8204,-3.8661,0.0,0.0,-3.5238,-3.4279,-3.3851,-3.3391,-3.2336,-3.1506,-3.1619,-3.106,-3.0576,0.0,0.0,0.0,0.0,-2.5486,0.0,0.0,0.0,-2.7685,-2.7582,0.0,-2.757,0.0,0.0,0.0,0.0,-2.653,-2.7391,0.0,0.0,-3.0776,-3.1886,-3.2034,-3.2273,-3.2432,-3.2447,-3.2257,-3.1753,-3.1047,-3.0093,0.0,0.0,0.0,0.0,0.0,0.0,-3.2672,-3.2957,-3.479,-3.5935,-3.6367,-3.6947,-3.6918,-3.6222,-3.6005,-3.4923,-3.2947,-3.3315,-3.2512,-3.0131,-2.9295,0.0,0.0,0.0,0.0,0.0,0.0,0.0,0.0,0.0,0.0,0.0,0.0,0.0,0.0,0.0,0.0,0.0,0.0,0.0,0.0,-2.5808,0.0,0.0,0.0,0.0,0.0,0.0,0.0,0.0,0.0,-3.1543,-3.233,-3.4066,-3.6239,-3.8611,0.0,0.0,0.0,0.0,-3.9542,-3.8671,-3.817,-3.7912,-3.7899,-3.7238,-3.7018,-3.7825,0.0,0.0,-3.8337,-3.7717,-3.7617,-3.8544,-3.9341,-3.9731,-3.9856,-3.8632,-3.7757,-3.7685,-3.5957,-3.4618,-3.4578,-3.4098,-3.3585,-2.8775,0.0,0.0,0.0,0.0,-2.8388,-2.917,-3.0317,-3.0088,-2.9897,-2.9644,-2.9072,0.0,0.0,0.0,0.0,0.0,0.0,-2.94,-3.0266,-3.1414,-3.209,-3.2457,-3.3059,-3.3418,-3.3599,-3.3423,-3.3223,-3.3051,-3.2637,-3.0678,-2.7378,0.0,0.0,0.0,0.0,-3.2791,-3.4154,-3.5654,-3.6662,-3.7218,-3.7653,-3.7367,-3.6294,-3.5796,-3.4675,-3.2829,-3.3151,-3.2596,-3.0926,-2.9697,0.0,0.0,0.0,0.0,0.0,0.0,0.0,0.0,0.0,0.0,0.0,0.0,0.0,0.0,0.0,0.0,0.0,0.0,0.0,-2.6204,-2.6898,-2.6923,0.0,0.0,0.0,0.0,0.0,0.0,0.0,0.0,0.0,-3.3684,-3.4239,-3.5062,0.0,0.0,-3.7669,-3.8788,-3.9288,-3.969,-4.0117,-3.9985,0.0,-3.9339,-3.919,-3.8825,-3.7997,-3.8827,-3.9707,-3.9922,-4.0207,-4.0549,-4.0946,-4.1176,-4.1339,-4.1395,-4.0844,-4.0103,-3.957,-3.8599,-3.7943,-3.797,-3.7098,-3.6185,-3.1547,-3.1233,-2.9151,-2.8783,-2.9555,-2.9783,-3.0556,-3.1562,-3.1448,-3.1271,-3.1019,-3.0602,-2.9872,-2.9017,-2.8467,0.0,0.0,0.0,-3.052,-3.1451,-3.1848,-3.2358,-3.2819,-3.3361,-3.3683,-3.381,-3.3962,-3.4052,-3.4092,-3.3753,-3.2249,-2.9742,0.0,-2.9908,-2.9246,-3.1952,-3.3827,-3.4761,-3.6083,-3.7087,-3.761,-3.7672,-3.7184,-3.6093,-3.5711,-3.4628,-3.28,-3.3341,-3.2961,-3.1408,-3.0456,-2.9508,0.0,0.0,0.0,0.0,0.0,0.0,0.0,0.0,0.0,0.0,0.0,-2.569,-2.4042,0.0,0.0,0.0,-2.5964,-2.6884,-2.7574,-2.8031,0.0,0.0,0.0,0.0,0.0,0.0,0.0,-2.9798,-3.1534,-3.338,-3.5011,-3.5331,-3.5929,-3.7498,-3.7653,-3.8153,-3.9661,0.0,-4.0804,-4.1503,-4.1016,-4.0508,-4.0331,-4.0078,-3.9713,-3.9207,-3.9943,-4.0665,-4.0837,-4.1306,-4.167,-4.1815,-4.188,-4.1966,-4.2055,-4.1792,-4.1544,-4.1088,-4.0291,-3.9806,-4.0184,-3.8942,-3.7794,-3.4334,-3.4115,-2.9992,-2.8973,-3.0104,-3.0618,-3.1094,-3.1521,-3.2022,-3.2001,-3.1562,-3.2001,-3.1719,-3.0911,-3.0648,0.0,-3.1012,-3.1088,-3.1602,-3.234,-3.2353,-3.2654,-3.3237,-3.3371,-3.3462,-3.3462,-3.4034,-3.4356,-3.4345,-3.3847,-3.3409,-3.3179,-3.356,-3.2781,-3.1129,-3.3882,-3.5188,-3.4775,-3.6128,-3.7074,-3.7548,-3.7226,-3.6632,-3.5666,-3.5674,-3.4768,-3.286,-3.3623,-3.3331,-3.1655,-3.1198,-3.0614,-2.9726,0.0,0.0,0.0,0.0,0.0,0.0,0.0,0.0,0.0,0.0,0.0,0.0,0.0,0.0,0.0,-2.7579,0.0,-2.8874,-2.9317,0.0,0.0,0.0,-3.022,-2.9793,-3.1156,-3.2128,-3.215,0.0,0.0,-3.6384,-3.6939,-3.8035,-4.0062,-3.9707,-3.9957,-4.1885,-4.2134,-4.2426,-4.2646,-4.1664,-4.0925,-4.1261,-4.0601,-4.0233,-4.0799,-4.1152,-4.1151,-4.118,-4.1283,-4.1431,-4.1538,-4.167,-4.1801,-4.1941,-4.1998,-4.2103,-4.2175,-4.1268,-4.065,-4.1266,-4.0022,-3.8888,-3.2848,-3.2631,-3.2117,-3.2167,-3.2617,-3.2742,-3.2642,-3.2424,-3.2505,-3.2621,-3.2696,-3.2353,-3.1879,-3.1329,-3.2088,-3.2239,-3.1946,-3.2814,-3.3287,-3.3483,-3.3508,-3.3796,-3.4299,-3.3941,-3.3871,-3.3994,-3.3773,-3.381,-3.4147,-3.404,-3.3564,-3.2868,-3.3371,-3.286,-3.1459,-3.3023,-3.4023,-3.4333,-3.5198,-3.6113,-3.7106,-3.7341,-3.6784,-3.5365,-3.563,-3.4889,-3.301,-3.215,-3.1881,-3.2123,-3.0299,-2.923,-2.9243,-2.7238,0.0,0.0,0.0,0.0,0.0,0.0,0.0,0.0,0.0,-2.6669,-2.4852,0.0,-2.7514,0.0,-2.9471,-3.1107,-3.1524,-3.1827,0.0,0.0,-3.1799,-3.2036,-3.2039,-3.3793,-3.4659,-3.3728,-3.5493,-3.708,-3.7809,-3.7566,-3.8135,-4.0324,-3.9298,-3.885,-4.0519,-4.1766,-4.2602,-4.3039,-4.364,-4.4036,-4.3371,-4.2344,-4.135,-4.1122,-4.1099,-4.1129,-4.1186,-4.1232,-4.1272,-4.1318,-4.1408,-4.1538,-4.1688,-4.1797,-4.1927,-4.2034,-4.1981,-4.2026,-4.2268,-4.1447,-4.0637,-3.2977,-3.2934,-3.3363,-3.3383,-3.3207,-3.3531,-3.3489,-3.3202,-3.3008,-3.2939,-3.3099,-3.2729,-3.2428,-3.2244,-3.2835,-3.2893,-3.2654,-3.3244,-3.3658,-3.3897,-3.3909,-3.4198,-3.47,-3.4412,-3.418,-3.406,-3.3745,-3.3652,-3.3666,-3.3738,-3.3627,-3.3348,-3.3739,-3.3388,-3.2321,-3.2541,-3.2898,-3.3318,-3.4186,-3.5424,-3.6947,-3.6957,-3.6222,-3.4823,-3.4695,-3.3797,-3.1968,-3.1107,-3.0774,-3.0763,-2.9446,-2.8703,-2.8755,-2.7141,-2.6141,0.0,0.0,0.0,0.0,0.0,0.0,0.0,0.0,0.0,0.0,0.0,-2.8748,-2.9045,-3.097,-3.2228,-3.2318,-3.2718,-3.2915,-3.2799,-3.3558,-3.4015,-3.3842,-3.5211,-3.6094,-3.583,-3.7146,-3.8524,-3.9654,-3.946,-3.9651,-4.1002,-3.9699,-3.9166,-4.0627,-4.1873,-4.2814,-4.3409,-4.4173,-4.4362,-4.344,-4.2585,-4.1799,-4.1173,-4.1006,-4.1029,-4.1065,-4.1129,-4.1157,-4.1226,-4.13,-4.1448,-4.1582,-4.1732,-4.1841,-4.1987,-4.2178,-4.2203,-4.2006,-4.1172,-4.0347,-3.3674,-3.3817,-3.3863,-3.3444,-3.2881,-3.3531,-3.3727,-3.3627,-3.3195,-3.3038,-3.3124,-3.3124,-3.3124,-3.3124,-3.3156,-3.3187,-3.3124,-3.3156,-3.347,-3.3985,-3.3997,-3.4336,-3.4926,-3.4864,-3.4575,-3.4123,-3.3972,-3.3702,-3.3268,-3.3351,-3.3547,-3.3827,-3.4022,-3.3722,-3.2906,-3.2046,-3.182,-3.2172,-3.3428,-3.491,-3.6532,-3.6023,-3.5166,-3.402,-3.3361,-3.2204,-3.0517,-3.0311,-2.9722,-2.8717,-2.8607,-2.8502,-2.8297,-2.7084,-2.6685,0.0,-2.6201,0.0,0.0,0.0,0.0,0.0,0.0,0.0,0.0,-2.9891,-3.0393,-3.1399,-3.2371,-3.2897,-3.2692,-3.3218,-3.364,-3.3802,-3.5112,-3.5798,-3.5318,-3.6085,-3.7012,-3.7921,-3.8779,-3.9955,-4.1421,-4.1677,-4.1579,-4.1466,-4.0429,-4.0005,-4.1138,-4.1899,-4.2518,-4.334,-4.3644,-4.3562,-4.2615,-4.2233,-4.1912,-4.1153,-4.0894,-4.0894,-4.0894,-4.1006,-4.1099,-4.1157,-4.1249,-4.1403,-4.1538,-4.1648,-4.1776,-4.1902,-4.2012,-4.1929,-4.1529,-4.0699,-3.9644,-3.3124,-3.2817,-3.2949,-3.2967,-3.2836,-3.3174,-3.2953,-3.236,-3.2468,-3.2736,-3.3124,-3.3124,-3.3124,-3.3162,-3.3545,-3.3508,-3.3149,-3.3545,-3.4035,-3.4517,-3.4562,-3.5102,-3.604,-3.5545,-3.5282,-3.5132,-3.4324,-3.3922,-3.3983,-3.3571,-3.3068,-3.2421,-3.2623,-3.2214,-3.1262,0.0,0.0,0.0,-3.3687,-3.459,-3.4482,-3.4068,-3.3494,-3.2764,-3.1996,0.0,-3.0122,-2.9153,-2.8405,-2.7954,-2.7553,0.0,0.0,0.0,0.0,0.0,0.0,0.0,0.0,0.0,0.0,0.0,-3.0464,-3.0522,-3.0372,-3.133,-3.2721,-3.4415,-3.4465,-3.4723,-3.5752,-3.5687,-3.5707,-3.5938,-3.6291,-3.6364,-3.6007,-3.7172,-3.8294,-3.8752,-4.0039,-4.1285,-4.2118,-4.1938,-4.1612,-4.1596,-4.0883,-4.0362,-4.0407,-4.0684,-4.0862,-4.1352,-4.284,-4.3526,-4.3053,-4.294,-4.2499,-4.1326,-4.0894,-4.0946,-4.0981,-4.0946,-4.0953,-4.1,-4.1053,-4.1192,-4.1272,-4.1386,-4.1538,-4.1648,-4.178,-4.1899,-4.207,-4.1884,-4.1391,-3.3585,-3.2887,-3.3001,-3.2877,0.0,-3.2795,-3.2479,-3.1881,-3.2257,-3.2766,-3.3321,-3.3727,-3.3884,-3.3897,-3.3897,-3.3759,-3.3495,-3.3771,-3.4198,-3.468,-3.4956,-3.5579,-3.6405,-3.6081,-3.5805,-3.5495,-3.4931,-3.4482,-3.4073,-3.3783,-3.3258,-3.2561,-3.2644,-3.2447,-3.1954,-3.1846,-3.1937,-3.2237,-3.3246,-3.4059,-3.4621,-3.4219,-3.3503,-3.2584,-3.1874,0.0,0.0,0.0,0.0,0.0,0.0,0.0,0.0,-2.7957,0.0,-2.9055,-2.8774,-2.9201,-3.0704,-3.1338,-3.2109,-3.3212,-3.4006,-3.3992,-3.3051,-3.3903,-3.4891,-3.5863,-3.5467,-3.5514,-3.6475,-3.6509,-3.6628,-3.7044,-3.701,-3.6893,-3.6862,-3.7264,-3.7914,-3.8642,-3.9476,-4.046,-4.1847,-4.1764,-4.1714,-4.2002,-4.1468,-4.0991,-4.0903,-4.1037,-4.1463,-4.2234,-4.3341,-4.3973,-4.3536,-4.3623,-4.3396,-4.2327,-4.2033,-4.205,-4.2033,-4.1705,-4.1447,-4.1494,-4.1306,-4.1123,-4.1186,-4.1318,-4.1448,-4.1582,-4.1732,-4.1884,-4.2079,-4.1902,-4.1332,-3.4318,-3.342,-3.3406,-3.307,-3.2498,-3.2589,-3.2334,-3.1849,-3.2206,0.0,0.0,-3.4145,-3.4485,-3.446,-3.4166,-3.4048,-3.4048,-3.4048,-3.4336,-3.4831,-3.5295,-3.5843,-3.6405,-3.6417,-3.6119,-3.5658,-3.5545,-3.5031,-3.4211,-3.4098,-3.3822,-3.3395,-3.3269,-3.3224,-3.3124,-3.3441,-3.3351,-3.2902,-3.2802,-3.3416,-3.481,-3.4403,-3.3619,-3.2624,-3.1943,-3.1171,-3.0298,-2.9781,-2.9438,-2.9247,-2.9013,-2.8999,-2.9251,-2.9219,-2.9412,-2.9857,-2.9889,-3.0718,-3.2555,-3.3394,-3.4475,-3.6037,-3.6924,-3.6937,-3.5923,-3.6447,-3.6761,-3.6671,-3.6267,-3.6207,-3.6596,-3.6727,-3.7071,-3.7647,-3.7476,-3.7325,-3.7413,-3.7109,-3.7375,-3.8354,-3.8698,-3.9388,-4.129,-4.1577,-4.1769,-4.2345,-4.2099,-4.179,-4.1772,-4.1752,-4.2104,-4.3198,-4.3675,-4.3978,-4.379,-4.3852,-4.3898,-4.3199,-4.312,-4.3207,-4.3103,-4.2654,-4.2299,-4.2355,-4.1867,-4.1567,-4.1418,-4.151,-4.152,-4.1555,-4.1648,-4.1727,-4.1732,-4.1511,-4.0895,-3.4853,-3.3891,-3.3935,-3.3338,-3.2523,-3.2978,-3.2875,-3.2403,-3.2144,-3.2262,-3.2579,-3.333,-3.3687,-3.3712,-3.429,-3.4613,-3.46,-3.46,-3.4856,-3.5382,-3.547,-3.5843,-3.6405,-3.6417,-3.6367,-3.6267,-3.5768,-3.5433,-3.5232,-3.4793,-3.455,-3.4437,-3.4022,-3.3558,-3.3162,-3.3154,-3.3327,-3.355,-3.3091,-3.275,-3.2496,-3.2401,-3.2281,-3.2064,-3.1258,-3.0939,-3.124,-2.9797,-2.9062,-2.9419,-2.9067,-2.8998,-2.9419,-2.9381,-2.9875,-3.1309,-3.146,-3.2176,-3.3729,-3.4158,-3.4777,-3.5834,-3.6753,-3.7207,-3.7146,-3.7749,-3.7883,-3.7375,-3.7629,-3.7778,-3.7375,-3.727,-3.7432,-3.7688,-3.7666,-3.7546,-3.7357,-3.7367,-3.7776,-3.8779,-3.9094,-3.985,-4.1502,-4.1917,-4.2013,-4.2443,-4.2441,-4.2439,-4.2245,-4.145,-4.1314,-4.2219,-4.2593,-4.2889,-4.3532,-4.3647,-4.3664,-4.326,-4.3293,-4.3379,-4.3396,-4.3189,-4.3034,-4.3059,-4.2894,-4.2607,-4.2202,-4.207,-4.1928,-4.166,-4.1553,-4.1472,-4.1205,-4.1343,-4.1271,-3.6006,-3.5327,-3.5276,-3.4689,-3.372,-3.3419,-3.3152,-3.2875,-3.2461,-3.2374,-3.2678,-3.3416,-3.3785,-3.3785,-3.3851,-3.3871,-3.3896,-3.4329,-3.4682,-3.4957,-3.5624,-3.6119,-3.6392,-3.6417,-3.6417,-3.6392,-3.6119,-3.583,-3.5495,-3.5232,-3.4969,-3.468,-3.4462,-3.4223,-3.3972,-3.3671,-3.3607,-3.3786,-3.3505,-3.3177,-3.2856,-3.2803,-3.268,-3.2362,-3.2118,-3.2169,-3.2475,-3.1816,-3.1554,-3.1789,-3.1474,-3.1447,-3.1739,-3.168,-3.2032,-3.2878,-3.2691,-3.2969,-3.4108,-3.475,-3.5634,-3.688,-3.734,-3.7588,-3.7629,-3.8107,-3.8272,-3.7958,-3.7913,-3.7898,-3.7913,-3.7943,-3.8128,-3.8587,-3.8406,-3.8266,-3.8251,-3.81,-3.8299,-3.8885,-3.9075,-3.9691,-4.1119,-4.1278,-4.1646,-4.2269,-4.2539,-4.2602,-4.2602,-4.2068,-4.1849,-4.2586,-4.295,-4.3372,-4.3967,-4.4323,-4.4401,-4.4397,-4.4389,-4.4406,-4.4354,-4.4113,-4.3828,-4.3759,-4.3517,-4.3128,-4.2763,-4.2777,-4.2504,-4.1985,-4.1893,-4.1735,-4.1354,-4.1243,-4.107,-3.7008,-3.6425,-3.6528,-3.5978,-3.4883,-3.403,-3.3573,-3.3416,-3.2911,-3.2783,-3.2977,-3.3518,-3.3719,-3.3694,-3.3482,-3.3371,-3.3478,-3.4041,-3.438,-3.467,-3.5528,-3.6119,-3.6367,-3.6245,-3.6292,-3.6405,-3.6417,-3.6144,-3.578,-3.5696,-3.5408,-3.4919,-3.4868,-3.4806,-3.4713,-3.4299,-3.4022,-3.3928,-3.3804,-3.3649,-3.3429,-3.3485,-3.3318,-3.2916,-3.3146,-3.3397,-3.3555,-3.3591,-3.3666,-3.3787,-3.3602,-3.356,-3.3715,-3.3754,-3.3792,-3.3853,-3.3512,-3.3573,-3.4181,-3.5116,-3.6164,-3.7246,-3.7649,-3.7817,-3.7803,-3.8222,-3.8361,-3.8127,-3.7784,-3.7849,-3.8287,-3.8542,-3.8841,-3.932,-3.9067,-3.8887,-3.9017,-3.8779,-3.8657,-3.897,-3.9035,-3.9494,-4.0382,-4.0733,-4.1213,-4.2109,-4.2445,-4.2492,-4.2523,-4.2555,-4.2696,-4.3052,-4.3339,-4.3588,-4.4162,-4.4524,-4.4828,-4.514,-4.5239,-4.5206,-4.5164,-4.4828,-4.4596,-4.4492,-4.413,-4.3759,-4.3534,-4.3481,-4.3227,-4.2653,-4.2534,-4.2386,-4.1777,-4.1345,-4.1114,-3.7273,-3.653,-3.686,-3.6519,-3.5483,-3.4883,-3.4378,-3.3922,-3.3452,-3.3212,-3.3305,-3.3038,-3.2934,-3.3015,-3.3563,-3.3801,-3.3826,-3.3982,-3.4379,-3.4922,-3.4744,-3.5219,-3.6245,-3.5868,-3.5881,-3.6355,-3.6417,-3.6367,-3.6292,-3.6304,-3.5994,-3.5483,-3.5433,-3.5194,-3.4743,-3.4688,-3.4399,-3.3922,-3.3891,-3.3645,-3.3215,-3.3479,-3.3652,-3.3601,-3.3526,-3.3759,-3.4164,-3.3661,-3.3594,-3.4073,-3.4,-3.3883,-3.3896,-3.3883,-3.3935,-3.3935,-3.3867,-3.3937,-3.4242,-3.5145,-3.5705,-3.5712,-3.6929,-3.7616,-3.7696,-3.8318,-3.8271,-3.7623,-3.7818,-3.8206,-3.8422,-3.8931,-3.9239,-3.9343,-3.9334,-3.9202,-3.8902,-3.8711,-3.8804,-3.9164,-3.9217,-3.9647,-4.0709,-4.1051,-4.1445,-4.2013,-4.219,-4.2238,-4.2381,-4.2429,-4.2555,-4.2898,-4.2912,-4.2974,-4.3413,-4.371,-4.4191,-4.4558,-4.4961,-4.514,-4.5169,-4.5249,-4.5276,-4.5009,-4.5121,-4.4803,-4.4414,-4.4216,-4.3965,-4.3358,-4.3138,-4.2996,-4.2427,-4.1885,-4.1657,-3.6734,-3.6386,-3.6601,-3.6244,-3.5594,-3.5687,-3.5454,-3.4928,-3.4749,-3.4499,-3.415,-3.3715,-3.317,-3.2602,-3.2641,-3.2658,-3.2682,-3.3109,-3.3456,-3.385,-3.452,-3.5176,-3.5631,-3.5959,-3.6157,-3.6392,-3.6417,-3.6417,-3.6417,-3.6417,-3.6279,-3.6044,-3.6031,-3.5906,-3.568,-3.5366,-3.4893,-3.4399,-3.406,-3.3633,-3.3187,-3.327,-3.3368,-3.3373,-3.3537,-3.372,-3.3998,-3.4186,-3.4473,-3.4726,-3.4887,-3.4951,-3.4951,-3.4951,-3.4951,-3.4963,-3.4847,-3.4664,-3.4423,-3.4975,-3.5599,-3.6115,-3.6713,-3.7293,-3.7878,-3.7959,-3.7879,-3.801,-3.8288,-3.8631,-3.8811,-3.9065,-3.925,-3.9373,-3.9388,-3.9376,-3.9335,-3.9274,-3.9395,-3.964,-3.966,-3.9841,-4.05,-4.0972,-4.1456,-4.1866,-4.2029,-4.2093,-4.2222,-4.2318,-4.2476,-4.2618,-4.2618,-4.2898,-4.3413,-4.3697,-4.3989,-4.439,-4.4642,-4.4807,-4.5042,-4.5194,-4.5274,-4.5274,-4.5344,-4.5328,-4.5027,-4.4923,-4.476,-4.412,-4.3452,-4.3103,-4.2423,-4.219,-4.2025,-3.6266,-3.6266,-3.6266,-3.5979,-3.5538,-3.5956,-3.5824,-3.5374,-3.5345,-3.5106,-3.4714,-3.422,-3.3612,-3.2931,-3.2385,-3.2078,-3.2006,-3.2454,-3.2759,-3.2897,-3.3896,-3.4545,-3.4888,-3.546,-3.5806,-3.5956,-3.6106,-3.6228,-3.6263,-3.6358,-3.6417,-3.6417,-3.6417,-3.6417,-3.6367,-3.5943,-3.5567,-3.5165,-3.4638,-3.4073,-3.3596,-3.337,-3.3232,-3.3136,-3.3398,-3.3556,-3.3556,-3.4301,-3.4688,-3.4729,-3.5236,-3.5521,-3.5548,-3.5629,-3.571,-3.5683,-3.5555,-3.5283,-3.4768,-3.5183,-3.5822,-3.6579,-3.6825,-3.7299,-3.7939,-3.7796,-3.7841,-3.8273,-3.8553,-3.873,-3.9053,-3.909,-3.9192,-3.9388,-3.9388,-3.946,-3.9574,-3.961,-3.9666,-3.9889,-3.9849,-4.0016,-4.0216,-4.0665,-4.1073,-4.1472,-4.167,-4.1851,-4.1948,-4.2077,-4.2206,-4.2381,-4.2508,-4.2774,-4.3339,-4.3638,-4.3902,-4.4162,-4.4361,-4.4714,-4.4923,-4.5059,-4.5123,-4.5167,-4.5264,-4.531,-4.5189,-4.5206,-4.5294,-4.4691,-4.4068,-4.3479,-4.3106,-4.2684,-4.2171,-3.6266,-3.6266,-3.6266,-3.5936,-3.5508,-3.555,-3.5274,-3.4813,-3.4773,-3.4716,-3.4636,-3.4248,-3.4005,-3.3901,-3.3434,-3.2959,-3.2515,-3.256,-3.2651,-3.2816,-3.25,-3.291,-3.3995,-3.4105,-3.4438,-3.5026,-3.5507,-3.5812,-3.6015,-3.6275,-3.6417,-3.6405,-3.6358,-3.637,-3.6358,-3.626,-3.6295,-3.6022,-3.5558,-3.5107,-3.4555,-3.4098,-3.3583,-3.3224,-3.3124,-3.3167,-3.3197,-3.3556,-3.381,-3.3797,-3.4647,-3.5113,-3.5154,-3.548,-3.5669,-3.571,-3.5683,-3.5597,-3.546,-3.5908,-3.6384,-3.6708,-3.7097,-3.772,-3.8089,-3.8113,-3.8136,-3.824,-3.8335,-3.8574,-3.8958,-3.9031,-3.9141,-3.9352,-3.9373,-3.9388,-3.9424,-3.9409,-3.9517,-3.9661,-3.9717,-3.9859,-4.013,-4.0216,-4.057,-4.0876,-4.0948,-4.1229,-4.1743,-4.1797,-4.201,-4.2286,-4.2462,-4.2492,-4.268,-4.3096,-4.3489,-4.3805,-4.4246,-4.4726,-4.4848,-4.4913,-4.4985,-4.5032,-4.514,-4.5194,-4.522,-4.5274,-4.5353,-4.5061,-4.4673,-4.4181,-4.3757,-4.2908,-4.2469,-3.5179,-3.5179,-3.5554,-3.5387,-3.4978,-3.5688,-3.5455,-3.4634,-3.5025,-3.4942,-3.4626,-3.4464,-3.4406,-3.4444,-3.4675,-3.4125,-3.3046,-3.3008,-3.3042,-3.3134,-3.3392,-3.364,-3.3793,-3.4581,-3.492,-3.4883,-3.5362,-3.5656,-3.5764,-3.586,-3.5895,-3.5895,-3.5895,-3.5895,-3.5895,-3.5895,-3.5734,-3.54,-3.5317,-3.5002,-3.4512,-3.4084,-3.3796,-3.3608,-3.3244,-3.3124,-3.3124,-3.3484,-3.3713,-3.3713,-3.4314,-3.4647,-3.4688,-3.5059,-3.544,-3.5683,-3.571,-3.5655,-3.5625,-3.5802,-3.6136,-3.6468,-3.6724,-3.7162,-3.7758,-3.8184,-3.84,-3.8301,-3.8638,-3.8856,-3.8715,-3.8701,-3.8775,-3.898,-3.9141,-3.9213,-3.9228,-3.9301,-3.9445,-3.9466,-3.9502,-3.9646,-4.0051,-4.0401,-4.0858,-4.1392,-4.1821,-4.2113,-4.2454,-4.2658,-4.264,-4.2563,-4.2633,-4.2653,-4.2445,-4.2711,-4.3054,-4.349,-4.3946,-4.4332,-4.455,-4.519,-4.5388,-4.5227,-4.5217,-4.5155,-4.5209,-4.5274,-4.5371,-4.5328,-4.4932,-4.4699,-4.438,-4.3637,-4.3237,-3.3942,-3.4009,-3.4536,-3.4602,-3.4345,-3.529,-3.5279,-3.4547,-3.4947,-3.4869,-3.4624,-3.4609,-3.462,-3.4751,-3.5115,-3.482,-3.3801,-3.3779,-3.3609,-3.3344,-3.3832,-3.3843,-3.3708,-3.4419,-3.477,-3.4672,-3.5171,-3.5476,-3.5476,-3.5572,-3.562,-3.5633,-3.5633,-3.5633,-3.5633,-3.5633,-3.5399,-3.5139,-3.5095,-3.4845,-3.4437,-3.3903,-3.3689,-3.3601,-3.314,-3.2952,-3.3081,-3.3356,-3.3513,-3.3556,-3.3937,-3.423,-3.4426,-3.4825,-3.5195,-3.548,-3.5629,-3.571,-3.571,-3.571,-3.5884,-3.6351,-3.6419,-3.6763,-3.7586,-3.8061,-3.8236,-3.8371,-3.86,-3.8728,-3.8512,-3.8404,-3.8501,-3.876,-3.8907,-3.9031,-3.9017,-3.9192,-3.9301,-3.9388,-3.9424,-3.9607,-4.0064,-4.0477,-4.0997,-4.1674,-4.217,-4.2525,-4.2844,-4.3007,-4.3126,-4.2902,-4.276,-4.2725,-4.2573,-4.2623,-4.2823,-4.3197,-4.368,-4.4049,-4.4532,-4.5231,-4.5659,-4.5467,-4.5307,-4.5224,-4.5206,-4.5255,-4.53,-4.5327,-4.5294,-4.5096,-4.4768,-4.444,-4.3991,-3.2742,-3.2856,-3.3346,-3.3649,-3.3681,-3.4233,-3.4457,-3.4289,-3.4412,-3.4368,-3.4248,-3.4449,-3.4532,-3.4614,-3.4801,-3.4721,-3.4595,-3.466,-3.427,-3.3562,-3.349,-3.3477,-3.3427,-3.3703,-3.3957,-3.4258,-3.4872,-3.5187,-3.5223,-3.5428,-3.5524,-3.5572,-3.5512,-3.5524,-3.5572,-3.5524,-3.5548,-3.5401,-3.5057,-3.4858,-3.4686,-3.3908,-3.3449,-3.3305,-3.2813,-3.2723,-3.3088,-3.3093,-3.3111,-3.3154,-3.3471,-3.3924,-3.4314,-3.4743,-3.5044,-3.5113,-3.544,-3.5669,-3.5683,-3.5669,-3.5898,-3.6232,-3.6365,-3.6744,-3.7498,-3.7739,-3.7915,-3.8337,-3.8395,-3.8275,-3.826,-3.824,-3.8352,-3.8708,-3.8797,-3.8797,-3.8819,-3.898,-3.9177,-3.9352,-3.9469,-3.9687,-4.0187,-4.0636,-4.1084,-4.167,-4.2002,-4.2272,-4.2763,-4.291,-4.2911,-4.3087,-4.2956,-4.2721,-4.2609,-4.2539,-4.2686,-4.2914,-4.3446,-4.3896,-4.4437,-4.5081,-4.5702,-4.5667,-4.5654,-4.5557,-4.5063,-4.5086,-4.5194,-4.5247,-4.53,-4.5328,-4.5113,-4.4785,-4.4509,-3.2685,-3.2685,-3.2913,-3.297,-3.298,-3.3208,-3.3037,-3.2706,-3.3037,-3.3264,-3.3346,-3.3735,-3.4117,-3.4582,-3.4975,-3.4944,-3.4671,-3.5045,-3.4934,-3.4377,-3.4321,-3.4125,-3.3947,-3.4535,-3.4968,-3.5124,-3.5329,-3.5282,-3.4993,-3.5042,-3.503,-3.5017,-3.5066,-3.5078,-3.5066,-3.5078,-3.5078,-3.5042,-3.5065,-3.5076,-3.5027,-3.4568,-3.4305,-3.4219,-3.3445,-3.303,-3.3162,-3.2934,-3.2822,-3.281,-3.3099,-3.3471,-3.3852,-3.405,-3.4272,-3.4605,-3.5031,-3.5277,-3.5318,-3.5562,-3.5737,-3.5898,-3.5952,-3.6367,-3.717,-3.7645,-3.7944,-3.8313,-3.862,-3.8754,-3.8318,-3.8202,-3.8277,-3.8389,-3.8501,-3.8627,-3.8649,-3.8885,-3.9192,-3.9397,-3.9813,-4.0172,-4.0516,-4.0995,-4.182,-4.2273,-4.2711,-4.3121,-4.3381,-4.3388,-4.3373,-4.3304,-4.2999,-4.2731,-4.2676,-4.2491,-4.2412,-4.2654,-4.3113,-4.3643,-4.42,-4.4806,-4.543,-4.5892,-4.5872,-4.5665,-4.5165,-4.4951,-4.5059,-4.4995,-4.4911,-4.5042,-4.5216,-4.507,-4.4768,-3.2018,-3.2065,-3.2295,-3.2352,-3.241,-3.2581,-3.2457,-3.218,-3.2524,-3.2685,-3.2799,-3.3094,-3.3614,-3.4121,-3.4557,-3.467,-3.4614,-3.4984,-3.4975,-3.4762,-3.4758,-3.4577,-3.4388,-3.4942,-3.5316,-3.5364,-3.5521,-3.5449,-3.5136,-3.5112,-3.5028,-3.4811,-3.4775,-3.4823,-3.4775,-3.4763,-3.4715,-3.4583,-3.4667,-3.4787,-3.4666,-3.4421,-3.4332,-3.4356,-3.3674,-3.3271,-3.3244,-3.2921,-3.2672,-3.2643,-3.2822,-3.3275,-3.3974,-3.4114,-3.4264,-3.4756,-3.5165,-3.5407,-3.5237,-3.5556,-3.579,-3.5804,-3.5967,-3.6525,-3.7328,-3.7866,-3.81,-3.8516,-3.8724,-3.8746,-3.8409,-3.8228,-3.8231,-3.8202,-3.8315,-3.8441,-3.8516,-3.8775,-3.9068,-3.9348,-3.989,-4.039,-4.0935,-4.1632,-4.2539,-4.2872,-4.3286,-4.3651,-4.3832,-4.3879,-4.3669,-4.3457,-4.3223,-4.2999,-4.2769,-4.251,-4.2141,-4.2394,-4.2784,-4.3262,-4.3817,-4.4395,-4.5005,-4.5617,-4.579,-4.5642,-4.5224,-4.495,-4.4906,-4.4759,-4.4712,-4.4963,-4.5232,-4.5173,-4.4958,-3.0947,-3.0947,-3.1508,-3.174,-3.1787,-3.2295,-3.2467,-3.2524,-3.2571,-3.2571,-3.2628,-3.2742,-3.3037,-3.3455,-3.3625,-3.392,-3.4345,-3.4447,-3.4494,-3.4535,-3.4659,-3.4719,-3.4781,-3.492,-3.5023,-3.5048,-3.5543,-3.5651,-3.5384,-3.5567,-3.5315,-3.4725,-3.4798,-3.4799,-3.4787,-3.4775,-3.457,-3.4246,-3.4186,-3.4198,-3.4174,-3.3741,-3.3728,-3.409,-3.3668,-3.3425,-3.3353,-3.3004,-3.2637,-3.2474,-3.2605,-3.3233,-3.4286,-3.4559,-3.4632,-3.518,-3.5758,-3.5652,-3.543,-3.5653,-3.5896,-3.5984,-3.6355,-3.7012,-3.778,-3.7979,-3.8186,-3.8532,-3.8543,-3.8432,-3.831,-3.8208,-3.8133,-3.8202,-3.824,-3.8329,-3.8464,-3.8701,-3.887,-3.9172,-3.9846,-4.0554,-4.11,-4.1773,-4.2432,-4.2955,-4.3189,-4.3337,-4.3596,-4.3675,-4.3769,-4.3576,-4.3282,-4.3111,-4.2869,-4.2439,-4.2108,-4.2169,-4.244,-4.2719,-4.3312,-4.3922,-4.4671,-4.527,-4.5614,-4.5469,-4.5269,-4.4941,-4.4803,-4.4783,-4.4885,-4.5123,-4.5144,-4.5025,-4.5043,-3.0898,-3.0947,-3.1064,-3.1112,-3.117,-3.1344,-3.1392,-3.145,-3.1845,-3.2018,-3.2123,-3.2514,-3.2753,-3.2924,-3.2924,-3.3275,-3.3727,-3.3829,-3.3853,-3.3973,-3.4452,-3.4678,-3.4872,-3.5188,-3.5348,-3.547,-3.6108,-3.6171,-3.515,-3.58,-3.5451,-3.4284,-3.4975,-3.5111,-3.4847,-3.4775,-3.4763,-3.4607,-3.4558,-3.4546,-3.4522,-3.4475,-3.4487,-3.4498,-3.4066,-3.3814,-3.3706,-3.3017,-3.2564,-3.2418,-3.2431,-3.2846,-3.3737,-3.3865,-3.4135,-3.4837,-3.5296,-3.5537,-3.5458,-3.5757,-3.5976,-3.6002,-3.6476,-3.6816,-3.692,-3.7676,-3.784,-3.7765,-3.7774,-3.7896,-3.7593,-3.7648,-3.7877,-3.8165,-3.8246,-3.8321,-3.8441,-3.8553,-3.8649,-3.8892,-3.9676,-4.0308,-4.0726,-4.1279,-4.1998,-4.2536,-4.277,-4.2905,-4.3274,-4.3463,-4.3557,-4.3386,-4.3165,-4.3069,-4.2838,-4.2416,-4.2131,-4.2081,-4.2088,-4.201,-4.2703,-4.341,-4.4282,-4.5087,-4.5303,-4.5261,-4.4992,-4.466,-4.4709,-4.4765,-4.4569,-4.4568,-4.4832,-4.4869,-4.4939,-3.0694,-3.0704,-3.083,-3.0898,-3.0898,-3.0898,-3.0898,-3.0947,-3.1218,-3.145,-3.1508,-3.1787,-3.2065,-3.2295,-3.2352,-3.2638,-3.3151,-3.3197,-3.3197,-3.3247,-3.3371,-3.3767,-3.4272,-3.4774,-3.5102,-3.5561,-3.6188,-3.6228,-3.588,-3.6042,-3.5351,-3.461,-3.4738,-3.4768,-3.4506,-3.4738,-3.4775,-3.4763,-3.4775,-3.4775,-3.4775,-3.4775,-3.4763,-3.4739,-3.445,-3.4258,-3.3946,-3.3452,-3.3167,-3.3076,-3.2722,-3.2676,-3.3575,-3.3464,-3.3702,-3.4392,-3.47,-3.4848,-3.5041,-3.5398,-3.5771,-3.6101,-3.6564,-3.686,-3.7062,-3.7599,-3.7699,-3.7758,-3.7699,-3.7583,-3.751,-3.7551,-3.7691,-3.7944,-3.8335,-3.8545,-3.8425,-3.8741,-3.8919,-3.9289,-3.9999,-4.081,-4.0857,-4.1328,-4.1951,-4.2521,-4.262,-4.2851,-4.3165,-4.323,-4.3275,-4.3244,-4.3208,-4.3193,-4.3099,-4.2744,-4.2421,-4.2315,-4.1946,-4.1795,-4.2235,-4.2977,-4.3565,-4.4301,-4.4737,-4.4938,-4.4639,-4.4485,-4.4626,-4.4529,-4.4194,-4.4225,-4.4609,-4.4822,-4.4875,-3.0333,-3.0382,-3.0645,-3.0772,-3.0772,-3.083,-3.083,-3.083,-3.0947,-3.0947,-3.1005,-3.0947,-3.1344,-3.1682,-3.174,-3.2076,-3.2571,-3.2571,-3.2685,-3.2582,-3.2538,-3.2662,-3.3474,-3.3776,-3.4193,-3.4823,-3.5248,-3.5699,-3.5768,-3.5512,-3.5149,-3.4447,-3.4088,-3.4143,-3.4268,-3.4553,-3.4762,-3.4895,-3.4859,-3.4775,-3.4775,-3.4775,-3.4775,-3.4763,-3.4739,-3.4583,-3.4318,-3.403,-3.404,-3.4434,-3.2977,-3.2918,-3.3768,-3.3449,-3.3519,-3.3942,-3.4144,-3.4247,-3.4363,-3.4758,-3.5174,-3.5744,-3.6353,-3.6944,-3.7223,-3.7561,-3.7927,-3.7804,-3.7674,-3.769,-3.7743,-3.7707,-3.7703,-3.792,-3.8616,-3.8741,-3.8705,-3.9089,-3.9554,-3.954,-4.0705,-4.1489,-4.1592,-4.1798,-4.2025,-4.2037,-4.2219,-4.2473,-4.2931,-4.326,-4.3305,-4.3299,-4.3324,-4.3394,-4.3289,-4.3159,-4.2836,-4.2608,-4.2091,-4.185,-4.205,-4.2572,-4.2912,-4.3338,-4.3791,-4.4119,-4.4236,-4.4241,-4.4412,-4.4536,-4.431,-4.4495,-4.4759,-4.4828,-4.4903,-2.9981,-2.9981,-3.0098,-3.0108,-3.0157,-3.0392,-3.0509,-3.0518,-3.0772,-3.0889,-3.0898,-3.0898,-3.1005,-3.1112,-3.117,-3.1402,-3.195,-3.2008,-3.2238,-3.2618,-3.2119,-3.195,-3.2384,-3.2797,-3.302,-3.3377,-3.4305,-3.4389,-3.3941,-3.4532,-3.428,-3.3242,-3.3722,-3.4175,-3.4445,-3.4289,-3.461,-3.5194,-3.5003,-3.4859,-3.4775,-3.4775,-3.4775,-3.4775,-3.4775,-3.4955,-3.5003,-3.4438,-3.427,-3.4306,-3.3763,-3.3322,-3.3545,-3.3542,-3.3622,-3.3842,-3.3937,-3.3982,-3.4098,-3.4152,-3.428,-3.4609,-3.548,-3.6103,-3.6128,-3.7484,-3.7712,-3.7468,-3.7626,-3.7739,-3.7469,-3.7397,-3.7585,-3.8044,-3.8531,-3.9038,-3.9532,-3.9838,-3.9804,-3.9654,-4.0105,-4.0378,-3.9589,-4.0182,-4.0704,-4.1347,-4.1781,-4.2067,-4.2598,-4.3205,-4.329,-4.329,-4.3305,-4.3369,-4.3268,-4.3156,-4.2932,-4.2738,-4.2275,-4.1828,-4.1998,-4.2177,-4.2509,-4.2686,-4.284,-4.3174,-4.3578,-4.3919,-4.4064,-4.4224,-4.4384,-4.4468,-4.4553,-4.472,-4.4886,-2.9686,-2.9745,-2.9863,-2.9922,-2.9922,-3.0098,-3.0265,-3.0392,-3.0577,-3.0762,-3.0889,-3.0898,-3.0898,-3.0898,-3.0947,-3.1122,-3.1344,-3.1392,-3.1566,-3.173,-3.1498,-3.1392,-3.1431,-3.1795,-3.1989,-3.2451,-3.3289,-3.3442,-3.3628,-3.3629,-3.357,-3.2841,-3.3152,-3.3253,-3.3846,-3.4082,-3.4492,-3.4825,-3.5096,-3.5088,-3.4823,-3.4775,-3.4775,-3.4775,-3.4775,-3.4943,-3.5051,-3.4703,-3.4558,-3.457,-3.4294,-3.38,-3.3496,-3.3458,-3.355,-3.3606,-3.3396,-3.3561,-3.368,-3.3603,-3.3625,-3.3903,-3.4645,-3.5015,-3.5331,-3.6415,-3.6883,-3.6817,-3.7034,-3.7069,-3.6699,-3.6796,-3.7197,-3.7585,-3.8484,-3.9244,-3.9758,-4.0246,-4.0307,-3.9929,-4.0353,-4.0295,-3.9978,-3.9815,-4.0297,-4.139,-4.1276,-4.1551,-4.2614,-4.313,-4.321,-4.325,-4.329,-4.3299,-4.3259,-4.3109,-4.2902,-4.2768,-4.2504,-4.201,-4.1829,-4.1959,-4.2112,-4.2236,-4.2349,-4.2664,-4.305,-4.3383,-4.3667,-4.3756,-4.3919,-4.4138,-4.4298,-4.4384,-4.4609,-2.944,-2.945,-2.9686,-2.9745,-2.9745,-2.9804,-2.9981,-3.0216,-3.0323,-3.0518,-3.0762,-3.0762,-3.0713,-3.0889,-3.083,-3.083,-3.0947,-3.0947,-3.1064,-3.1064,-3.1064,-3.1005,-3.1054,-3.1121,-3.1476,-3.2395,-3.2525,-3.295,-3.3204,-3.3278,-3.2871,-3.2775,-3.2614,-3.2712,-3.2955,-3.3602,-3.431,-3.4419,-3.4849,-3.5098,-3.4835,-3.4775,-3.4775,-3.4775,-3.4775,-3.4787,-3.4847,-3.4751,-3.4751,-3.4775,-3.4775,-3.4354,-3.3801,-3.3428,-3.3332,-3.3355,-3.3039,-3.3013,-3.3211,-3.3062,-3.3043,-3.3661,-3.3814,-3.4218,-3.474,-3.5168,-3.5827,-3.641,-3.6765,-3.672,-3.6342,-3.6809,-3.6933,-3.7244,-3.8563,-3.9297,-3.9753,-4.0466,-4.0697,-4.051,-4.0797,-4.0891,-4.046,-4.0159,-4.0744,-4.12,-4.1042,-4.1253,-4.2342,-4.2996,-4.3076,-4.3195,-4.325,-4.3305,-4.3279,-4.3259,-4.3014,-4.2872,-4.2709,-4.223,-4.1756,-4.1724,-4.1828,-4.1859,-4.1996,-4.2285,-4.2585,-4.2958,-4.3188,-4.3262,-4.3489,-4.3726,-4.3906,-4.401,-4.4298,-2.9094,-2.9094,-2.9163,-2.9163,-2.9222,-2.944,-2.9627,-2.9686,-2.9922,-3.0157,-3.046,-3.0225,-3.0411,-3.0704,-3.0567,-3.0635,-3.0772,-3.0782,-3.084,-3.083,-3.083,-3.0889,-3.083,-3.0889,-3.1054,-3.1168,-3.1365,-3.1564,-3.1622,-3.181,-3.2191,-3.1922,-3.2147,-3.2498,-3.2777,-3.3034,-3.3614,-3.4178,-3.4454,-3.4574,-3.4676,-3.4775,-3.4775,-3.4775,-3.4775,-3.4775,-3.4775,-3.4775,-3.4775,-3.4775,-3.4775,-3.4667,-3.4402,-3.4102,-3.3765,-3.3464,-3.326,-3.3162,-3.2979,-3.2738,-3.2376,-3.2321,-3.2746,-3.3572,-3.4272,-3.4763,-3.5395,-3.6322,-3.7022,-3.7413,-3.7966,-3.7662,-3.8123,-3.8516,-3.8741,-3.9271,-3.9731,-4.0373,-4.0974,-4.0689,-4.1157,-4.1424,-4.0706,-4.0309,-4.0792,-4.1134,-4.1174,-4.1498,-4.2379,-4.2835,-4.2955,-4.3076,-4.3195,-4.325,-4.3275,-4.3299,-4.3208,-4.31,-4.2856,-4.2363,-4.1971,-4.1689,-4.1581,-4.1385,-4.1554,-4.1916,-4.2222,-4.257,-4.2695,-4.2758,-4.3066,-4.3353,-4.3399,-4.3505,-4.3906,-2.8984,-2.8984,-2.8984,-2.8984,-2.9044,-2.9163,-2.9322,-2.9509,-2.9686,-2.9863,-3.0039,-2.999,-3.0049,-3.0284,-3.0225,-3.0284,-3.0352,-3.0411,-3.0411,-3.0411,-3.0518,-3.0635,-3.0704,-3.0762,-3.0889,-3.0956,-3.0991,-3.095,-3.0842,-3.1314,-3.1652,-3.1869,-3.1933,-3.2204,-3.2682,-3.2907,-3.3034,-3.3676,-3.4082,-3.4325,-3.4469,-3.4628,-3.4775,-3.4775,-3.4775,-3.4775,-3.4775,-3.4775,-3.4775,-3.4775,-3.4775,-3.4775,-3.4691,-3.4546,-3.4282,-3.4066,-3.3813,-3.3585,-3.326,-3.3092,-3.2803,-3.2668,-3.288,-3.3426,-3.4139,-3.4604,-3.5148,-3.5982,-3.6385,-3.6837,-3.7125,-3.7497,-3.7661,-3.7935,-3.8304,-3.8754,-3.9062,-3.9717,-4.0077,-4.0435,-4.0879,-4.0882,-4.0466,-4.0361,-4.0749,-4.1022,-4.1237,-4.1766,-4.2482,-4.2648,-4.2795,-4.2915,-4.3036,-4.317,-4.3225,-4.325,-4.3305,-4.3219,-4.2893,-4.2424,-4.1874,-4.148,-4.1005,-4.0604,-4.0932,-4.1423,-4.1883,-4.2222,-4.2238,-4.2318,-4.2633,-4.2865,-4.2896,-4.3066,-4.3476,-2.9048,-2.8984,-2.9067,-2.9058,-2.8993,-2.8984,-2.9153,-2.939,-2.939,-2.9568,-2.9804,-2.9745,-2.9745,-2.9863,-2.9922,-2.9922,-2.9922,-2.9922,-2.9981,-2.9981,-3.0157,-3.0333,-3.0392,-3.0577,-3.0762,-3.0752,-3.0918,-3.0993,-3.105,-3.1311,-3.1554,-3.1756,-3.1622,-3.1742,-3.2236,-3.2649,-3.2641,-3.2943,-3.3518,-3.4043,-3.4195,-3.4384,-3.4726,-3.4775,-3.4775,-3.4775,-3.4775,-3.4775,-3.4775,-3.4775,-3.4775,-3.4775,-3.4775,-3.4775,-3.4763,-3.4703,-3.4366,-3.4162,-3.3874,-3.3681,-3.3344,-3.314,-3.3236,-3.3701,-3.4158,-3.4529,-3.4938,-3.5645,-3.6006,-3.6284,-3.6787,-3.6847,-3.7012,-3.7243,-3.7758,-3.8116,-3.8117,-3.8449,-3.8948,-3.9459,-4.022,-4.0495,-4.0291,-4.0643,-4.1076,-4.1421,-4.1637,-4.1736,-4.2322,-4.2418,-4.2581,-4.2729,-4.289,-4.305,-4.313,-4.317,-4.325,-4.3284,-4.283,-4.2301,-4.1663,-4.1113,-4.061,-4.0218,-4.0397,-4.0885,-4.139,-4.1818,-4.1916,-4.2045,-4.2254,-4.2397,-4.2429,-4.2664,-4.3035,-2.9305,-2.9012,-2.936,-2.9305,-2.9039,-2.903,-2.9003,-2.9062,-2.914,-2.9213,-2.9499,-2.9272,-2.9459,-2.9745,-2.9863,-2.9863,-2.9863,-2.9804,-2.9804,-2.9804,-2.9931,-2.9981,-2.999,-3.0333,-3.045,-3.0567,-3.0762,-3.0879,-3.1032,-3.1416,-3.1455,-3.1523,-3.2041,-3.2391,-3.1817,-3.2292,-3.2461,-3.2431,-3.2662,-3.3165,-3.3866,-3.4113,-3.4432,-3.4628,-3.4811,-3.4799,-3.4787,-3.4775,-3.4775,-3.4775,-3.4775,-3.4775,-3.4775,-3.4775,-3.4775,-3.4775,-3.4679,-3.4486,-3.4126,-3.397,-3.3813,-3.3585,-3.344,-3.3597,-3.4137,-3.4678,-3.5063,-3.5198,-3.5778,-3.6332,-3.6785,-3.7233,-3.7428,-3.7471,-3.7571,-3.745,-3.7271,-3.7607,-3.8021,-3.8228,-3.8876,-4.0008,-4.0485,-4.0952,-4.1448,-4.174,-4.199,-4.202,-4.2117,-4.2269,-4.2392,-4.2581,-4.2648,-4.2824,-4.297,-4.301,-4.313,-4.321,-4.2737,-4.2147,-4.1565,-4.098,-4.0444,-4.0162,-4.0243,-4.0401,-4.0901,-4.129,-4.1555,-4.1753,-4.1916,-4.1964,-4.1963,-4.2286,-4.2633,-3.003,-2.969,-2.9865,-2.9828,-2.9681,-2.9672,-2.9534,-2.9402,-2.9314,-2.9306,-2.9181,-2.9103,-2.9153,-2.94,-2.939,-2.94,-2.939,-2.939,-2.939,-2.945,-2.9577,-2.9686,-2.9745,-2.9981,-3.0147,-3.0392,-3.0518,-3.0762,-3.0947,-3.116,-3.1263,-3.1553,-3.1753,-3.1878,-3.1657,-3.2083,-3.2028,-3.2047,-3.2254,-3.2796,-3.3515,-3.4076,-3.4421,-3.4371,-3.4915,-3.5039,-3.4859,-3.4775,-3.4775,-3.4775,-3.4775,-3.4775,-3.4775,-3.4775,-3.4775,-3.4775,-3.4775,-3.4655,-3.4474,-3.4438,-3.4306,-3.4234,-3.4138,-3.4306,-3.4511,-3.474,-3.5066,-3.5206,-3.5448,-3.5941,-3.638,-3.6662,-3.6908,-3.7078,-3.7224,-3.7312,-3.7088,-3.7012,-3.7277,-3.7401,-3.7593,-3.8686,-3.9648,-4.0012,-4.0461,-4.1078,-4.1513,-4.1827,-4.198,-4.2175,-4.2325,-4.2459,-4.2541,-4.2581,-4.2729,-4.2835,-4.2955,-4.2961,-4.2525,-4.1978,-4.1489,-4.0905,-4.0334,-3.9977,-4.0001,-4.0191,-4.0505,-4.0867,-4.1272,-4.1423,-4.1522,-4.1571,-4.1587,-4.1817,-4.2158,-3.0763,-3.0488,-3.0387,-3.0296,-3.0204,-3.0204,-3.002,-2.9755,-2.9727,-2.9571,-2.9324,-2.9195,-2.9094,-2.8993,-2.9044,-2.9044,-2.9044,-2.8984,-2.8984,-2.9094,-2.9213,-2.9331,-2.944,-2.9677,-2.9922,-3.0216,-3.0392,-3.0518,-3.0704,-3.0937,-3.117,-3.1556,-3.1553,-3.1507,-3.1783,-3.2167,-3.2319,-3.2114,-3.2284,-3.2689,-3.3259,-3.3788,-3.4117,-3.4416,-3.4883,-3.5276,-3.5039,-3.4991,-3.5003,-3.4775,-3.4775,-3.4775,-3.4775,-3.4775,-3.4775,-3.4775,-3.4775,-3.4763,-3.4703,-3.4703,-3.4763,-3.4775,-3.4775,-3.4691,-3.4751,-3.4823,-3.4872,-3.5054,-3.509,-3.5259,-3.55,-3.5883,-3.6075,-3.6341,-3.6533,-3.6882,-3.7127,-3.6826,-3.6749,-3.6969,-3.7108,-3.7222,-3.8048,-3.8575,-3.9284,-4.0192,-4.0881,-4.1505,-4.18,-4.1993,-4.216,-4.2295,-4.2351,-4.2392,-4.2541,-4.2648,-4.2769,-4.2717,-4.2283,-4.1807,-4.1299,-4.0733,-4.0165,-3.9922,-3.9736,-3.9925,-4.0191,-4.0593,-4.0969,-4.0987,-4.1055,-4.1156,-4.1256,-4.1456,-4.1654,-3.1322,-3.1267,-3.0901,-3.0552,-3.025,-3.0204,-3.0204,-3.0158,-3.0158,-3.0121,-2.9956,-2.969,-2.9287,-2.9076,-2.9003,-2.8984,-2.8984,-2.8984,-2.8984,-2.8984,-2.9044,-2.9103,-2.9213,-2.939,-2.9568,-2.9745,-3.003,-3.0323,-3.0518,-3.0645,-3.083,-3.0966,-3.1273,-3.1341,-3.1584,-3.2006,-3.2561,-3.2513,-3.2547,-3.263,-3.2934,-3.3266,-3.3485,-3.4435,-3.4769,-3.5032,-3.5495,-3.5363,-3.522,-3.4787,-3.4775,-3.4775,-3.4775,-3.4775,-3.4775,-3.4775,-3.4775,-3.4775,-3.4775,-3.4775,-3.4775,-3.4775,-3.4775,-3.4775,-3.4775,-3.4775,-3.4823,-3.4872,-3.4932,-3.4981,-3.5175,-3.5295,-3.5471,-3.5712,-3.5991,-3.6241,-3.6379,-3.6271,-3.6231,-3.654,-3.6713,-3.6801,-3.7133,-3.7835,-3.8698,-3.9662,-4.0446,-4.1068,-4.1515,-4.1736,-4.1949,-4.2075,-4.2119,-4.2201,-4.2366,-4.2474,-4.2541,-4.2519,-4.2275,-4.1715,-4.1175,-4.0575,-4.0167,-3.9644,-3.9496,-3.9676,-3.9854,-4.0156,-4.0385,-4.0489,-4.0612,-4.0817,-4.1021,-4.1256,-4.139,-3.1377,-3.1359,-3.1212,-3.1066,-3.0928,-3.0928,-3.0791,-3.0589,-3.0561,-3.0415,-3.0176,-2.9773,-2.9489,-2.9314,-2.9067,-2.8984,-2.8984,-2.8984,-2.8984,-2.8984,-2.8984,-2.8984,-2.9044,-2.9163,-2.934,-2.9509,-2.9795,-2.9971,-3.0098,-3.0284,-3.046,-3.0684,-3.1044,-3.1101,-3.1307,-3.1614,-3.2197,-3.2703,-3.2588,-3.2585,-3.3137,-3.3693,-3.3817,-3.3726,-3.5023,-3.4886,-3.4762,-3.4989,-3.4955,-3.4847,-3.4775,-3.4775,-3.4775,-3.4775,-3.4775,-3.4787,-3.4799,-3.4847,-3.4775,-3.4775,-3.4775,-3.4775,-3.4775,-3.4775,-3.4775,-3.4775,-3.4775,-3.4823,-3.4775,-3.4872,-3.492,-3.4969,-3.5078,-3.529,-3.5521,-3.5699,-3.5801,-3.5794,-3.6077,-3.6524,-3.6467,-3.6419,-3.682,-3.7276,-3.8244,-3.9156,-3.9929,-4.0603,-4.0993,-4.134,-4.1524,-4.1864,-4.1964,-4.2078,-4.2242,-4.2284,-4.2284,-4.2275,-4.225,-4.1739,-4.1233,-4.0888,-4.0446,-3.9788,-3.928,-3.9409,-3.9553,-3.9696,-3.9874,-4.0086,-4.0316,-4.0593,-4.0783,-4.1021,-4.1088,-3.1377,-3.1377,-3.1377,-3.1377,-3.1377,-3.1377,-3.1222,-3.1002,-3.0956,-3.0745,-3.036,-3.0057,-2.9764,-2.9553,-2.9314,-2.9067,-2.9021,-2.8984,-2.8984,-2.8984,-2.8984,-2.8984,-2.8984,-2.9044,-2.9163,-2.9331,-2.9499,-2.9627,-2.9795,-2.9863,-3.0039,-3.0274,-3.0518,-3.0626,-3.0975,-3.1124,-3.1707,-3.2406,-3.2416,-3.2404,-3.3062,-3.3493,-3.4164,-3.3716,-3.4652,-3.4951,-3.473,-3.4906,-3.4856,-3.481,-3.4775,-3.4775,-3.4775,-3.4775,-3.4775,-3.4823,-3.4907,-3.498,-3.4859,-3.4775,-3.4775,-3.4775,-3.4775,-3.4775,-3.4775,-3.4775,-3.4775,-3.4775,-3.4775,-3.4787,-3.4811,-3.4823,-3.4872,-3.5077,-3.5233,-3.5398,-3.5615,-3.5672,-3.6111,-3.654,-3.6346,-3.6219,-3.7105,-3.7652,-3.8404,-3.9104,-3.9436,-4.0013,-4.0334,-4.0681,-4.0945,-4.1355,-4.178,-4.1964,-4.2092,-4.216,-4.2201,-4.2187,-4.2106,-4.1818,-4.1356,-4.1038,-4.0536,-3.9846,-3.9387,-3.9208,-3.9265,-3.9424,-3.9604,-3.9783,-4.0016,-4.0281,-4.042,-4.0593,-4.0662,-3.1377,-3.1377,-3.1377,-3.1377,-3.1377,-3.1377,-3.135,-3.1295,-3.1304,-3.1112,-3.0791,-3.0681,-3.0277,-2.9782,-2.9696,-2.9397,-2.9122,-2.9058,-2.9012,-2.8993,-2.8984,-2.8984,-2.8984,-2.8984,-2.9044,-2.9103,-2.9272,-2.945,-2.9499,-2.9627,-2.9804,-2.9922,-3.0098,-3.0343,-3.082,-3.116,-3.1728,-3.234,-3.2068,-3.2275,-3.2619,-3.2879,-3.3528,-3.3924,-3.4294,-3.4646,-3.4967,-3.5007,-3.499,-3.4954,-3.4931,-3.4883,-3.4787,-3.4775,-3.4775,-3.4787,-3.5195,-3.5195,-3.4859,-3.4799,-3.4823,-3.4787,-3.4775,-3.4775,-3.4787,-3.4811,-3.4883,-3.4979,-3.5028,-3.4943,-3.4871,-3.4919,-3.5004,-3.5113,-3.5308,-3.5393,-3.5671,-3.5874,-3.6341,-3.6414,-3.6164,-3.6204,-3.726,-3.8198,-3.8832,-3.9254,-3.9245,-3.9423,-3.9662,-3.9715,-3.9934,-4.0888,-4.141,-4.178,-4.1908,-4.2063,-4.2092,-4.2092,-4.2015,-4.1732,-4.139,-4.0977,-4.0461,-3.982,-3.963,-3.952,-3.9321,-3.9134,-3.9375,-3.9601,-3.9762,-3.9996,-4.0101,-4.0137,-4.0191,-3.1377,-3.1377,-3.1377,-3.1377,-3.1377,-3.1377,-3.1377,-3.1377,-3.1368,-3.1295,-3.1139,-3.0928,-3.0699,-3.0369,-3.0057,-2.9764,-2.9415,-2.9369,-2.9314,-2.8993,-2.8984,-2.8984,-2.8984,-2.8984,-2.8984,-2.9044,-2.9153,-2.9213,-2.9163,-2.9331,-2.945,-2.9568,-2.9804,-3.0167,-3.0518,-3.0869,-3.1283,-3.165,-3.1701,-3.193,-3.2238,-3.2756,-3.3226,-3.3528,-3.3992,-3.4574,-3.5155,-3.5123,-3.5292,-3.5325,-3.5315,-3.5183,-3.4955,-3.4859,-3.4859,-3.4847,-3.51,-3.4979,-3.4919,-3.5003,-3.516,-3.4968,-3.4775,-3.4775,-3.4775,-3.5196,-3.5292,-3.54,-3.5533,-3.5629,-3.5893,-3.5881,-3.593,-3.5954,-3.6028,-3.6028,-3.6206,-3.6356,-3.6542,-3.6308,-3.6113,-3.6273,-3.7019,-3.7664,-3.8336,-3.8697,-3.8643,-3.8637,-3.8838,-3.8559,-3.8583,-4.0003,-4.0902,-4.1425,-4.1765,-4.1937,-4.2009,-4.1953,-4.1935,-4.1785,-4.1389,-4.1037,-4.0514,-3.9982,-3.9903,-3.9839,-3.9666,-3.9469,-3.9358,-3.9452,-3.9601,-3.9655,-3.9747,-3.9711,-3.9676,-3.1377,-3.1377,-3.1377,-3.1377,-3.1377,-3.1377,-3.1377,-3.1377,-3.1377,-3.1377,-3.1313,-3.1093,-3.0892,-3.0736,-3.0506,-3.0039,-2.9626,-2.9562,-2.936,-2.903,-2.8984,-2.8984,-2.8984,-2.8984,-2.8984,-2.8984,-2.8984,-2.8984,-2.9044,-2.8984,-2.9103,-2.934,-2.9627,-2.9804,-3.0108,-3.0392,-3.0645,-3.0914,-3.1154,-3.1501,-3.1932,-3.2416,-3.2904,-3.3268,-3.3779,-3.444,-3.495,-3.5363,-3.5679,-3.5738,-3.5771,-3.5675,-3.5375,-3.5147,-3.5136,-3.51,-3.51,-3.5124,-3.5195,-3.5352,-3.5292,-3.4883,-3.4787,-3.4775,-3.4799,-3.5076,-3.5364,-3.5605,-3.6014,-3.6122,-3.6218,-3.6254,-3.6302,-3.6302,-3.6278,-3.6242,-3.6473,-3.6592,-3.6632,-3.639,-3.6137,-3.6402,-3.6616,-3.7066,-3.7638,-3.7817,-3.7966,-3.8011,-3.814,-3.8048,-3.8048,-3.9269,-4.0487,-4.108,-4.1532,-4.1841,-4.1885,-4.1829,-4.1811,-4.1819,-4.1642,-4.1331,-4.0716,-4.0212,-4.011,-4.0042,-3.9991,-3.9894,-3.9674,-3.9484,-3.9385,-3.9405,-3.9403,-3.9388,-3.9388,-3.1377,-3.1377,-3.1377,-3.1377,-3.1377,-3.1377,-3.1377,-3.1377,-3.1377,-3.1377,-3.1368,-3.135,-3.1167,-3.0873,-3.0809,-3.0415,-2.9828,-2.97,-2.9406,-2.9122,-2.903,-2.9003,-2.8984,-2.8984,-2.8984,-2.8984,-2.8984,-2.8984,-2.8984,-2.8984,-2.9044,-2.9103,-2.934,-2.9509,-2.9627,-2.9835,-3.0063,-3.0306,-3.0575,-3.0869,-3.1154,-3.1712,-3.2396,-3.2931,-3.3584,-3.4309,-3.4914,-3.548,-3.5744,-3.5991,-3.6222,-3.6273,-3.6168,-3.5843,-3.5687,-3.5641,-3.5629,-3.5617,-3.5545,-3.5617,-3.5449,-3.51,-3.4907,-3.4835,-3.4835,-3.4979,-3.5388,-3.5713,-3.6062,-3.599,-3.5978,-3.6062,-3.6146,-3.6134,-3.6122,-3.6278,-3.6567,-3.6717,-3.6783,-3.6555,-3.6195,-3.626,-3.642,-3.6814,-3.6994,-3.7285,-3.7558,-3.7803,-3.7984,-3.8304,-3.8405,-3.8963,-4.0027,-4.0788,-4.1212,-4.148,-4.1662,-4.1564,-4.1787,-4.1811,-4.1705,-4.1599,-4.1145,-4.0735,-4.0419,-4.0323,-4.0368,-4.0246,-4.0003,-3.9778,-3.9542,-3.9297,-3.9333,-3.9403,-3.9388,-3.1377,-3.1377,-3.1377,-3.1377,-3.1377,-3.1377,-3.1377,-3.1377,-3.1377,-3.1377,-3.1377,-3.1377,-3.1286,-3.1212,-3.1203,-3.0855,-3.0488,-3.0121,-2.9782,-2.947,-2.914,-2.903,-2.8984,-2.8984,-2.8984,-2.8984,-2.8984,-2.8984,-2.8984,-2.8984,-2.8984,-2.9044,-2.9163,-2.9153,-2.9272,-2.945,-2.9583,-2.9781,-3.0045,-3.0132,-3.0283,-3.0717,-3.1651,-3.2452,-3.3249,-3.3988,-3.4778,-3.555,-3.5658,-3.5225,-3.5991,-3.6235,-3.5786,-3.6013,-3.6182,-3.6182,-3.6134,-3.605,-3.5773,-3.5966,-3.5954,-3.5521,-3.5339,-3.5075,-3.5015,-3.5159,-3.5555,-3.6002,-3.6386,-3.6495,-3.6651,-3.6735,-3.6747,-3.6735,-3.6747,-3.6904,-3.7168,-3.728,-3.726,-3.6865,-3.6507,-3.6282,-3.6418,-3.6214,-3.6401,-3.6769,-3.714,-3.741,-3.7738,-3.8058,-3.8385,-3.8863,-3.9445,-4.0177,-4.0645,-4.093,-4.1185,-4.1354,-4.1536,-4.1718,-4.1742,-4.1623,-4.15,-4.1279,-4.0974,-4.0858,-4.0869,-4.0679,-4.0403,-4.0129,-3.9868,-3.952,-3.9246,-3.9348,-3.9382,-3.1377,-3.1377,-3.1377,-3.1377,-3.1377,-3.1377,-3.1377,-3.1377,-3.1377,-3.1377,-3.1377,-3.1377,-3.1377,-3.1359,-3.1341,-3.1139,-3.0745,-3.0506,-3.013,-2.9553,-2.9314,-2.9149,-2.9058,-2.8993,-2.8984,-2.8984,-2.8984,-2.8984,-2.8984,-2.8984,-2.8984,-2.8984,-2.8984,-2.8984,-2.9044,-2.9222,-2.9272,-2.9415,-2.9547,-2.9571,-2.9766,-2.9958,-3.0777,-3.1738,-3.2625,-3.3571,-3.4656,-3.5459,-3.5688,-3.5718,-3.6749,-3.6848,-3.6533,-3.6737,-3.6531,-3.6519,-3.6615,-3.6398,-3.6182,-3.6459,-3.6326,-3.6098,-3.593,-3.5785,-3.5593,-3.5617,-3.6086,-3.6543,-3.6928,-3.724,-3.7457,-3.7637,-3.7613,-3.7589,-3.7649,-3.7697,-3.7805,-3.7914,-3.7653,-3.722,-3.6889,-3.6555,-3.6318,-3.5978,-3.5915,-3.642,-3.6685,-3.676,-3.72,-3.7642,-3.7922,-3.8341,-3.8912,-3.9516,-3.9901,-4.0257,-4.0573,-4.0787,-4.1015,-4.1227,-4.1536,-4.1688,-4.1555,-4.1548,-4.1555,-4.1468,-4.1381,-4.1105,-4.0877,-4.0567,-4.0295,-4.0006,-3.9645,-3.938,-3.9349,-3.1322,-3.1322,-3.1368,-3.1377,-3.1377,-3.1377,-3.1377,-3.1377,-3.1377,-3.1377,-3.1377,-3.1377,-3.1377,-3.1377,-3.1368,-3.1203,-3.0947,-3.0754,-3.0415,-2.9663,-2.9525,-2.9388,-2.9269,-2.9039,-2.9058,-2.903,-2.8993,-2.8984,-2.8984,-2.8984,-2.8984,-2.8984,-2.8984,-2.8984,-2.9044,-2.9044,-2.9103,-2.9194,-2.9462,-2.9691,-2.9644,-2.9793,-3.0007,-3.0874,-3.1799,-3.2767,-3.4339,-3.5606,-3.6644,-3.7257,-3.7767,-3.7666,-3.7669,-3.744,-3.7036,-3.6843,-3.6988,-3.6819,-3.6663,-3.6855,-3.6807,-3.6615,-3.6459,-3.6507,-3.6423,-3.6002,-3.6326,-3.6807,-3.7168,-3.7372,-3.7577,-3.7673,-3.7685,-3.7685,-3.7721,-3.7685,-3.7649,-3.7685,-3.7517,-3.7144,-3.6883,-3.6611,-3.6604,-3.6243,-3.5673,-3.61,-3.6182,-3.6193,-3.6483,-3.6988,-3.7423,-3.7769,-3.8286,-3.8764,-3.8903,-3.9309,-3.9865,-4.017,-4.0414,-4.0744,-4.1043,-4.1311,-4.1564,-4.1601,-4.1652,-4.1891,-4.186,-4.1584,-4.1337,-4.1175,-4.0891,-4.0587,-4.0173,-3.9784,-3.958,-3.0937,-3.0956,-3.1249,-3.1377,-3.1377,-3.1377,-3.1377,-3.1377,-3.1377,-3.1377,-3.1377,-3.1377,-3.1377,-3.1377,-3.1377,-3.1267,-3.1194,-3.0947,-3.0699,-3.0268,-2.9938,-2.9791,-2.97,-2.9342,-2.9241,-2.925,-2.9195,-2.8984,-2.8984,-2.8984,-2.8984,-2.8984,-2.8984,-2.8984,-2.8984,-2.8984,-2.8984,-2.9044,-2.9331,-2.945,-2.9294,-2.9403,-2.9651,-3.0422,-3.1301,-3.1871,-3.3197,-3.4295,-3.4787,-3.5233,-3.6687,-3.7394,-3.7909,-3.7841,-3.7733,-3.7601,-3.7348,-3.718,-3.7132,-3.718,-3.7132,-3.7108,-3.706,-3.73,-3.7168,-3.6567,-3.6483,-3.6964,-3.73,-3.7493,-3.7625,-3.7697,-3.7745,-3.7745,-3.7745,-3.7613,-3.7493,-3.7421,-3.736,-3.7156,-3.6879,-3.6762,-3.6729,-3.6382,-3.5817,-3.5551,-3.5502,-3.5512,-3.5741,-3.6203,-3.6692,-3.7111,-3.7678,-3.8043,-3.8128,-3.8453,-3.9065,-3.9435,-3.9669,-4.0081,-4.053,-4.0873,-4.117,-4.1536,-4.1717,-4.1829,-4.1912,-4.1978,-4.1802,-4.1628,-4.1451,-4.108,-4.0873,-4.052,-4.0188,-3.0892,-3.1066,-3.1286,-3.1377,-3.1377,-3.1377,-3.1377,-3.1377,-3.1377,-3.1377,-3.1377,-3.1377,-3.1377,-3.1377,-3.1377,-3.1377,-3.1341,-3.1167,-3.0919,-3.0626,-3.0387,-3.0204,-2.9965,-2.9718,-2.9571,-2.9525,-2.9186,-2.8984,-2.8984,-2.8984,-2.8984,-2.8984,-2.8984,-2.8984,-2.8984,-2.8984,-2.8984,-2.8984,-2.9213,-2.9163,-2.9044,-2.9331,-2.9627,-3.0304,-3.0693,-3.1291,-3.2308,-3.3529,-3.4428,-3.5301,-3.6799,-3.7524,-3.7986,-3.7938,-3.795,-3.7878,-3.7721,-3.7541,-3.7529,-3.7505,-3.7505,-3.7493,-3.7529,-3.7721,-3.7745,-3.724,-3.7216,-3.7625,-3.7637,-3.7805,-3.7817,-3.7878,-3.7878,-3.7878,-3.7878,-3.7817,-3.7625,-3.7457,-3.7541,-3.7625,-3.7228,-3.6747,-3.6702,-3.6558,-3.6054,-3.5897,-3.5695,-3.5453,-3.5563,-3.5612,-3.6042,-3.643,-3.7007,-3.7387,-3.7546,-3.7887,-3.8332,-3.8663,-3.8961,-3.9564,-4.0108,-4.0457,-4.0787,-4.11,-4.1311,-4.1438,-4.1564,-4.1745,-4.2009,-4.1877,-4.1758,-4.1555,-4.1378,-4.12,-4.0988,-3.0956,-3.135,-3.1377,-3.1377,-3.1377,-3.1377,-3.1377,-3.1377,-3.1377,-3.1377,-3.1377,-3.1377,-3.1377,-3.1377,-3.1377,-3.1377,-3.135,-3.1295,-3.1112,-3.0956,-3.0772,-3.0644,-3.0451,-3.0204,-2.9901,-2.9534,-2.9177,-2.9039,-2.8984,-2.8984,-2.8984,-2.8984,-2.8984,-2.8984,-2.8984,-2.8984,-2.8984,-2.9044,-2.9103,-2.9103,-2.9281,-2.9568,-2.9745,-3.0014,-3.0325,-3.1072,-3.2066,-3.3092,-3.4384,-3.5699,-3.6858,-3.759,-3.7921,-3.7974,-3.7974,-3.7938,-3.7926,-3.7866,-3.789,-3.7866,-3.789,-3.7926,-3.7974,-3.7974,-3.7974,-3.7962,-3.7938,-3.7938,-3.795,-3.795,-3.7962,-3.7974,-3.7974,-3.7938,-3.7938,-3.7878,-3.7661,-3.7457,-3.7625,-3.7817,-3.7397,-3.6843,-3.6831,-3.6699,-3.6471,-3.6338,-3.6158,-3.5905,-3.5703,-3.5671,-3.5844,-3.6048,-3.6345,-3.665,-3.6841,-3.7309,-3.7717,-3.8061,-3.8444,-3.9087,-3.968,-4.0078,-4.0385,-4.0573,-4.0787,-4.1001,-4.1142,-4.1311,-4.1578,-4.1885,-4.1769,-4.1625,-4.1831,-4.1698,-4.1695,-3.0736,-3.1377,-3.1377,-3.1377,-3.1377,-3.1377,-3.1377,-3.1377,-3.1377,-3.1377,-3.1377,-3.1377,-3.1377,-3.1377,-3.1377,-3.1377,-3.1377,-3.1377,-3.1377,-3.1258,-3.0983,-3.0983,-3.0846,-3.0406,-2.9984,-2.9599,-2.9241,-2.9021,-2.8984,-2.8984,-2.8984,-2.8984,-2.8984,-2.8984,-2.8984,-2.8984,-2.8984,-2.9044,-2.9213,-2.9272,-2.9331,-2.9509,-2.9558,-2.9688,-2.9914,-3.0607,-3.1429,-3.2125,-3.3374,-3.4759,-3.6352,-3.7281,-3.7773,-3.7986,-3.801,-3.807,-3.8058,-3.8046,-3.8058,-3.801,-3.8051,-3.7974,-3.7974,-3.7974,-3.7974,-3.7974,-3.7962,-3.7962,-3.7962,-3.7962,-3.7974,-3.7974,-3.7962,-3.7853,-3.7805,-3.7625,-3.7433,-3.7336,-3.7372,-3.7409,-3.7264,-3.7204,-3.7457,-3.718,-3.6723,-3.6615,-3.6555,-3.6314,-3.6206,-3.5968,-3.5754,-3.5855,-3.5966,-3.5757,-3.5872,-3.6601,-3.7038,-3.7448,-3.7925,-3.8622,-3.9256,-3.9779,-4.0019,-3.9834,-4.0213,-4.0602,-4.0744,-4.0744,-4.11,-4.1354,-4.1494,-4.1535,-4.187,-4.2063,-4.1959]},{"header":{"parameterUnit":"m.s-1","parameterCategory":1,"la1":31.0,"la2":29.5877,"lo1":-88.7671,"lo2":-86.6584,"dy":0.0162,"dx":0.0185,"nx":115,"ny":88,"refTime":"2024-03-04T06:00:00:Z","depth":0,"parameterNumber":3,"parameterNumberName":"V-component_of_WINDS"},"data":[0.0,0.0,0.0,0.0,0.0,0.0,0.0,0.0,0.0,0.0,0.0,0.0,0.0,0.0,0.0,0.0,0.0,0.0,0.0,0.0,0.0,0.0,0.0,0.0,0.0,0.0,0.0,0.0,0.0,0.0,0.0,0.0,0.0,0.0,0.0,0.0,0.0,0.0,0.0,0.0,0.0,0.0,0.0,0.0,0.0,0.0,0.0,0.0,0.0,0.0,0.0,0.0,0.0,0.0,0.0,0.0,0.0,0.0,0.0,0.0,0.0,0.0,0.0,0.0,0.0,0.0,0.0,0.0,0.0,0.0,0.0,0.0,0.0,0.0,0.0,0.0,0.0,0.0,0.0,0.0,0.0,0.0,0.0,0.0,0.0,0.0,0.0,0.0,0.0,0.0,0.0,0.0,0.0,0.0,0.0,0.0,0.0,0.0,0.0,0.0,0.0,0.0,0.0,0.0,0.0,0.0,0.0,0.0,0.0,0.0,0.0,0.0,0.0,0.0,0.0,0.0,0.0,0.0,0.0,0.0,0.0,0.0,0.0,0.0,0.0,0.0,0.0,0.0,0.0,0.0,0.0,0.0,0.0,0.0,0.0,0.0,0.0,0.0,0.0,0.0,0.0,0.0,0.0,0.0,0.0,0.0,0.0,0.0,0.0,0.0,0.0,0.0,0.0,0.0,0.0,0.0,0.0,0.0,0.0,0.0,0.0,0.0,0.0,0.0,0.0,0.0,0.0,0.0,0.0,0.0,0.0,0.0,0.0,0.0,0.0,0.0,0.0,0.0,0.0,0.0,0.0,0.0,0.0,0.0,0.0,0.0,0.0,0.0,0.0,0.0,0.0,0.0,0.0,0.0,0.0,0.0,0.0,0.0,0.0,0.0,0.0,0.0,0.0,0.0,0.0,0.0,0.0,0.0,0.0,0.0,0.0,0.0,0.0,0.0,0.0,0.0,0.0,0.0,0.0,0.0,0.0,0.0,0.0,0.0,0.0,0.0,0.0,0.0,0.0,0.0,0.0,0.0,0.0,0.0,0.0,0.0,0.0,0.0,0.0,0.0,0.0,0.0,0.0,0.0,0.0,0.0,0.0,0.0,0.0,0.0,0.0,0.0,0.0,0.0,0.0,0.0,0.0,0.0,0.0,0.0,0.0,0.0,0.0,0.0,0.0,0.0,0.0,0.0,0.0,0.0,0.0,0.0,0.0,0.0,0.0,0.0,0.0,0.0,0.0,0.0,0.0,0.0,0.0,0.0,0.0,0.0,0.0,0.0,0.0,0.0,0.0,0.0,0.0,0.0,0.0,0.0,0.0,0.0,0.0,0.0,0.0,0.0,0.0,0.0,0.0,0.0,0.0,0.0,0.0,0.0,0.0,0.0,0.0,0.0,0.0,0.0,0.0,0.0,0.0,0.0,0.0,0.0,0.0,0.0,0.0,0.0,0.0,0.0,0.0,0.0,0.0,0.0,0.0,0.0,0.0,0.0,0.0,0.0,0.0,0.0,0.0,0.0,0.0,0.0,0.0,0.0,0.0,0.0,0.0,0.0,0.0,0.0,0.0,0.0,0.0,0.0,0.0,0.0,0.0,0.0,0.0,0.0,0.0,0.0,0.0,0.0,0.0,0.0,0.0,0.0,0.0,0.0,0.0,0.0,0.0,0.0,0.0,0.0,0.0,0.0,0.0,0.0,0.0,0.0,0.0,0.0,0.0,0.0,0.0,0.0,0.0,0.0,0.0,0.0,0.0,0.0,0.0,0.0,0.0,0.0,0.0,0.0,0.0,0.0,0.0,0.0,0.0,0.0,0.0,0.0,0.0,0.0,0.0,0.0,0.0,0.0,0.0,0.0,0.0,0.0,0.0,0.0,0.0,0.0,0.0,0.0,0.0,0.0,0.0,0.0,0.0,0.0,0.0,0.0,0.0,0.0,0.0,0.0,0.0,0.0,0.0,0.0,0.0,0.0,0.0,0.0,0.0,0.0,0.0,0.0,0.0,0.0,0.0,0.0,0.0,0.0,0.0,0.0,0.0,0.0,0.0,0.0,0.0,0.0,0.0,0.0,0.0,0.0,0.0,0.0,0.0,0.0,0.0,0.0,0.0,0.0,0.0,0.0,0.0,0.0,0.0,0.0,0.0,0.0,0.0,0.0,0.0,0.0,0.0,0.0,0.0,0.0,0.0,0.0,0.0,0.0,0.0,0.0,0.0,0.0,0.0,0.0,0.0,0.0,0.0,0.0,0.0,0.0,0.0,0.0,0.0,0.0,0.0,0.0,0.0,0.0,0.0,0.0,0.0,0.0,0.0,0.0,0.0,0.0,0.0,0.0,0.0,0.0,0.0,0.0,0.0,0.0,0.0,0.0,0.0,0.0,0.0,0.0,0.0,0.0,0.0,0.0,0.0,0.0,0.0,0.0,0.0,0.0,0.0,0.0,0.0,0.0,0.0,0.0,0.0,0.0,0.0,0.0,0.0,0.0,0.0,0.0,0.0,0.0,0.0,0.0,0.0,0.0,0.0,0.0,0.0,0.0,0.0,0.0,0.0,0.0,0.0,0.0,0.0,0.0,0.0,0.0,0.0,0.0,0.0,0.0,0.0,0.0,0.0,0.0,0.0,0.0,0.0,0.0,0.0,0.0,0.0,0.0,0.0,0.0,0.0,0.0,0.0,0.0,0.0,0.0,0.0,0.0,0.0,0.0,0.0,0.0,0.0,0.0,0.0,0.0,0.0,0.0,0.0,0.0,0.0,0.0,0.0,0.0,0.0,0.0,0.0,0.0,0.0,0.0,0.0,0.0,0.0,0.0,0.0,0.0,0.0,0.0,0.0,0.0,0.0,0.0,0.0,0.0,0.0,0.0,0.0,0.0,0.0,0.0,0.0,0.0,0.0,0.0,0.0,0.0,0.0,0.0,0.0,0.0,0.0,0.0,0.0,0.0,0.0,0.0,0.0,0.0,0.0,0.0,0.0,0.0,0.0,0.0,0.0,0.0,0.0,0.0,0.0,0.0,0.0,0.0,0.0,0.0,0.0,0.0,0.0,0.0,0.0,0.0,0.0,0.0,0.0,0.0,0.0,0.0,0.0,0.0,0.0,0.0,0.0,0.0,0.0,0.0,0.0,0.0,0.0,0.0,0.0,0.0,0.0,0.0,0.0,0.0,0.0,0.0,0.0,0.0,0.0,0.0,0.0,0.0,0.0,0.0,0.0,0.0,0.0,0.0,0.0,0.0,0.0,0.0,0.0,0.0,0.0,0.0,0.0,0.0,0.0,0.0,0.0,0.0,0.0,0.0,0.0,0.0,0.0,0.0,0.0,0.0,0.0,0.0,0.0,0.0,0.0,0.0,0.0,0.0,0.0,0.0,0.0,0.0,0.0,0.0,0.0,0.0,0.0,0.0,0.0,0.0,0.0,0.0,0.0,0.0,0.0,0.0,0.0,0.0,0.0,0.0,0.0,0.0,0.0,0.0,0.0,0.0,0.0,0.0,0.0,0.0,0.0,0.0,0.0,0.0,0.0,0.0,0.0,0.0,0.0,0.0,0.0,0.0,0.0,0.0,0.0,0.0,0.0,0.0,0.0,0.0,0.0,0.0,0.0,0.0,0.0,0.0,0.0,0.0,0.0,0.0,0.0,0.0,0.0,0.0,0.0,0.0,0.0,0.0,0.0,0.0,0.0,0.0,0.0,0.0,0.0,0.0,0.0,0.0,0.0,0.0,0.0,0.0,0.0,0.0,0.0,0.0,0.0,0.0,0.0,0.0,0.0,0.0,0.0,0.0,0.0,0.0,0.0,0.0,0.0,0.0,0.0,0.0,0.0,0.0,0.0,0.0,0.0,0.0,0.0,0.0,0.0,0.0,0.0,0.0,0.0,0.0,0.0,0.0,0.0,0.0,0.0,0.0,0.0,0.0,0.0,0.0,0.0,0.0,0.0,0.0,0.0,0.0,0.0,0.0,0.0,0.0,0.0,0.0,0.0,0.0,0.0,0.0,0.0,0.0,0.0,0.0,0.0,0.0,0.0,0.0,0.0,0.0,0.0,0.0,0.0,0.0,0.0,0.0,0.0,0.0,0.0,0.0,0.0,0.0,0.0,0.0,0.0,0.0,0.0,0.0,0.0,0.0,0.0,0.0,0.0,0.0,0.0,0.0,0.0,0.0,0.0,0.0,0.0,0.0,0.0,0.0,0.0,0.0,0.0,0.0,0.0,0.0,0.0,0.0,0.0,0.0,0.0,0.0,0.0,0.0,0.0,0.0,0.0,0.0,0.0,0.0,1.2218,0.0,0.0,0.0,0.0,0.0,0.0,0.0,0.0,0.0,0.0,0.0,0.0,0.0,0.0,0.0,0.0,0.0,0.0,0.0,0.0,0.0,0.0,0.0,0.0,0.0,0.0,0.0,0.0,0.0,0.0,0.0,0.0,0.0,0.0,0.0,0.0,0.0,0.0,0.0,0.0,0.0,0.0,0.0,0.0,0.0,0.0,0.0,0.0,0.0,0.0,0.0,0.0,0.0,0.0,0.0,0.0,0.0,0.0,0.0,0.0,0.0,0.0,0.0,0.0,0.0,0.0,0.0,0.0,0.0,0.0,0.0,0.0,0.0,0.0,0.0,0.0,0.0,0.0,0.0,0.0,0.0,0.0,0.0,0.0,0.0,0.0,0.0,0.0,0.0,0.0,0.0,0.0,0.0,0.0,0.0,0.0,0.0,0.0,0.0,0.0,0.0,0.0,0.0,0.0,0.0,0.0,0.0,0.0,0.0,0.0,1.4233,1.3871,1.3466,1.3085,1.276,0.0,0.0,0.0,0.0,0.0,0.0,0.0,0.0,0.0,0.0,0.0,0.0,0.0,0.0,0.0,0.0,0.0,0.0,0.0,0.0,0.0,0.0,0.0,0.0,0.0,0.0,0.0,0.0,0.0,0.0,0.0,0.0,0.0,0.0,0.0,0.0,0.0,0.0,0.0,0.0,0.0,0.0,0.0,0.0,0.0,0.0,0.0,0.0,0.0,0.0,0.0,0.0,0.0,0.0,0.0,0.0,0.0,0.0,0.0,0.0,0.0,0.0,0.0,0.0,0.0,0.0,0.0,0.0,0.0,0.0,0.0,0.0,0.0,0.0,0.0,0.0,0.0,0.0,0.0,0.0,0.0,0.0,0.0,0.0,0.0,0.0,0.0,0.0,0.0,0.0,0.0,0.0,0.0,0.0,0.0,0.0,0.0,0.0,0.0,0.0,0.0,0.0,0.0,0.0,0.0,0.0,0.0,0.0,0.0,0.0,0.0,0.0,1.3793,1.3531,1.3218,0.0,0.0,0.0,0.0,0.0,0.0,0.0,0.0,0.0,0.0,0.0,0.0,0.0,0.0,0.0,0.0,0.0,0.0,0.0,0.0,0.0,0.0,0.0,0.0,0.0,0.0,0.0,0.0,0.0,0.0,0.0,0.0,0.0,0.0,0.0,0.0,0.0,0.0,0.0,0.0,0.0,0.0,0.0,0.0,0.0,0.0,0.0,0.0,0.0,0.0,0.0,0.0,0.0,0.0,0.0,0.0,0.0,0.0,0.0,0.0,0.0,0.0,0.0,0.0,0.0,0.0,0.0,0.0,0.0,0.0,0.0,0.0,0.0,0.0,0.0,0.0,0.0,0.0,0.0,0.0,0.0,0.0,0.0,0.0,0.0,0.0,0.0,0.0,0.0,0.0,0.0,0.0,0.0,0.0,0.0,0.0,0.0,0.0,0.0,0.0,0.0,0.0,0.0,0.0,0.0,0.0,0.0,0.0,0.0,0.0,1.5073,1.5487,1.445,0.0,1.3573,0.0,0.0,0.0,0.0,0.0,0.0,0.0,0.0,0.0,0.0,0.0,0.0,0.0,0.0,0.0,0.0,0.0,0.0,0.0,0.0,0.0,0.0,0.0,0.0,0.0,0.0,0.0,0.0,0.0,0.0,0.0,0.0,0.0,0.0,0.0,0.0,0.0,0.0,0.0,0.0,0.0,0.0,0.0,0.0,0.0,0.0,0.0,0.0,0.0,0.0,0.0,0.0,0.0,0.0,0.0,0.0,0.0,0.0,0.0,0.0,0.0,0.0,0.0,0.0,0.0,0.0,0.0,0.0,0.0,0.0,0.0,0.0,0.0,0.0,0.0,0.0,0.0,0.0,0.0,0.0,0.0,0.0,0.0,0.0,0.0,0.0,0.0,0.0,0.0,0.0,0.0,0.0,0.0,0.0,0.0,0.0,0.0,0.0,0.0,0.0,0.0,0.0,0.0,0.0,0.0,0.0,0.0,0.0,0.0,0.0,1.5219,1.5073,1.4577,1.4257,0.0,0.0,0.0,0.0,0.0,0.0,0.0,0.0,0.0,0.0,0.0,0.0,0.0,0.0,0.0,0.0,0.0,0.0,0.0,0.0,0.0,0.0,0.0,0.0,0.0,0.0,0.0,0.0,0.0,0.0,0.0,0.0,0.0,0.0,0.0,0.0,0.0,0.0,0.0,0.0,0.0,0.0,0.0,0.0,0.0,0.0,0.0,0.0,0.0,0.0,0.0,0.0,0.0,0.0,0.0,0.0,0.0,0.0,0.0,0.0,0.0,0.0,0.0,0.0,0.0,0.0,0.0,0.0,0.0,0.0,0.0,0.0,0.0,0.0,0.0,0.0,0.0,0.0,0.0,0.0,0.0,0.0,0.0,0.0,0.0,0.0,0.0,0.0,0.0,0.0,0.0,0.0,0.0,0.0,0.0,0.0,0.0,0.0,0.0,0.0,0.0,0.0,0.0,0.0,0.0,0.0,0.0,0.0,0.0,0.0,1.5417,1.5231,1.4737,1.4677,1.4605,1.4461,0.0,0.0,0.0,0.0,0.0,0.0,0.0,0.0,0.0,0.0,0.0,0.0,0.0,0.0,0.0,0.0,0.0,0.0,0.0,0.0,0.0,0.0,0.0,0.0,0.0,0.0,0.0,0.0,0.0,0.0,0.0,0.0,0.0,0.0,0.0,0.0,0.0,0.0,0.0,0.0,0.0,0.0,0.0,0.0,0.0,0.0,0.0,0.0,0.0,0.0,0.0,0.0,0.0,0.0,0.0,0.0,0.0,0.0,0.0,0.0,0.0,0.0,0.0,0.0,0.0,0.0,0.0,0.0,0.0,0.0,0.0,0.0,0.0,0.0,0.0,0.0,0.0,0.0,0.0,0.0,0.0,0.0,0.0,0.0,0.0,0.0,0.0,0.0,0.0,0.0,0.0,0.0,0.0,0.0,0.0,0.0,0.0,0.0,0.0,0.0,0.0,0.0,0.0,0.0,0.0,0.0,0.0,0.0,1.5928,1.5671,1.5309,1.4916,1.4908,1.4792,0.0,0.0,0.0,0.0,0.0,0.0,0.0,0.0,0.0,0.0,0.0,0.0,0.0,0.0,0.0,0.0,0.0,0.0,0.0,0.0,0.0,0.0,0.0,0.0,0.0,0.0,0.0,0.0,0.0,0.0,0.0,0.0,0.0,0.0,0.0,0.0,0.0,0.0,0.0,0.0,0.0,0.0,0.0,0.0,0.0,0.0,0.0,0.0,0.0,0.0,0.0,0.0,0.0,0.0,0.0,0.0,0.0,0.0,0.0,0.0,0.0,0.0,0.0,0.0,0.0,0.0,0.0,0.0,0.0,0.0,0.0,0.0,0.0,0.0,0.0,0.0,0.0,0.0,0.0,0.0,0.0,0.0,0.0,0.0,0.0,0.0,0.0,0.0,0.0,0.0,0.0,0.0,0.0,0.0,0.0,0.0,0.0,0.0,0.0,0.0,0.0,0.0,0.0,0.0,0.0,0.0,0.0,0.0,0.0,1.5654,1.5449,1.5392,1.5587,1.5265,1.4991,0.0,0.0,0.0,0.0,0.0,0.0,0.0,0.0,0.0,0.0,0.0,0.0,0.0,0.0,0.0,0.0,0.0,0.0,0.0,0.0,0.0,0.0,0.0,0.0,0.0,0.0,0.0,0.0,0.0,0.0,0.0,0.0,0.0,0.0,0.0,0.0,0.0,0.0,0.0,0.0,0.0,0.0,0.0,0.0,0.0,0.0,0.0,0.0,0.0,0.0,0.0,0.0,0.0,0.0,0.0,0.0,0.0,0.0,0.0,0.0,0.0,0.0,0.0,0.0,0.0,0.0,0.0,0.0,0.0,0.0,0.0,0.0,0.0,0.0,0.0,0.0,0.0,0.0,0.0,0.0,0.0,0.0,0.0,0.0,0.0,0.0,0.0,0.0,0.0,0.0,0.0,0.0,0.0,0.0,0.0,0.0,0.0,0.0,0.0,0.0,0.0,0.0,0.0,0.0,0.0,0.0,0.0,0.0,0.0,1.5904,0.0,1.5997,1.6103,1.5757,1.5408,0.0,0.0,0.0,0.0,0.0,0.0,0.0,0.0,0.0,0.0,0.0,0.0,0.0,0.0,0.0,0.0,0.0,0.0,0.0,0.0,0.0,0.0,0.0,0.0,0.0,0.0,0.0,0.0,0.0,0.0,0.0,0.0,0.0,0.0,0.0,0.0,0.0,0.0,0.0,0.0,0.0,0.0,0.0,0.0,0.0,0.0,0.0,0.0,0.0,0.0,0.0,0.0,0.0,0.0,0.0,0.0,0.0,0.0,0.0,0.0,0.0,0.0,0.0,0.0,0.0,0.0,0.0,0.0,0.0,0.0,0.0,0.0,0.0,0.0,0.0,0.0,0.0,0.0,0.0,0.0,0.0,0.0,0.0,0.0,0.0,0.0,0.0,0.0,0.0,0.0,0.0,0.0,0.0,0.0,0.0,0.0,0.0,0.0,0.0,0.0,0.0,0.0,0.0,0.0,0.0,0.0,0.0,0.0,1.6548,1.6769,1.715,1.6994,1.6341,1.6298,1.6017,0.0,0.0,0.0,0.0,0.0,0.0,0.0,0.0,0.0,0.0,0.0,0.0,0.0,0.0,0.0,0.0,0.0,0.0,0.0,0.0,0.0,0.0,0.0,0.0,0.0,0.0,0.0,0.0,0.0,0.0,0.0,0.0,0.0,0.0,0.0,0.0,0.0,0.0,0.0,0.0,0.0,0.0,0.0,0.0,0.0,0.0,0.0,0.0,0.0,0.0,0.0,0.0,0.0,0.0,0.0,0.0,0.0,0.0,0.0,0.0,0.0,0.0,0.0,0.0,0.0,0.0,0.0,0.0,0.0,0.0,0.0,0.0,0.0,0.0,0.0,0.0,0.0,0.0,0.0,0.0,0.0,0.0,0.0,0.0,0.0,0.0,0.0,0.0,0.0,0.0,0.0,0.0,0.0,0.0,0.0,0.0,0.0,0.0,0.0,0.0,0.0,0.0,0.0,0.0,0.0,0.0,0.0,0.0,0.0,1.6618,1.7122,1.7304,1.7088,1.6794,1.6447,0.0,0.0,0.0,0.0,0.0,0.0,0.0,0.0,0.0,0.0,0.0,0.0,0.0,0.0,0.0,0.0,0.0,0.0,0.0,0.0,0.0,0.0,0.0,0.0,0.0,0.0,0.0,0.0,0.0,0.0,0.0,0.0,0.0,0.0,0.0,0.0,0.0,0.0,0.0,0.0,0.0,0.0,0.0,0.0,0.0,0.0,0.0,0.0,0.0,0.0,0.0,0.0,0.0,0.0,0.0,0.0,0.0,0.0,0.0,0.0,0.0,0.0,0.0,0.0,0.0,0.0,0.0,0.0,0.0,0.0,0.0,0.0,0.0,0.0,0.0,0.0,0.0,0.0,0.0,0.0,0.0,0.0,0.0,0.0,0.0,0.0,0.0,0.0,0.0,0.0,0.0,0.0,0.0,0.0,0.0,0.0,0.0,0.0,0.0,0.0,0.0,0.0,0.0,0.0,0.0,0.0,0.0,0.0,0.0,1.7567,1.8052,1.8276,1.8222,1.7783,1.7264,1.6547,0.0,0.0,0.0,0.0,0.0,0.0,0.0,0.0,0.0,0.0,0.0,0.0,0.0,0.0,0.0,0.0,0.0,0.0,0.0,0.0,0.0,0.0,0.0,0.0,0.0,0.0,0.0,0.0,0.0,0.0,0.0,0.0,0.0,0.0,0.0,0.0,0.0,0.0,0.0,0.0,0.0,0.0,0.0,0.0,0.0,0.0,0.0,0.0,0.0,0.0,0.0,0.0,0.0,0.0,0.0,0.0,0.0,0.0,0.0,0.0,0.0,0.0,0.0,0.0,0.0,0.0,0.0,0.0,0.0,0.0,0.0,0.0,0.0,0.0,0.0,0.0,0.0,0.0,0.0,0.0,0.0,0.0,0.0,0.0,0.0,0.0,0.0,0.0,0.0,0.0,0.0,0.0,0.0,0.0,0.0,0.0,0.0,0.0,0.0,0.0,0.0,0.0,0.0,0.0,0.0,0.0,0.0,0.0,1.9409,1.9754,1.9853,1.965,1.9177,1.8353,0.0,0.0,0.0,0.0,0.0,0.0,0.0,0.0,0.0,0.0,0.0,0.0,0.0,0.0,0.0,0.0,0.0,0.0,0.0,0.0,0.0,0.0,0.0,0.0,0.0,0.0,0.0,0.0,0.0,0.0,0.0,0.0,0.0,0.0,0.0,0.0,0.0,0.0,0.0,0.0,0.0,0.0,0.0,0.0,0.0,0.0,0.0,0.0,0.0,0.0,0.0,0.0,0.0,0.0,0.0,0.0,0.0,0.0,0.0,0.0,0.0,0.0,0.0,0.0,0.0,0.0,0.0,0.0,0.0,0.0,0.0,0.0,0.0,0.0,0.0,0.0,0.0,0.0,0.0,0.0,0.0,0.0,0.0,0.0,0.0,0.0,0.0,0.0,0.0,0.0,0.0,0.0,0.0,0.0,0.0,0.0,0.0,0.0,0.0,0.0,0.0,0.0,0.0,0.0,0.0,0.0,0.0,0.0,0.0,2.1116,2.1563,2.1405,2.0612,1.99,1.9052,0.0,0.0,0.0,0.0,0.0,0.0,0.0,0.0,0.0,0.0,0.0,0.0,0.0,0.0,0.0,0.0,0.0,0.0,0.0,0.0,0.0,0.0,0.0,0.0,0.0,0.0,0.0,0.0,0.0,0.0,0.0,0.0,0.0,0.0,0.0,0.0,0.0,0.0,0.0,0.0,0.0,0.0,0.0,0.0,0.0,0.0,0.0,0.0,0.0,0.0,0.0,0.0,0.0,0.0,0.0,0.0,0.0,0.0,0.0,0.0,0.0,0.0,0.0,0.0,0.0,0.0,0.0,0.0,0.0,0.0,0.0,0.0,0.0,0.0,0.0,0.0,0.0,0.0,0.0,0.0,0.0,0.0,0.0,0.0,0.0,0.0,0.0,0.0,0.0,0.0,0.0,0.0,0.0,0.0,0.0,0.0,0.0,0.0,0.0,0.0,0.0,0.0,0.0,0.0,0.0,0.0,0.0,0.0,2.1408,2.2618,2.3407,2.342,2.2623,2.1337,2.0015,0.0,0.0,0.0,0.0,0.0,0.0,0.0,0.0,0.0,0.0,0.0,0.0,0.0,0.0,0.0,0.0,0.0,0.0,0.0,0.0,0.0,0.0,0.0,0.0,0.0,0.0,0.0,0.0,0.0,0.0,0.0,0.0,0.0,0.0,0.0,0.0,0.0,0.0,0.0,0.0,0.0,0.0,0.0,0.0,0.0,0.0,0.0,0.0,0.0,0.0,0.0,0.0,0.0,0.0,0.0,0.0,0.0,0.0,0.0,0.0,0.0,0.0,0.0,0.0,0.0,0.0,0.0,0.0,0.0,0.0,0.0,0.0,0.0,0.0,0.0,0.0,0.0,0.0,0.0,0.0,0.0,0.0,0.0,0.0,0.0,0.0,0.0,0.0,0.0,0.0,0.0,0.0,0.0,0.0,0.0,0.0,0.0,0.0,0.0,0.0,0.0,0.0,0.0,0.0,0.0,0.0,0.0,0.0,2.2812,2.3953,2.5105,2.5493,2.4988,2.2939,2.099,0.0,0.0,0.0,0.0,0.0,0.0,0.0,0.0,0.0,0.0,0.0,0.0,0.0,0.0,0.0,0.0,0.0,0.0,0.0,0.0,0.0,0.0,0.0,0.0,0.0,0.0,0.0,0.0,0.0,0.0,0.0,0.0,0.0,0.0,0.0,0.0,0.0,0.0,0.0,0.0,0.0,0.0,0.0,0.0,0.0,0.0,0.0,0.0,0.0,0.0,0.0,0.0,0.0,0.0,0.0,0.0,0.0,0.0,0.0,0.0,0.0,0.0,0.0,0.0,0.0,0.0,0.0,0.0,0.0,0.0,0.0,0.0,0.0,0.0,0.0,0.0,0.0,0.0,0.0,0.0,0.0,0.0,0.0,0.0,0.0,0.0,0.0,0.0,0.0,0.0,0.0,0.0,0.0,0.0,0.0,0.0,0.0,0.0,0.0,0.0,0.0,0.0,0.0,0.0,0.0,0.0,0.0,0.0,2.3565,2.4944,2.5945,2.622,2.5775,2.3186,2.129,0.0,0.0,0.0,0.0,0.0,0.0,0.0,0.0,0.0,0.0,0.0,0.0,0.0,0.0,0.0,0.0,0.0,0.0,0.0,0.0,0.0,0.0,0.0,0.0,0.0,0.0,0.0,0.0,0.0,0.0,0.0,0.0,0.0,0.0,0.0,0.0,0.0,0.0,0.0,0.0,0.0,0.0,0.0,0.0,0.0,0.0,0.0,0.0,1.1465,0.0,0.0,0.0,0.0,0.0,0.0,0.0,0.0,0.0,0.0,0.0,0.0,0.0,0.0,0.0,0.0,0.0,0.0,0.0,0.0,0.0,0.0,0.0,0.0,0.0,0.0,0.0,0.0,0.0,0.0,0.0,0.0,0.0,0.0,0.0,0.0,0.0,0.0,0.0,0.0,0.0,0.0,0.0,0.0,0.0,0.0,0.0,0.0,0.0,0.0,0.0,0.0,0.0,0.0,0.0,0.0,0.0,0.0,0.0,2.4701,2.6185,2.685,2.7001,2.6562,2.4433,2.2629,0.0,0.0,0.0,0.0,0.0,0.0,0.0,0.0,0.0,0.0,0.0,0.0,0.0,0.0,0.0,0.0,0.0,0.0,0.0,0.0,0.0,0.0,0.0,0.0,0.0,0.0,0.0,0.0,0.0,0.0,0.0,0.0,0.0,0.0,0.0,0.0,0.0,0.0,0.0,0.0,0.0,0.0,0.0,0.0,0.0,0.0,0.0,0.0,0.0,0.0,0.0,0.0,0.0,0.0,0.0,0.0,0.0,0.0,0.0,0.0,0.0,0.0,0.0,0.0,0.0,0.0,0.0,0.0,0.0,0.0,0.0,0.0,0.0,0.0,0.0,0.0,0.0,0.0,0.0,0.0,0.0,0.0,0.0,0.0,0.0,0.0,0.0,0.0,0.0,0.0,0.0,0.0,0.0,0.0,0.0,0.0,0.0,0.0,0.0,0.0,0.0,0.0,0.0,0.0,0.0,0.0,0.0,2.4396,2.5779,2.7546,2.7771,2.7749,2.7502,2.5984,2.4287,2.2507,0.0,0.0,0.0,0.0,0.0,0.0,0.0,0.0,0.0,0.0,0.0,0.0,0.0,0.0,0.0,0.0,0.0,0.0,0.0,0.0,0.0,0.0,0.0,0.0,0.0,0.0,0.0,0.0,0.0,0.0,0.0,0.0,0.0,0.0,0.0,0.0,0.0,0.0,1.1815,1.2229,0.0,0.0,0.0,0.0,0.0,0.0,0.0,0.0,1.2372,0.0,0.0,0.0,0.0,0.0,0.0,0.0,0.0,0.0,0.0,0.0,0.0,0.0,0.0,0.0,0.0,0.0,0.0,0.0,0.0,0.0,0.0,0.0,0.0,0.0,0.0,0.0,0.0,0.0,0.0,0.0,0.0,0.0,0.0,0.0,0.0,0.0,0.0,0.0,0.0,0.0,0.0,0.0,0.0,0.0,0.0,0.0,0.0,0.0,0.0,0.0,0.0,0.0,0.0,0.0,0.0,2.5039,2.494,2.6216,2.907,2.8734,2.8488,2.8422,2.7019,2.54,2.3607,0.0,0.0,0.0,0.0,0.0,0.0,0.0,0.0,0.0,0.0,0.0,0.0,0.0,0.0,0.0,0.0,0.0,0.0,0.0,0.0,0.0,0.0,0.0,0.0,0.0,0.0,0.0,0.0,0.0,0.0,0.0,0.0,0.0,0.0,0.0,0.0,0.0,0.0,0.0,1.3356,1.3526,0.0,0.0,0.0,0.0,0.0,0.0,0.0,0.0,1.2145,0.0,0.0,0.0,0.0,0.0,0.0,0.0,0.0,0.0,0.0,0.0,0.0,0.0,0.0,0.0,0.0,0.0,0.0,0.0,0.0,0.0,0.0,0.0,0.0,0.0,0.0,0.0,0.0,0.0,0.0,0.0,0.0,0.0,0.0,0.0,0.0,0.0,0.0,0.0,0.0,0.0,0.0,0.0,0.0,0.0,0.0,0.0,0.0,0.0,0.0,0.0,0.0,0.0,0.0,0.0,2.5166,2.5659,2.6951,2.9004,2.8589,2.8264,2.8115,2.7016,2.5594,0.0,0.0,0.0,0.0,0.0,0.0,0.0,0.0,0.0,0.0,0.0,0.0,0.0,0.0,0.0,0.0,0.0,0.0,0.0,0.0,0.0,0.0,0.0,0.0,0.0,0.0,0.0,0.0,0.0,0.0,0.0,0.0,0.0,0.0,0.0,0.0,0.0,0.0,0.0,0.0,1.3908,1.4206,1.5017,0.0,0.0,0.0,0.0,0.0,0.0,1.3073,1.2381,0.0,0.0,0.0,0.0,0.0,0.0,0.0,0.0,0.0,0.0,0.0,0.0,0.0,0.0,0.0,0.0,0.0,0.0,0.0,0.0,0.0,0.0,0.0,0.0,0.0,0.0,0.0,0.0,0.0,0.0,0.0,0.0,0.0,0.0,0.0,0.0,0.0,0.0,0.0,0.0,0.0,0.0,0.0,0.0,0.0,0.0,0.0,0.0,0.0,0.0,0.0,0.0,0.0,0.0,0.0,2.526,2.6462,2.7747,2.9071,2.8596,2.8153,2.7946,2.6748,2.5405,0.0,0.0,0.0,0.0,0.0,0.0,0.0,0.0,0.0,0.0,0.0,0.0,0.0,0.0,0.0,0.0,0.0,0.0,0.0,0.0,0.0,0.0,0.0,0.0,0.0,0.0,0.0,0.0,0.0,0.0,0.0,0.0,0.0,0.0,0.0,0.0,0.0,0.0,0.0,0.0,0.0,1.4961,1.5581,1.5231,0.0,0.0,0.0,0.0,1.4601,1.3907,0.0,0.0,0.0,0.0,0.0,0.0,0.0,0.0,0.0,0.0,0.0,0.0,0.0,0.0,0.0,0.0,0.0,0.0,0.0,0.0,0.0,0.0,0.0,0.0,0.0,0.0,0.0,0.0,0.0,0.0,0.0,0.0,0.0,0.0,0.0,0.0,0.0,0.0,0.0,0.0,0.0,0.0,0.0,0.0,0.0,0.0,0.0,0.0,0.0,0.0,0.0,0.0,0.0,0.0,0.0,0.0,2.5904,2.6999,2.857,3.0547,2.9773,2.9234,2.9152,2.6859,2.5154,0.0,0.0,0.0,0.0,0.0,0.0,0.0,0.0,0.0,0.0,0.0,0.0,0.0,0.0,0.0,0.0,0.0,0.0,0.0,0.0,0.0,0.0,0.0,0.0,0.0,0.0,0.0,0.0,0.0,0.0,0.0,0.0,0.0,0.0,0.0,0.0,0.0,0.0,0.0,0.0,0.0,1.5983,1.62,1.5893,1.5688,0.0,0.0,1.6047,1.6356,1.6569,0.0,0.0,0.0,0.0,0.0,0.0,0.0,0.0,0.0,0.0,0.0,0.0,0.0,0.0,0.0,0.0,0.0,0.0,0.0,0.0,0.0,0.0,0.0,0.0,0.0,0.0,0.0,0.0,0.0,0.0,0.0,0.0,0.0,0.0,0.0,0.0,0.0,0.0,0.0,0.0,0.0,0.0,0.0,0.0,0.0,0.0,0.0,0.0,0.0,0.0,0.0,0.0,0.0,0.0,0.0,2.4225,2.6194,2.7651,2.9093,3.0464,2.9546,2.9028,2.9016,2.6535,2.4989,0.0,0.0,0.0,0.0,0.0,0.0,0.0,0.0,0.0,0.0,0.0,0.0,0.0,0.0,0.0,0.0,0.0,0.0,0.0,0.0,0.0,0.0,0.0,0.0,0.0,0.0,0.0,0.0,0.0,0.0,0.0,0.0,0.0,0.0,0.0,0.0,0.0,0.0,0.0,0.0,0.0,0.0,1.6401,1.6335,0.0,0.0,0.0,1.6251,1.6134,0.0,0.0,0.0,0.0,0.0,0.0,0.0,0.0,0.0,0.0,0.0,0.0,0.0,0.0,0.0,0.0,0.0,0.0,0.0,0.0,0.0,0.0,0.0,0.0,0.0,0.0,0.0,0.0,0.0,0.0,0.0,0.0,0.0,0.0,0.0,0.0,0.0,0.0,0.0,0.0,0.0,0.0,0.0,0.0,0.0,0.0,0.0,0.0,0.0,0.0,0.0,0.0,0.0,0.0,0.0,0.0,0.0,2.6446,2.8338,2.9695,3.0509,2.9716,2.9183,2.9018,2.6883,0.0,0.0,0.0,0.0,0.0,0.0,0.0,0.0,0.0,0.0,0.0,0.0,0.0,0.0,0.0,0.0,0.0,0.0,0.0,0.0,0.0,0.0,0.0,0.0,0.0,0.0,0.0,1.4661,0.0,0.0,0.0,0.0,0.0,0.0,0.0,0.0,0.0,0.0,0.0,0.0,0.0,0.0,1.6263,1.6945,1.6994,1.6896,0.0,0.0,1.6698,1.6357,1.6643,1.6466,0.0,0.0,0.0,0.0,0.0,0.0,0.0,0.0,0.0,0.0,0.0,0.0,0.0,0.0,0.0,0.0,0.0,0.0,0.0,0.0,0.0,0.0,0.0,0.0,0.0,0.0,0.0,0.0,0.0,0.0,0.0,0.0,0.0,0.0,0.0,0.0,0.0,0.0,0.0,0.0,0.0,0.0,0.0,0.0,0.0,0.0,0.0,0.0,0.0,0.0,0.0,0.0,0.0,0.0,2.482,2.6836,2.8939,3.053,3.1541,3.106,3.0543,2.9984,2.8386,2.6726,0.0,0.0,0.0,0.0,0.0,0.0,0.0,0.0,0.0,0.0,0.0,0.0,0.0,0.0,0.0,0.0,0.0,0.0,0.0,0.0,0.0,0.0,0.0,0.0,0.0,0.0,0.0,0.0,0.0,0.0,0.0,0.0,0.0,0.0,0.0,0.0,0.0,0.0,0.0,0.0,0.0,1.7635,1.8183,1.8132,1.8091,0.0,1.8104,1.7902,1.794,1.8778,1.868,1.6428,0.0,0.0,0.0,0.0,0.0,0.0,0.0,0.0,0.0,0.0,0.0,0.0,0.0,0.0,0.0,0.0,0.0,0.0,0.0,0.0,0.0,0.0,0.0,0.0,0.0,0.0,0.0,0.0,0.0,0.0,0.0,0.0,0.0,0.0,0.0,0.0,0.0,0.0,0.0,0.0,0.0,0.0,0.0,0.0,0.0,0.0,0.0,0.0,0.0,0.0,0.0,0.0,0.0,2.5354,2.7061,2.9177,3.0543,3.1034,3.0749,3.0385,2.9975,2.8431,2.6919,0.0,0.0,0.0,0.0,0.0,0.0,0.0,0.0,0.0,0.0,0.0,0.0,0.0,0.0,0.0,0.0,0.0,0.0,0.0,0.0,0.0,0.0,0.0,0.0,0.0,0.0,0.0,0.0,1.665,1.6545,1.5917,0.0,0.0,0.0,0.0,0.0,0.0,0.0,0.0,0.0,0.0,1.7916,1.8841,1.8994,0.0,0.0,1.8863,1.863,1.7937,1.8134,1.7865,1.6316,1.5713,0.0,0.0,0.0,0.0,0.0,0.0,0.0,0.0,0.0,0.0,0.0,0.0,0.0,0.0,0.0,0.0,0.0,0.0,0.0,0.0,0.0,0.0,0.0,0.0,0.0,0.0,0.0,0.0,0.0,0.0,0.0,0.0,0.0,0.0,0.0,0.0,0.0,0.0,0.0,0.0,0.0,0.0,0.0,0.0,0.0,0.0,0.0,0.0,0.0,0.0,0.0,0.0,2.5828,2.7385,2.9408,3.0581,3.0865,3.0788,3.046,2.9914,2.8971,2.7778,0.0,0.0,0.0,0.0,0.0,0.0,0.0,0.0,0.0,0.0,0.0,0.0,0.0,0.0,0.0,0.0,0.0,0.0,0.0,0.0,0.0,0.0,0.0,0.0,0.0,0.0,0.0,0.0,1.7204,1.6855,1.5964,0.0,0.0,0.0,0.0,0.0,0.0,0.0,0.0,0.0,0.0,1.8766,1.9855,1.9831,1.9585,1.933,1.9212,1.8853,1.8011,1.7813,1.7466,1.6576,0.0,0.0,0.0,0.0,0.0,0.0,0.0,0.0,0.0,0.0,0.0,0.0,0.0,0.0,0.0,0.0,0.0,0.0,0.0,0.0,0.0,0.0,0.0,0.0,0.0,0.0,0.0,2.4781,0.0,0.0,2.4609,0.0,0.0,0.0,0.0,0.0,0.0,0.0,0.0,0.0,0.0,0.0,0.0,0.0,0.0,0.0,0.0,0.0,0.0,0.0,0.0,0.0,0.0,2.6267,2.7791,2.9586,3.0766,3.1263,3.1425,3.0969,2.9991,3.0421,2.9699,2.7496,0.0,0.0,0.0,0.0,0.0,0.0,0.0,0.0,0.0,0.0,0.0,0.0,0.0,0.0,0.0,0.0,0.0,0.0,0.0,0.0,0.0,0.0,0.0,0.0,0.0,0.0,1.6758,1.6613,1.6326,0.0,0.0,0.0,0.0,0.0,0.0,0.0,0.0,0.0,1.853,1.9512,2.0528,2.1532,2.0674,1.9913,1.9898,1.9203,1.853,1.8229,1.8196,1.8012,0.0,0.0,0.0,0.0,0.0,0.0,0.0,0.0,0.0,0.0,0.0,0.0,0.0,0.0,0.0,0.0,0.0,0.0,0.0,0.0,0.0,0.0,0.0,0.0,0.0,0.0,0.0,2.7313,2.689,0.0,0.0,0.0,0.0,0.0,0.0,0.0,0.0,0.0,0.0,0.0,3.0304,3.1254,0.0,0.0,0.0,0.0,0.0,0.0,0.0,0.0,0.0,0.0,0.0,0.0,2.7189,2.8784,3.0426,3.1481,3.1805,3.1772,3.1452,3.0819,3.0703,2.9576,2.723,0.0,0.0,0.0,0.0,0.0,0.0,0.0,0.0,0.0,0.0,0.0,0.0,0.0,0.0,0.0,0.0,0.0,0.0,0.0,0.0,0.0,0.0,0.0,0.0,0.0,1.756,0.0,0.0,0.0,0.0,0.0,0.0,0.0,0.0,0.0,0.0,1.7846,1.8981,1.9851,2.0093,2.0492,2.1282,2.1011,2.0693,0.0,0.0,0.0,0.0,0.0,0.0,0.0,0.0,0.0,0.0,0.0,0.0,0.0,0.0,1.5701,1.3929,1.3176,1.268,1.2226,0.0,0.0,0.0,0.0,0.0,0.0,0.0,0.0,0.0,0.0,0.0,0.0,0.0,0.0,2.9661,2.9086,2.8868,0.0,0.0,0.0,0.0,0.0,0.0,0.0,0.0,3.2273,3.3184,3.3031,3.3869,3.3975,3.3427,3.2032,3.0127,0.0,0.0,0.0,0.0,0.0,0.0,0.0,0.0,2.8113,2.9204,3.1203,3.2275,3.23,3.2434,3.224,3.1706,3.1172,2.9821,2.7708,2.6678,2.5515,0.0,0.0,0.0,0.0,0.0,0.0,0.0,0.0,0.0,0.0,0.0,0.0,0.0,0.0,0.0,0.0,0.0,0.0,0.0,0.0,0.0,0.0,0.0,1.8651,0.0,0.0,0.0,0.0,0.0,0.0,0.0,0.0,0.0,1.7914,1.9051,2.0222,2.1055,2.0909,2.0974,2.1551,0.0,0.0,0.0,0.0,0.0,0.0,0.0,1.7866,1.7167,1.7144,1.7254,1.7386,1.7597,1.7663,1.7415,0.0,0.0,1.5597,1.4816,1.4325,1.3959,1.3188,1.253,1.2296,1.1845,1.147,0.0,0.0,0.0,0.0,2.9319,0.0,0.0,0.0,3.1988,3.187,0.0,3.1855,0.0,0.0,0.0,0.0,3.0119,3.1441,0.0,0.0,3.5796,3.7005,3.6851,3.672,3.6658,3.6514,3.444,3.3169,3.2574,3.0093,0.0,0.0,0.0,0.0,0.0,0.0,2.9097,2.9158,3.1879,3.3145,3.2817,3.334,3.3314,3.2686,3.1785,3.056,2.9021,2.8328,2.7463,2.6308,2.4582,0.0,0.0,0.0,0.0,0.0,0.0,0.0,0.0,0.0,0.0,0.0,0.0,0.0,0.0,0.0,0.0,0.0,0.0,0.0,0.0,1.9625,0.0,0.0,0.0,0.0,0.0,0.0,0.0,0.0,0.0,1.9806,1.8807,2.0017,2.1293,2.2068,0.0,0.0,0.0,0.0,2.0859,2.0833,2.0029,1.9422,1.9363,1.9025,1.8811,1.8859,0.0,0.0,1.8389,1.8192,1.7993,1.7718,1.8136,1.8316,1.7901,1.7049,1.6417,1.6191,1.5263,1.4517,1.4102,1.3518,1.306,3.4445,0.0,0.0,0.0,0.0,3.28,3.3854,3.5418,3.5151,3.4928,3.4708,3.3964,0.0,0.0,0.0,0.0,0.0,0.0,3.412,3.5358,3.6458,3.7242,3.7751,3.803,3.8106,3.7894,3.6555,3.5862,3.5676,3.4242,3.1219,2.6728,0.0,0.0,0.0,0.0,3.0245,3.1503,3.3103,3.4113,3.4404,3.4277,3.3719,3.2751,3.202,3.1222,3.0347,2.9849,2.9093,2.803,2.6798,0.0,0.0,0.0,0.0,0.0,0.0,0.0,0.0,0.0,0.0,0.0,0.0,0.0,0.0,0.0,0.0,0.0,0.0,0.0,1.939,2.0223,2.0059,0.0,0.0,0.0,0.0,0.0,0.0,0.0,0.0,0.0,2.1099,2.1865,2.2391,0.0,0.0,2.1748,2.1556,2.1498,2.1494,2.1443,2.1317,0.0,2.0533,2.0184,1.9782,1.9256,1.9518,1.9635,1.9149,1.9232,1.9287,1.9039,1.9146,1.9167,1.881,1.8131,1.7437,1.6898,1.6186,1.5523,1.5197,1.4427,1.3754,3.8185,3.6894,3.4435,3.385,3.4604,3.4872,3.5856,3.7282,3.7148,3.6939,3.6641,3.6149,3.513,3.3676,3.2964,0.0,0.0,0.0,3.5655,3.7069,3.7372,3.7887,3.8597,3.8802,3.8833,3.8723,3.7884,3.7488,3.7451,3.6117,3.3614,3.0002,0.0,2.8945,2.8366,3.0255,3.1683,3.2486,3.4017,3.4888,3.5072,3.4977,3.4297,3.3001,3.258,3.194,3.0922,3.0685,3.0204,2.9352,2.8339,2.6744,0.0,0.0,0.0,0.0,0.0,0.0,0.0,0.0,0.0,0.0,0.0,2.0757,1.9253,0.0,0.0,0.0,2.0286,2.0629,2.0591,2.1315,0.0,0.0,0.0,0.0,0.0,0.0,0.0,1.9167,2.0724,2.2146,2.3009,2.3551,2.3781,2.3545,2.3074,2.2699,2.2553,0.0,2.2793,2.2535,2.2328,2.1994,2.1332,2.0974,2.0618,2.0193,2.0297,2.0385,2.0083,2.0146,2.0155,1.9945,1.9808,1.9625,1.9387,1.8881,1.8334,1.7866,1.7051,1.6437,1.6287,1.529,1.4413,4.1558,4.0928,3.6303,3.4991,3.5956,3.657,3.7139,3.7648,3.8247,3.8138,3.7614,3.8138,3.7635,3.6272,3.5648,0.0,3.6391,3.648,3.7248,3.8542,3.8556,3.8916,3.9523,3.9333,3.9179,3.9179,3.8553,3.824,3.8144,3.6536,3.5206,3.4209,3.378,3.2709,3.1129,3.2506,3.303,3.2499,3.4509,3.5413,3.5168,3.548,3.4914,3.3405,3.334,3.2564,3.1115,3.1013,3.0811,3.0369,2.9348,2.8053,2.6531,0.0,0.0,0.0,0.0,0.0,0.0,0.0,0.0,0.0,0.0,0.0,0.0,0.0,0.0,0.0,2.2085,0.0,2.2206,2.2751,0.0,0.0,0.0,2.1705,2.0958,2.1564,2.1978,2.1737,0.0,0.0,2.4541,2.4975,2.5234,2.5338,2.4691,2.4247,2.4366,2.4326,2.4249,2.3578,2.3095,2.2452,2.1996,2.1531,2.1224,2.1239,2.1195,2.1024,2.0926,2.0808,2.06,2.0428,2.0155,1.9882,1.9725,1.9417,1.9188,1.8888,1.7944,1.7255,1.7251,1.6271,1.5319,4.1204,4.0477,3.9662,3.937,3.948,3.9631,3.951,3.9159,3.9344,3.9223,3.888,3.8556,3.7908,3.7172,3.7988,3.8167,3.7903,3.8934,3.9582,3.9903,3.9933,4.0277,4.0876,4.036,4.001,3.9802,3.9195,3.8723,3.8427,3.7972,3.7113,3.5791,3.5243,3.3511,3.0713,3.1821,3.2641,3.2938,3.3842,3.4722,3.5521,3.5358,3.4754,3.3781,3.3444,3.2892,3.2087,3.1319,3.0922,3.0953,2.997,2.8662,2.7091,2.5289,0.0,0.0,0.0,0.0,0.0,0.0,0.0,0.0,0.0,2.218,2.0669,0.0,2.263,0.0,2.4186,2.5022,2.4463,2.4422,0.0,0.0,2.2787,2.2589,2.2175,2.3279,2.3709,2.275,2.394,2.5011,2.5502,2.5338,2.5541,2.6375,2.5156,2.3924,2.3335,2.3751,2.3858,2.3308,2.351,2.3599,2.3061,2.2455,2.187,2.1464,2.1338,2.1239,2.1042,2.0952,2.0916,2.0826,2.0645,2.0428,2.0164,1.9936,1.9662,1.9433,1.8746,1.811,1.7942,1.7274,1.6625,4.1551,4.1035,4.1292,4.1225,4.0916,4.0676,4.0356,4.001,3.9688,3.9517,3.9358,3.9005,3.8646,3.8342,3.9044,3.92,3.8916,3.9619,4.0113,4.0397,4.0412,4.0756,4.1354,4.101,4.0644,4.0234,3.9861,3.9401,3.89,3.8811,3.826,3.7281,3.6901,3.5415,3.289,3.2258,3.2118,3.2386,3.323,3.4283,3.5602,3.5224,3.4524,3.3555,3.3068,3.2283,3.1142,3.0569,3.0044,2.9578,2.8999,2.8083,2.6756,2.5365,2.4059,0.0,0.0,0.0,0.0,0.0,0.0,0.0,0.0,0.0,0.0,0.0,2.3804,2.3996,2.553,2.6214,2.5477,2.5505,2.5314,2.466,2.4719,2.4657,2.4195,2.5,2.5273,2.4625,2.547,2.6292,2.6747,2.6616,2.6682,2.7332,2.6152,2.4891,2.4231,2.4542,2.4594,2.3692,2.3922,2.3899,2.3098,2.2584,2.2108,2.1662,2.1517,2.1472,2.132,2.1239,2.1141,2.1006,2.0817,2.0609,2.0337,2.0073,1.9845,1.9579,1.9166,1.868,1.8156,1.7423,1.6712,4.2145,4.1854,4.1817,4.1578,4.1153,4.0676,4.0462,4.0342,3.9736,3.946,3.9388,3.9388,3.9388,3.9388,3.9514,3.9463,3.9388,3.9514,3.9888,4.0502,4.0516,4.092,4.1624,4.1549,4.1205,4.0666,4.0487,4.0076,3.9471,3.9222,3.8848,3.8318,3.8119,3.7207,3.5597,3.3185,3.182,3.1547,3.2778,3.4083,3.5356,3.4787,3.3959,3.2925,3.2286,3.1235,2.9664,2.9399,2.8828,2.7732,2.7565,2.7166,2.6445,2.5311,2.4506,0.0,2.3028,0.0,0.0,0.0,0.0,0.0,0.0,0.0,0.0,2.5026,2.5278,2.5654,2.6625,2.6938,2.6355,2.6542,2.6639,2.6528,2.6942,2.6976,2.6313,2.6459,2.6645,2.6614,2.7091,2.7589,2.8005,2.8045,2.798,2.7903,2.7206,2.6291,2.5644,2.5676,2.5484,2.4458,2.4317,2.3899,2.2778,2.2456,2.2227,2.1824,2.1687,2.1687,2.1687,2.1517,2.1338,2.1141,2.0961,2.0699,2.0428,2.0201,1.9982,1.9762,1.9479,1.9053,1.8273,1.7486,1.6472,4.2206,4.1628,4.1423,4.126,4.1189,4.0967,4.0694,4.0319,4.0006,3.9711,3.9388,3.9388,3.9388,3.9433,3.9978,3.9933,3.9418,3.9978,4.0561,4.1227,4.119,4.1833,4.2856,4.2455,4.2141,4.1961,4.0905,4.0248,3.9966,3.9393,3.8462,3.7214,3.7036,3.6251,3.4796,0.0,0.0,0.0,3.3321,3.3991,3.3738,3.3043,3.2345,3.1639,3.1169,0.0,2.9926,2.8962,2.8467,2.8446,2.7855,0.0,0.0,0.0,0.0,0.0,0.0,0.0,0.0,0.0,0.0,0.0,2.5619,2.5611,2.5485,2.6289,2.7396,2.875,2.8537,2.8623,2.9341,2.877,2.8276,2.8077,2.8036,2.7652,2.6827,2.7256,2.7505,2.7197,2.7776,2.8308,2.8543,2.8287,2.8002,2.7991,2.7511,2.6778,2.5742,2.567,2.5348,2.4541,2.4547,2.4127,2.2952,2.2832,2.2538,2.1916,2.1687,2.1714,2.1733,2.1714,2.166,2.1571,2.1428,2.1159,2.0916,2.069,2.0428,2.0201,1.9928,1.9538,1.8786,1.8484,1.8051,4.2987,4.2094,4.1955,4.1705,0.0,4.1321,4.0924,4.0351,4.0101,4.0015,4.0064,4.0284,4.0382,4.0397,4.0397,4.0232,3.9918,4.0247,4.0756,4.1422,4.1752,4.2402,4.329,4.3,4.2671,4.2396,4.1722,4.1003,4.0248,3.9906,3.9199,3.8124,3.8053,3.7656,3.6921,3.6393,3.516,3.3164,3.398,3.4358,3.4321,3.37,3.2923,3.202,3.146,0.0,0.0,0.0,0.0,0.0,0.0,0.0,0.0,2.8141,0.0,2.8058,2.7306,2.6935,2.7165,2.7242,2.7545,2.8178,2.8661,2.8586,2.7733,2.8448,2.9277,3.0093,2.9563,2.9537,3.0336,2.9896,2.9595,2.9731,2.9242,2.863,2.8158,2.8017,2.7927,2.769,2.7899,2.8265,2.856,2.8369,2.8269,2.8331,2.7971,2.7454,2.6881,2.6459,2.5972,2.5502,2.5086,2.4689,2.3947,2.3378,2.3014,2.2446,2.2291,2.23,2.2291,2.2117,2.198,2.1889,2.1617,2.1293,2.1042,2.0826,2.0609,2.0337,2.0073,1.9754,1.9288,1.8875,1.8186,4.4123,4.3065,4.2854,4.2422,4.1877,4.1806,4.1386,4.0674,4.0217,0.0,0.0,4.1055,4.128,4.125,4.0808,4.0576,4.0576,4.0576,4.092,4.1602,4.2156,4.2716,4.329,4.3305,4.3045,4.259,4.2455,4.1841,4.0771,4.0636,4.0307,3.9798,3.9649,3.9508,3.9388,3.9068,3.7696,3.5361,3.4946,3.4984,3.5346,3.4705,3.3914,3.2838,3.2083,3.1308,3.0497,3.0239,2.9891,2.931,2.9267,2.9253,2.9251,2.9283,2.9284,2.9277,2.9244,2.9342,2.9635,2.9871,3.03,3.0915,3.1259,3.1062,3.0143,3.0583,3.0846,3.0771,3.0432,3.0382,3.0708,3.0613,3.0627,3.1034,3.0347,2.9756,2.9362,2.8798,2.8356,2.8187,2.818,2.8225,2.8577,2.8642,2.864,2.8696,2.8396,2.8122,2.8043,2.7439,2.6823,2.6472,2.5984,2.5391,2.4775,2.4183,2.3526,2.2969,2.2867,2.2913,2.2858,2.262,2.2373,2.2225,2.1852,2.1581,2.1275,2.1094,2.0814,2.0436,2.0201,1.9903,1.9571,1.9027,1.8208,4.5216,4.4771,4.3828,4.3252,4.2867,4.2592,4.2078,4.1381,4.0591,4.0197,4.0142,4.0613,4.0775,4.0805,4.1138,4.125,4.1235,4.1235,4.1632,4.2261,4.2366,4.2716,4.329,4.3305,4.3245,4.3125,4.2626,4.2321,4.2081,4.1557,4.1175,4.104,4.0546,3.9993,3.9433,3.9337,3.8934,3.8172,3.6671,3.5662,3.5231,3.4144,3.3501,3.3276,3.2018,3.1483,3.179,3.0387,2.9768,3.0265,2.9708,2.9638,3.0265,3.0492,3.0802,3.1309,3.1323,3.1208,3.1043,3.0891,3.0903,3.115,3.146,3.1498,3.1238,3.1675,3.1788,3.1361,3.1574,3.17,3.1361,3.1273,3.1201,3.1137,3.098,3.054,2.9715,2.9325,2.9117,2.9089,2.8994,2.8953,2.9195,2.9283,2.9145,2.8899,2.8694,2.8626,2.8495,2.7893,2.7216,2.6896,2.6744,2.6154,2.507,2.4631,2.4079,2.3062,2.2959,2.3004,2.3014,2.2904,2.2821,2.2774,2.2627,2.2417,2.1969,2.1842,2.1479,2.0884,2.0661,2.0339,1.9544,1.9389,1.9081,4.6398,4.5936,4.5457,4.4701,4.3845,4.2967,4.2432,4.2078,4.1361,4.0882,4.0715,4.1173,4.1351,4.1351,4.1247,4.118,4.121,4.146,4.1701,4.2031,4.2644,4.3045,4.3275,4.3305,4.3305,4.3275,4.3045,4.2701,4.2396,4.2081,4.1767,4.1422,4.107,4.0786,4.0487,4.0127,3.9875,3.9646,3.8289,3.7172,3.6331,3.5798,3.5354,3.5009,3.4142,3.3825,3.4073,3.3163,3.2818,3.3135,3.295,3.2922,3.3155,3.3239,3.3388,3.3603,3.3266,3.2825,3.2297,3.1634,3.1526,3.206,3.2245,3.2316,3.2209,3.2189,3.2114,3.1851,3.1813,3.18,3.1813,3.1838,3.1922,3.2164,3.1801,3.1264,3.0631,3.0036,2.9654,2.9435,2.9312,2.9303,2.9465,2.9511,2.9364,2.905,2.8896,2.8803,2.8803,2.8442,2.7963,2.759,2.7165,2.6449,2.5448,2.4822,2.4359,2.3669,2.3602,2.3611,2.3584,2.3455,2.3242,2.3206,2.3078,2.2811,2.2499,2.2387,2.2067,2.1624,2.1288,2.0865,2.0226,1.9782,1.9097,4.7475,4.6938,4.6859,4.6049,4.4748,4.3556,4.2971,4.2771,4.2125,4.1679,4.1551,4.1669,4.1732,4.1702,4.1346,4.121,4.1249,4.1571,4.1799,4.1964,4.2623,4.3045,4.3245,4.3195,4.3155,4.329,4.3305,4.3075,4.2641,4.2635,4.2291,4.1707,4.1647,4.1572,4.1369,4.0876,4.0546,4.0345,3.958,3.8708,3.7784,3.7682,3.7412,3.696,3.6411,3.6207,3.63,3.5787,3.5555,3.5682,3.5642,3.552,3.5373,3.5337,3.53,3.5133,3.4702,3.4015,3.3152,3.239,3.2136,3.2592,3.2872,3.2947,3.2934,3.2717,3.2403,3.2135,3.1845,3.1829,3.2127,3.234,3.2591,3.2993,3.2564,3.1985,3.1455,3.0846,3.0338,2.9903,2.9818,2.9828,2.9813,2.9798,2.9601,2.928,2.9035,2.8932,2.8885,2.8839,2.8664,2.8092,2.761,2.7105,2.6274,2.5577,2.5041,2.4637,2.4372,2.4227,2.4141,2.3898,2.3712,2.3657,2.3464,2.3206,2.3087,2.2937,2.2623,2.2204,2.1965,2.1655,2.1,2.011,1.9281,4.8357,4.804,4.7713,4.6742,4.5519,4.4748,4.4101,4.3516,4.2817,4.2509,4.2437,4.1627,4.1311,4.1321,4.1632,4.1741,4.1771,4.1871,4.2077,4.2364,4.2055,4.2346,4.3195,4.2746,4.2761,4.323,4.3305,4.3245,4.3155,4.317,4.2895,4.2381,4.2321,4.2036,4.1497,4.1339,4.0995,4.0427,4.03,3.992,3.9235,3.8855,3.8627,3.8568,3.7645,3.7411,3.786,3.6574,3.6025,3.6459,3.575,3.524,3.5254,3.524,3.5217,3.5217,3.5147,3.4534,3.3285,3.3133,3.2789,3.2084,3.2744,3.3206,3.3204,3.3383,3.3049,3.2275,3.2228,3.2344,3.224,3.2667,3.2998,3.3086,3.3006,3.2677,3.1997,3.1769,3.1563,3.1083,3.0985,3.0975,3.0746,3.0584,3.0181,2.9555,2.9405,2.9301,2.9128,2.9024,2.8839,2.8326,2.8269,2.8175,2.7458,2.6982,2.6225,2.5596,2.4922,2.4637,2.4461,2.4313,2.4137,2.4058,2.4055,2.3822,2.3553,2.3386,2.3192,2.2751,2.2456,2.2263,2.1618,2.0826,2.0093,4.9305,4.9173,4.9014,4.8427,4.745,4.6299,4.5789,4.5725,4.4778,4.4156,4.371,4.2959,4.217,4.1449,4.1219,4.1056,4.1087,4.1346,4.1593,4.1802,4.2063,4.2483,4.2842,4.295,4.309,4.3275,4.3305,4.3305,4.3305,4.3305,4.314,4.2955,4.294,4.2791,4.2521,4.2147,4.1677,4.0995,4.0591,4.0083,3.9463,3.9213,3.9156,3.9075,3.8495,3.8282,3.8428,3.7471,3.6968,3.7158,3.6603,3.6272,3.6272,3.6272,3.6272,3.6206,3.5693,3.4968,3.4049,3.3848,3.3562,3.3238,3.3568,3.3801,3.3882,3.3731,3.3439,3.3261,3.321,3.314,3.2929,3.3144,3.3227,3.3111,3.3124,3.2895,3.2425,3.2375,3.2259,3.1957,3.1902,3.1833,3.15,3.1015,3.0397,2.9863,2.9634,2.9542,2.9359,2.922,2.8989,2.8746,2.8746,2.8326,2.7458,2.704,2.6562,2.5887,2.545,2.5157,2.4775,2.4538,2.439,2.439,2.4301,2.4165,2.3941,2.3886,2.3736,2.3274,2.274,2.2438,2.1967,2.1439,2.0896,4.9916,4.9916,4.9916,4.9521,4.8802,4.7715,4.7325,4.7371,4.6586,4.5958,4.5446,4.4496,4.3509,4.253,4.1544,4.0966,4.0874,4.1168,4.1275,4.1265,4.1765,4.2093,4.2417,4.273,4.3052,4.3232,4.3412,4.3463,4.3409,4.3329,4.3305,4.3305,4.3305,4.3305,4.3245,4.2836,4.2387,4.1908,4.128,4.0606,4.0038,3.9768,3.9604,3.9403,3.9104,3.8943,3.8943,3.8263,3.7938,3.7901,3.7457,3.7187,3.7134,3.7056,3.6978,3.695,3.6339,3.5592,3.492,3.4725,3.4517,3.426,3.434,3.4403,3.431,3.4031,3.3923,3.4085,3.4034,3.3742,3.3428,3.3386,3.3326,3.3124,3.3124,3.3038,3.284,3.2797,3.2698,3.2519,3.2413,3.2332,3.1989,3.1415,3.088,3.0408,3.0136,2.9852,2.9715,2.9531,2.9347,2.9128,2.8943,2.8513,2.761,2.7136,2.6706,2.6274,2.5936,2.5362,2.503,2.4784,2.4627,2.4587,2.4449,2.4282,2.4218,2.4227,2.4146,2.37,2.3247,2.2815,2.2559,2.2101,2.1603,4.9916,4.9916,4.9916,4.9576,4.8873,4.8818,4.8439,4.8026,4.7861,4.7782,4.7454,4.5969,4.5126,4.4886,4.3376,4.2186,4.1617,4.1581,4.151,4.1255,4.0858,4.1005,4.1886,4.2023,4.2432,4.3061,4.3652,4.3832,4.369,4.3423,4.3305,4.329,4.3329,4.3344,4.3329,4.3309,4.3254,4.3024,4.247,4.1931,4.1272,4.0636,4.0023,3.9508,3.9388,3.9352,3.9301,3.8943,3.8723,3.8708,3.7976,3.7572,3.7534,3.7226,3.7017,3.6978,3.695,3.6462,3.5692,3.5908,3.5677,3.4607,3.4821,3.4868,3.4522,3.4468,3.4413,3.4356,3.4366,3.4127,3.3569,3.3484,3.3356,3.3167,3.3111,3.3124,3.3081,3.3068,3.2939,3.2766,3.2667,3.2494,3.2064,3.1989,3.1697,3.1365,3.1208,3.0998,3.0468,3.0228,2.9965,2.9472,2.9183,2.9,2.8653,2.7987,2.7373,2.6976,2.6324,2.5499,2.5245,2.5088,2.5,2.4833,2.4637,2.4538,2.4489,2.439,2.4242,2.396,2.3691,2.3368,2.3083,2.2515,2.2049,5.0711,5.0711,5.0425,5.0304,5.0304,4.9803,4.9705,4.9925,4.9675,4.9327,4.8881,4.8205,4.7573,4.6868,4.6015,4.4372,4.2392,4.2248,4.2196,4.2124,4.2169,4.2197,4.2199,4.2894,4.3122,4.3077,4.3669,4.3934,4.3871,4.3793,4.3738,4.3738,4.3738,4.3738,4.3738,4.3738,4.3542,4.3134,4.2747,4.2273,4.1588,4.08,4.0277,4.0053,3.9619,3.9388,3.9388,3.9031,3.8782,3.8782,3.8277,3.7976,3.7938,3.7596,3.7264,3.7031,3.6978,3.6841,3.657,3.6671,3.6452,3.5759,3.5775,3.5575,3.5057,3.5143,3.511,3.4638,3.4789,3.4604,3.4027,3.3865,3.3781,3.3513,3.3356,3.327,3.3283,3.3197,3.3025,3.297,3.2927,3.2754,3.2505,3.257,3.25,3.1977,3.2091,3.2096,3.1774,3.1565,3.1194,3.05,3.02,2.9866,2.9035,2.8606,2.816,2.7773,2.7195,2.6637,2.6308,2.5828,2.5679,2.5328,2.5064,2.4773,2.4674,2.439,2.4251,2.4165,2.3954,2.3767,2.3535,2.3019,2.2688,5.1524,5.1503,5.1081,5.1059,5.128,5.0634,5.0618,5.1097,5.0848,5.0498,5.0027,4.9657,4.91,4.8384,4.7781,4.6419,4.4349,4.3627,4.3017,4.2679,4.2916,4.2833,4.2567,4.3174,4.3419,4.3297,4.3823,4.4104,4.4104,4.4026,4.3988,4.4003,4.4003,4.4003,4.4003,4.4003,4.3714,4.3297,4.2954,4.2554,4.2055,4.1128,4.0596,4.0491,3.9935,3.9532,3.9424,3.9141,3.898,3.8943,3.8612,3.8352,3.815,3.7839,3.7495,3.7226,3.7056,3.6978,3.6978,3.6978,3.6836,3.6431,3.6419,3.6127,3.5668,3.5648,3.5345,3.5083,3.4832,3.4718,3.4373,3.4202,3.4063,3.3768,3.3598,3.3484,3.3471,3.3326,3.3197,3.3124,3.3081,3.3014,3.2953,3.3219,3.3199,3.2853,3.317,3.3224,3.2875,3.2629,3.2277,3.1529,3.0996,3.0475,2.981,2.9294,2.8546,2.8119,2.7693,2.7325,2.7023,2.6577,2.6229,2.5855,2.5503,2.5133,2.4801,2.4507,2.4341,2.4291,2.4146,2.3978,2.3804,2.3629,2.3268,5.2272,5.22,5.1842,5.1692,5.1741,5.1355,5.1205,5.1317,5.1258,5.1194,5.1015,5.0123,4.9662,4.9319,4.8564,4.7899,4.729,4.5683,4.4161,4.3054,4.2961,4.2848,4.2688,4.2944,4.3365,4.3749,4.4136,4.4335,4.4281,4.4143,4.4065,4.4026,4.405,4.4065,4.4026,4.4065,4.3996,4.3814,4.3388,4.3047,4.2834,4.178,4.1122,4.1037,4.043,3.9873,3.952,3.9439,3.9373,3.9337,3.9017,3.8598,3.8277,3.7915,3.7663,3.7572,3.7264,3.7017,3.7031,3.7017,3.685,3.6549,3.6445,3.6424,3.6212,3.5734,3.5433,3.5438,3.5028,3.4463,3.445,3.4356,3.423,3.3797,3.3725,3.3725,3.367,3.3513,3.3313,3.3167,3.3119,3.3375,3.3721,3.3946,3.4018,3.4198,3.4317,3.4232,3.3712,3.3525,3.3076,3.2395,3.1786,3.1182,3.0604,2.9994,2.9132,2.8337,2.7878,2.7496,2.7365,2.702,2.6854,2.6566,2.5961,2.5578,2.4979,2.4735,2.4538,2.444,2.4341,2.4165,2.3987,2.3813,2.3666,5.2307,5.2307,5.2164,5.2128,5.2145,5.2,5.2109,5.234,5.2109,5.1964,5.1842,5.1333,5.0939,5.0553,4.9949,4.9445,4.8945,4.7905,4.6676,4.531,4.5033,4.4372,4.3646,4.4202,4.4756,4.4957,4.5118,4.4957,4.4588,4.445,4.4435,4.4419,4.4381,4.4396,4.4381,4.4396,4.4396,4.4351,4.4083,4.3899,4.3838,4.2879,4.2363,4.2257,4.1301,4.0607,4.0498,3.9953,3.964,3.9625,3.9358,3.9017,3.8686,3.8486,3.8315,3.8014,3.7649,3.7419,3.738,3.7148,3.7007,3.685,3.6825,3.6526,3.613,3.6116,3.5773,3.5262,3.4926,3.4894,3.4502,3.4397,3.4314,3.4189,3.4063,3.3949,3.3894,3.3654,3.3326,3.3205,3.3407,3.3709,3.3997,3.4399,3.4936,3.5002,3.5208,3.5231,3.4973,3.4745,3.4577,3.3909,3.2994,3.2055,3.1507,3.0801,2.9836,2.911,2.8603,2.8005,2.7821,2.766,2.75,2.7032,2.6484,2.5902,2.5358,2.4981,2.4784,2.4494,2.4321,2.4202,2.4168,2.4027,2.3804,5.2764,5.2712,5.2572,5.2537,5.2501,5.2395,5.2449,5.2642,5.243,5.2307,5.2236,5.2073,5.1762,5.1429,5.1113,5.0682,5.0129,4.9847,4.892,4.741,4.6441,4.5575,4.4613,4.4925,4.5203,4.5264,4.5464,4.5372,4.4972,4.4941,4.4833,4.4656,4.461,4.4572,4.461,4.4594,4.4533,4.4264,4.4074,4.4029,4.3875,4.3273,4.2969,4.2999,4.2145,4.1641,4.1513,4.0745,4.0167,3.9864,3.964,3.9568,3.9691,3.9417,3.9156,3.9113,3.8799,3.8471,3.8203,3.788,3.7551,3.7565,3.7408,3.7412,3.7166,3.7373,3.6713,3.6391,3.5796,3.5426,3.5042,3.4572,3.4424,3.4397,3.4272,3.416,3.4076,3.3781,3.3441,3.3384,3.362,3.3966,3.4349,3.4856,3.5537,3.5656,3.5921,3.6063,3.5812,3.5692,3.5362,3.4878,3.4074,3.3218,3.2523,3.16,3.0618,3.0031,2.9473,2.8907,2.8455,2.8351,2.8191,2.7342,2.6704,2.6219,2.5651,2.5302,2.502,2.4683,2.4403,2.4349,2.4304,2.4082,2.3904,5.3467,5.3467,5.3093,5.2955,5.2903,5.2572,5.2466,5.243,5.2378,5.2378,5.2343,5.2272,5.2109,5.1888,5.1778,5.1492,5.128,5.107,5.0542,4.9207,4.7703,4.6495,4.6155,4.5509,4.5233,4.5164,4.5596,4.5734,4.5596,4.5626,4.5303,4.4747,4.474,4.4641,4.4625,4.461,4.4348,4.3932,4.3756,4.3771,4.3741,4.3187,4.3073,4.3633,4.2996,4.259,4.2498,4.1679,4.0848,4.0102,3.9818,4.0136,4.0861,4.0374,4.0104,4.056,4.0417,3.9858,3.9349,3.8909,3.8578,3.8336,3.8227,3.8327,3.8698,3.8228,3.7937,3.7865,3.6816,3.5995,3.5725,3.5088,3.4562,3.4397,3.4356,3.4285,3.4105,3.3865,3.3641,3.353,3.3732,3.4104,3.4487,3.5052,3.5604,3.6044,3.616,3.6043,3.6098,3.6003,3.592,3.5445,3.4815,3.4216,3.3418,3.2053,3.1158,3.0779,3.0202,2.9498,2.9008,2.8865,2.839,2.7538,2.7003,2.6517,2.6005,2.5556,2.5284,2.508,2.4816,2.4627,2.4384,2.4193,2.4076,5.3518,5.3467,5.3399,5.3348,5.3314,5.3212,5.3161,5.3127,5.2868,5.2764,5.2677,5.2414,5.2288,5.2181,5.2181,5.198,5.1688,5.1598,5.1512,5.0964,4.9432,4.8171,4.7451,4.6802,4.6485,4.654,4.6739,4.6715,4.612,4.6237,4.5889,4.5086,4.5171,4.5041,4.4702,4.461,4.4495,4.4394,4.4332,4.4317,4.4286,4.4125,4.4141,4.4255,4.3701,4.3377,4.3239,4.2166,4.1031,4.0122,3.996,4.0202,4.0835,4.0628,4.0681,4.106,4.0873,4.0612,4.0343,3.9974,3.9434,3.8692,3.8945,3.8543,3.7325,3.7923,3.7593,3.703,3.6319,3.6277,3.5831,3.5261,3.4784,3.4439,3.4437,3.4353,3.416,3.4034,3.3894,3.3734,3.3962,3.4274,3.4477,3.4791,3.524,3.5692,3.5809,3.5922,3.615,3.6228,3.6146,3.5924,3.5424,3.4955,3.4151,3.2695,3.1748,3.1424,3.079,2.9897,2.9418,2.9143,2.8347,2.7427,2.7221,2.6794,2.6173,2.5655,2.5489,2.5391,2.5024,2.4704,2.4468,2.4235,2.4147,5.3568,5.3584,5.3534,5.3518,5.3518,5.3518,5.3518,5.3467,5.3264,5.3127,5.3093,5.2903,5.2712,5.2572,5.2537,5.2359,5.2036,5.1984,5.1984,5.1813,5.0778,4.9478,4.827,4.7426,4.733,4.784,4.7589,4.7214,4.6865,4.6865,4.6384,4.5721,4.5477,4.5208,4.4867,4.4663,4.461,4.4594,4.461,4.461,4.461,4.461,4.4594,4.4564,4.4194,4.3947,4.3547,4.2817,4.2073,4.1397,4.068,4.0441,4.1094,4.0958,4.1066,4.1535,4.1354,4.1255,4.1118,4.0811,4.0432,4.0006,4.0166,3.9441,3.8631,3.8765,3.8531,3.7841,3.7209,3.6853,3.662,3.579,3.5071,3.4769,3.4745,3.463,3.4295,3.4351,3.4357,3.438,3.4694,3.501,3.4895,3.5064,3.5357,3.568,3.5683,3.5956,3.6219,3.6355,3.6392,3.6125,3.6016,3.5605,3.5135,3.3924,3.2624,3.225,3.118,3.0296,2.9918,2.9468,2.8698,2.7952,2.7549,2.7068,2.6426,2.5878,2.5635,2.545,2.5131,2.4958,2.4791,2.4527,2.4429,5.375,5.37,5.3618,5.3568,5.3568,5.3534,5.3534,5.3534,5.3467,5.3467,5.3433,5.3467,5.3212,5.2989,5.2955,5.2729,5.2378,5.2378,5.2307,5.2142,5.1569,5.0657,4.9394,4.8237,4.8158,4.8596,4.7853,4.759,4.7466,4.734,4.6856,4.6235,4.5649,4.5413,4.527,4.4929,4.4694,4.4764,4.4618,4.461,4.461,4.461,4.461,4.4594,4.4564,4.4363,4.4024,4.3655,4.3374,4.3387,4.1551,4.1199,4.1793,4.1398,4.1392,4.1728,4.179,4.173,4.1686,4.1331,4.1184,4.1209,4.109,4.085,4.0091,4.0016,3.9966,3.8892,3.8254,3.7854,3.7497,3.6333,3.5545,3.5284,3.5308,3.5112,3.4773,3.4812,3.4995,3.4982,3.5697,3.5987,3.5838,3.5778,3.5813,3.5587,3.5584,3.5798,3.6103,3.638,3.6417,3.6332,3.6273,3.625,3.5764,3.5184,3.3997,3.299,3.1574,3.0686,3.0411,2.9948,2.9217,2.8617,2.81,2.7435,2.6645,2.6255,2.5965,2.5713,2.5518,2.5431,2.5323,2.5041,2.4826,5.3948,5.3948,5.3882,5.3899,5.3849,5.3717,5.3651,5.3668,5.3568,5.3501,5.3518,5.3518,5.3433,5.3348,5.3314,5.3178,5.2782,5.2747,5.2607,5.2326,5.2542,5.2394,5.1574,5.0383,4.9652,4.9483,4.9106,4.8546,4.8025,4.7747,4.7182,4.6389,4.6308,4.629,4.5919,4.5401,4.5206,4.5249,4.4902,4.4618,4.461,4.461,4.461,4.461,4.461,4.4841,4.4902,4.4178,4.3864,4.3811,4.3021,4.2174,4.2172,4.2074,4.1986,4.1884,4.1908,4.1871,4.1827,4.1707,4.14,4.0972,4.1359,4.1077,3.9427,4.0462,4.0089,3.9054,3.8793,3.8656,3.7715,3.7153,3.6375,3.5866,3.5774,3.5772,3.5751,3.5792,3.5683,3.547,3.5639,3.5567,3.4719,3.493,3.5073,3.5314,3.5527,3.5612,3.5982,3.6414,3.6405,3.6405,3.6417,3.631,3.6066,3.5496,3.4534,3.3617,3.2366,3.1306,3.1077,3.0503,2.9834,2.9201,2.8625,2.7904,2.7231,2.6716,2.6476,2.6245,2.6014,2.5868,2.5723,2.543,2.5137,5.411,5.4078,5.4013,5.398,5.398,5.3882,5.3766,5.3717,5.3634,5.3551,5.3501,5.3518,5.3518,5.3518,5.3467,5.3365,5.3212,5.3161,5.3058,5.2938,5.3076,5.3161,5.3093,5.2397,5.1567,5.0815,5.0176,4.9463,4.8815,4.8363,4.7832,4.6793,4.6693,4.6405,4.6266,4.5849,4.5566,4.5385,4.5226,4.491,4.4671,4.461,4.461,4.461,4.461,4.4825,4.4964,4.4517,4.4332,4.4348,4.3895,4.3165,4.2585,4.2441,4.2368,4.2249,4.1891,4.191,4.1964,4.1775,4.1431,4.1128,4.1656,4.1088,4.0376,4.08,4.0694,3.9828,3.9627,3.9406,3.8086,3.7118,3.6633,3.6375,3.6282,3.6356,3.6432,3.6477,3.6292,3.5953,3.6095,3.5807,3.537,3.4994,3.5185,3.5743,3.5487,3.5645,3.6236,3.6593,3.6499,3.6452,3.6405,3.6332,3.6138,3.5615,3.4819,3.4019,3.3282,3.2454,3.1952,3.1261,3.0526,2.9849,2.9174,2.8642,2.8023,2.7505,2.7088,2.6945,2.6716,2.639,2.6159,2.6014,2.5625,5.4222,5.4239,5.411,5.4078,5.4078,5.4045,5.3948,5.3816,5.3733,5.3668,5.3551,5.3551,5.3601,5.3501,5.3534,5.3534,5.3467,5.3467,5.3399,5.3399,5.3399,5.3433,5.3382,5.323,5.2907,5.235,5.13,5.0376,4.9693,4.922,4.8505,4.7577,4.6904,4.6717,4.6522,4.625,4.5947,4.5572,4.5416,4.5126,4.4687,4.461,4.461,4.461,4.461,4.4625,4.4702,4.4579,4.4579,4.461,4.461,4.3972,4.3264,4.2786,4.2663,4.2596,4.2099,4.1971,4.1939,4.1658,4.1448,4.1754,4.1756,4.1603,4.1219,4.1086,4.1033,4.0883,4.0564,3.9811,3.8802,3.8034,3.7257,3.7001,3.7077,3.7128,3.707,3.7162,3.6967,3.6475,3.6653,3.6577,3.6033,3.5608,3.5889,3.6052,3.5756,3.5782,3.6404,3.6722,3.6628,3.6487,3.6452,3.6417,3.6235,3.6138,3.53,3.4795,3.4125,3.3441,3.2844,3.2089,3.1306,3.0342,2.968,2.9198,2.8724,2.8164,2.7846,2.7694,2.7373,2.6993,2.6774,2.664,2.6159,5.4431,5.4431,5.4416,5.4416,5.4385,5.4222,5.4143,5.411,5.398,5.3849,5.3701,5.3833,5.3751,5.3584,5.3617,5.3601,5.3568,5.3585,5.3551,5.3534,5.3534,5.3501,5.3534,5.3501,5.3382,5.3044,5.22,5.1256,5.0484,4.9811,4.9216,4.8458,4.7886,4.7506,4.7029,4.6634,4.6266,4.5875,4.5619,4.516,4.4785,4.461,4.461,4.461,4.461,4.461,4.461,4.461,4.461,4.461,4.461,4.4471,4.4132,4.3648,4.3217,4.2833,4.2571,4.235,4.2022,4.1715,4.1254,4.0999,4.126,4.155,4.1483,4.1429,4.1534,4.1326,4.0937,4.0208,3.9659,3.9085,3.8964,3.8768,3.8404,3.8339,3.8117,3.7979,3.7793,3.7121,3.7303,3.7299,3.6491,3.6056,3.6248,3.6392,3.6347,3.6393,3.6839,3.6909,3.6769,3.6628,3.6487,3.6452,3.6392,3.6332,3.6016,3.5687,3.5093,3.4305,3.361,3.2865,3.2051,3.1115,3.0329,2.976,2.929,2.8781,2.8595,2.8502,2.8034,2.7552,2.7515,2.7384,2.6774,5.4512,5.4512,5.4512,5.4512,5.448,5.4416,5.4286,5.4207,5.411,5.4013,5.3915,5.3965,5.3932,5.38,5.3833,5.38,5.3784,5.3751,5.3751,5.3751,5.3668,5.3601,5.3584,5.3551,5.3501,5.3349,5.2876,5.2152,5.1329,5.0974,5.0165,4.9192,4.8591,4.8083,4.7664,4.7105,4.6634,4.6245,4.5849,4.5447,4.492,4.4723,4.461,4.461,4.461,4.461,4.461,4.461,4.461,4.461,4.461,4.461,4.4502,4.4317,4.3978,4.3602,4.3279,4.2987,4.2571,4.2355,4.1986,4.172,4.1802,4.2117,4.2347,4.2448,4.2355,4.2317,4.1764,4.1182,4.0871,4.021,3.9599,3.9283,3.8978,3.8585,3.8302,3.8103,3.7866,3.7542,3.7377,3.7054,3.6436,3.6261,3.653,3.6694,3.6805,3.7033,3.7256,3.7155,3.6956,3.6815,3.6675,3.6546,3.6512,3.6452,3.6417,3.6185,3.5753,3.4972,3.4288,3.344,3.269,3.1938,3.1196,3.0442,2.9806,2.929,2.9301,2.922,2.8689,2.8305,2.8258,2.8034,2.7431,5.4632,5.4512,5.4667,5.4649,5.4529,5.4512,5.4399,5.4271,5.4271,5.4175,5.4045,5.4078,5.4078,5.4013,5.398,5.398,5.398,5.398,5.3948,5.3948,5.3849,5.375,5.3717,5.3634,5.3551,5.3534,5.3416,5.3011,5.232,5.1982,5.1239,5.0331,4.9398,4.8646,4.8132,4.7616,4.7052,4.6506,4.6239,4.5902,4.5276,4.4911,4.4648,4.461,4.461,4.461,4.461,4.461,4.461,4.461,4.461,4.461,4.461,4.461,4.4594,4.4517,4.4086,4.3824,4.3454,4.311,4.2679,4.2417,4.254,4.2846,4.3232,4.3311,4.3434,4.3337,4.291,4.211,4.1671,4.0833,4.0127,3.9591,3.91,3.845,3.8117,3.7949,3.7859,3.7609,3.7342,3.7188,3.692,3.6998,3.7393,3.7214,3.7326,3.7332,3.7526,3.7446,3.7261,3.7062,3.6875,3.6687,3.6593,3.6546,3.6452,3.632,3.5859,3.5182,3.4574,3.3891,3.318,3.2423,3.1918,3.116,3.0487,2.9897,2.976,2.9577,2.9244,2.9071,2.9024,2.8642,2.8081,5.5115,5.4563,5.5219,5.5115,5.4615,5.4598,5.4546,5.4514,5.4517,5.4367,5.419,5.4335,5.4257,5.4078,5.4013,5.4013,5.4013,5.4045,5.4045,5.4045,5.3997,5.3948,5.3965,5.375,5.3684,5.3617,5.3551,5.3484,5.3078,5.2806,5.2351,5.1441,5.0659,4.9878,4.8877,4.8329,4.7342,4.6532,4.6323,4.5963,4.5352,4.5167,4.4974,4.4723,4.4656,4.4641,4.4625,4.461,4.461,4.461,4.461,4.461,4.461,4.461,4.461,4.461,4.4486,4.424,4.3778,4.3578,4.3279,4.2987,4.2802,4.3002,4.3497,4.3891,4.3785,4.2794,4.2923,4.2917,4.2503,4.2085,4.1386,4.0713,4.0114,3.9206,3.8511,3.7937,3.7855,3.7813,3.7624,3.7883,3.7918,3.8105,3.823,3.7997,3.7808,3.7835,3.7756,3.7644,3.7505,3.7261,3.7155,3.6981,3.6781,3.6734,3.6593,3.6499,3.594,3.5366,3.4723,3.4083,3.3413,3.2741,3.2299,3.1849,3.1172,3.0623,3.0261,2.9988,2.976,2.9726,2.9794,2.9266,2.8689,5.6477,5.5839,5.6167,5.6098,5.5822,5.5805,5.5546,5.5152,5.5132,5.4827,5.4451,5.4448,5.4399,5.4289,5.4271,5.4289,5.4271,5.4271,5.4271,5.4239,5.4192,5.411,5.4078,5.3948,5.3832,5.3717,5.3668,5.3551,5.3467,5.3298,5.2943,5.2383,5.169,5.1015,4.9931,4.9286,4.8504,4.7624,4.6821,4.6084,4.5709,4.5634,4.5472,4.4996,4.5094,4.4949,4.4718,4.461,4.461,4.461,4.461,4.461,4.461,4.461,4.461,4.461,4.461,4.4456,4.4225,4.4178,4.391,4.3818,4.3694,4.391,4.4172,4.4265,4.4282,4.367,4.3775,4.36,4.326,4.3021,4.2552,4.1909,4.1071,4.0275,3.9254,3.8327,3.7933,3.7893,3.7923,3.8099,3.8288,3.8303,3.8228,3.8055,3.7957,3.8076,3.7965,3.7808,3.7611,3.74,3.7307,3.7261,3.7062,3.6909,3.6769,3.6611,3.616,3.5537,3.4813,3.4172,3.3545,3.3028,3.2537,3.2113,3.1717,3.1217,3.0679,3.0442,3.0306,3.0273,3.0284,2.9966,2.9382,5.7857,5.734,5.715,5.6978,5.6805,5.6805,5.646,5.596,5.5908,5.5615,5.515,5.4908,5.4718,5.4529,5.448,5.448,5.448,5.4512,5.4512,5.4431,5.4367,5.4303,5.4222,5.4093,5.398,5.3816,5.3717,5.3668,5.3584,5.345,5.3314,5.3041,5.2383,5.1795,5.1236,5.0371,4.9412,4.8518,4.7416,4.6685,4.6305,4.6187,4.5896,4.5672,4.5563,4.5457,4.4949,4.4887,4.4902,4.461,4.461,4.461,4.461,4.461,4.461,4.461,4.461,4.4594,4.4517,4.4517,4.4594,4.461,4.461,4.4402,4.4479,4.4572,4.4534,4.4266,4.4312,4.4228,4.4035,4.3723,4.3184,4.255,4.1842,4.1142,4.034,3.9233,3.8472,3.845,3.8343,3.796,3.8131,3.8239,3.8186,3.8058,3.8123,3.8283,3.8135,3.7893,3.7795,3.7585,3.7551,3.7505,3.7307,3.7155,3.7015,3.6807,3.6353,3.5707,3.5039,3.4407,3.3778,3.3277,3.2829,3.2475,3.2113,3.1572,3.1083,3.1026,3.0937,3.0802,3.0668,3.0397,3.0125,5.8909,5.8806,5.8116,5.746,5.6891,5.6805,5.6805,5.6719,5.6719,5.665,5.634,5.5839,5.5081,5.4684,5.4546,5.4512,5.4512,5.4512,5.4512,5.4512,5.448,5.4448,5.4367,5.4271,5.4175,5.4078,5.3898,5.3733,5.3668,5.3618,5.3534,5.3366,5.2959,5.2419,5.1794,5.1096,5.014,4.9238,4.8252,4.77,4.7253,4.6852,4.6407,4.6219,4.614,4.5965,4.5534,4.5365,4.508,4.4625,4.461,4.461,4.461,4.461,4.461,4.461,4.461,4.461,4.461,4.461,4.461,4.461,4.461,4.461,4.461,4.461,4.4572,4.4534,4.4511,4.4473,4.432,4.4174,4.3706,4.313,4.2514,4.1967,4.1119,3.9931,3.928,3.9099,3.8856,3.8611,3.8536,3.8754,3.8614,3.8469,3.8215,3.8381,3.8041,3.7828,3.7854,3.7802,3.7841,3.7749,3.7564,3.7413,3.7307,3.7124,3.6749,3.6024,3.5244,3.4654,3.423,3.3487,3.2995,3.2779,3.2562,3.2157,3.1837,3.1705,3.1516,3.125,3.0982,3.0668,3.0487,5.9012,5.8978,5.8702,5.8426,5.8167,5.8167,5.7909,5.7529,5.7478,5.7202,5.6753,5.5995,5.546,5.5132,5.4667,5.4512,5.4512,5.4512,5.4512,5.4512,5.4512,5.4512,5.448,5.4416,5.4321,5.4207,5.4028,5.3931,5.3882,5.38,5.3701,5.3551,5.3365,5.3196,5.2622,5.1844,5.0907,5.0118,4.9352,4.8768,4.8441,4.8343,4.785,4.6956,4.6901,4.6296,4.5508,4.5087,4.4841,4.4702,4.461,4.461,4.461,4.461,4.461,4.4625,4.4641,4.4603,4.461,4.461,4.461,4.461,4.461,4.461,4.461,4.461,4.461,4.4572,4.461,4.4534,4.4496,4.4458,4.4197,4.3677,4.3186,4.2734,4.201,4.0906,4.0421,4.0387,3.9884,3.9398,3.9399,3.9453,3.9173,3.8901,3.8643,3.8362,3.806,3.7798,3.78,3.7861,3.7867,3.7887,3.7703,3.7657,3.7657,3.7402,3.7134,3.6443,3.5686,3.5309,3.4774,3.3982,3.3253,3.3068,3.2896,3.2723,3.2506,3.2245,3.1925,3.1572,3.1294,3.0982,3.0892,5.9012,5.9012,5.9012,5.9012,5.9012,5.9012,5.8719,5.8305,5.8219,5.7823,5.7098,5.6529,5.5977,5.5581,5.5132,5.4667,5.4581,5.4512,5.4512,5.4512,5.4512,5.4512,5.4512,5.448,5.4416,5.4303,5.419,5.4143,5.4028,5.4013,5.3915,5.3783,5.3668,5.3584,5.3247,5.2707,5.1741,5.0867,5.0397,4.966,4.9248,4.9192,4.9133,4.804,4.7804,4.7126,4.6193,4.5594,4.5017,4.4756,4.461,4.461,4.461,4.461,4.461,4.4671,4.4779,4.4772,4.4618,4.461,4.461,4.461,4.461,4.461,4.461,4.461,4.461,4.461,4.461,4.4625,4.4656,4.4572,4.4534,4.4098,4.3998,4.3615,4.3109,4.2324,4.2001,4.1758,4.0992,4.0137,4.0493,4.0465,3.9943,3.9533,3.9008,3.864,3.8192,3.7936,3.7767,3.7812,3.7867,3.7867,3.79,3.7795,3.7749,3.7736,3.7416,3.6916,3.6348,3.591,3.5237,3.4334,3.3789,3.3487,3.324,3.3081,3.2865,3.2649,3.2332,3.1969,3.1793,3.1572,3.1484,5.9012,5.9012,5.9012,5.9012,5.9012,5.9012,5.8961,5.8857,5.8875,5.8512,5.7909,5.7702,5.6943,5.6012,5.5704,5.5288,5.477,5.4649,5.4563,5.4529,5.4512,5.4512,5.4512,5.4512,5.448,5.4448,5.4335,5.4239,5.419,5.4143,5.4045,5.398,5.3882,5.3767,5.3517,5.3298,5.2415,5.1256,5.1196,5.0418,4.9752,4.9557,4.9357,4.9015,4.8637,4.7906,4.704,4.6351,4.5702,4.4941,4.481,4.4748,4.4625,4.461,4.461,4.4625,4.5149,4.5149,4.4718,4.4641,4.4671,4.4625,4.461,4.461,4.4625,4.4656,4.4748,4.4872,4.4833,4.4825,4.4733,4.4695,4.4803,4.4841,4.4788,4.4695,4.4248,4.3907,4.3598,4.3205,4.1878,4.0831,4.1381,4.1504,4.0831,4.0207,3.9503,3.891,3.8385,3.7936,3.7648,3.7714,3.778,3.7867,3.79,3.7874,3.79,3.79,3.7665,3.7248,3.678,3.6333,3.5561,3.4691,3.4374,3.4203,3.3806,3.3424,3.326,3.3082,3.2705,3.2388,3.2257,3.2213,3.2113,5.9012,5.9012,5.9012,5.9012,5.9012,5.9012,5.9012,5.9012,5.8995,5.8857,5.8564,5.8167,5.7736,5.7116,5.6529,5.5977,5.5322,5.5236,5.5132,5.4529,5.4512,5.4512,5.4512,5.4512,5.4512,5.448,5.4399,5.4367,5.4416,5.4303,5.4239,5.4175,5.4045,5.3866,5.3668,5.3467,5.2976,5.2416,5.1859,5.1098,5.0603,5.02,4.9843,4.9475,4.9229,4.8582,4.7727,4.7143,4.6307,4.5418,4.5303,4.5133,4.4841,4.4718,4.4618,4.4603,4.4926,4.4872,4.4795,4.4902,4.5003,4.4756,4.461,4.461,4.461,4.5049,4.5172,4.5311,4.548,4.5603,4.5942,4.5926,4.5988,4.6018,4.601,4.601,4.5721,4.5501,4.5227,4.4737,4.3711,4.2659,4.2585,4.2199,4.1563,4.0689,3.9929,3.9061,3.8417,3.781,3.7422,3.7631,3.7727,3.7793,3.7854,3.7926,3.7992,3.8024,3.7841,3.7541,3.7104,3.6707,3.6002,3.5218,3.5071,3.4938,3.4481,3.4083,3.3763,3.3472,3.3082,3.2835,3.2692,3.2736,3.2779,5.9012,5.9012,5.9012,5.9012,5.9012,5.9012,5.9012,5.9012,5.9012,5.9012,5.8892,5.8478,5.8099,5.7805,5.7374,5.6495,5.5719,5.5598,5.5219,5.4598,5.4512,5.4512,5.4512,5.4512,5.4512,5.4512,5.4512,5.4512,5.448,5.4512,5.4448,5.4321,5.4143,5.4045,5.3899,5.3717,5.3348,5.2876,5.2235,5.1912,5.135,5.0883,5.0546,5.0143,4.9611,4.8845,4.8216,4.7573,4.692,4.626,4.5888,4.5765,4.538,4.5087,4.4972,4.4926,4.4926,4.4957,4.5149,4.5249,4.5172,4.4649,4.4625,4.461,4.4641,4.4895,4.5264,4.5572,4.6095,4.6234,4.6357,4.6403,4.6465,4.6465,4.6434,4.6388,4.6579,4.6312,4.6156,4.5749,4.5126,4.4257,4.3444,4.2828,4.217,4.127,4.0359,3.9534,3.8727,3.8131,3.7717,3.7921,3.8086,3.8224,3.8225,3.8089,3.8129,3.8161,3.7978,3.7736,3.7495,3.7052,3.6421,3.5812,3.5721,3.5504,3.5149,3.4756,3.4413,3.3946,3.349,3.3285,3.3136,3.3124,3.3124,5.9012,5.9012,5.9012,5.9012,5.9012,5.9012,5.9012,5.9012,5.9012,5.9012,5.8995,5.8961,5.8616,5.8064,5.7943,5.7202,5.6098,5.5857,5.5305,5.477,5.4598,5.4546,5.4512,5.4512,5.4512,5.4512,5.4512,5.4512,5.4512,5.4512,5.448,5.4448,5.4321,5.4207,5.4143,5.3962,5.3544,5.3159,5.2825,5.2404,5.1848,5.1371,5.122,5.0831,5.0144,4.9342,4.8723,4.8168,4.7434,4.6904,4.6676,4.6636,4.6397,4.5981,4.578,4.5618,4.5603,4.5588,4.5495,4.5588,4.5372,4.4926,4.4779,4.4687,4.4687,4.4872,4.5295,4.5711,4.6157,4.6065,4.6049,4.6157,4.6265,4.6249,4.6234,4.6434,4.6803,4.6785,4.6659,4.6266,4.5605,4.4777,4.3888,4.3199,4.2839,4.2143,4.1348,4.0805,3.9939,3.8978,3.8658,3.8624,3.8738,3.8791,3.8684,3.8512,3.8344,3.8421,3.8207,3.7978,3.7717,3.7456,3.6966,3.6517,3.6314,3.6069,3.5872,3.545,3.4928,3.4502,3.4147,3.3563,3.3371,3.3136,3.3124,5.9012,5.9012,5.9012,5.9012,5.9012,5.9012,5.9012,5.9012,5.9012,5.9012,5.9012,5.9012,5.884,5.8702,5.8685,5.803,5.734,5.665,5.6012,5.5426,5.4805,5.4598,5.4512,5.4512,5.4512,5.4512,5.4512,5.4512,5.4512,5.4512,5.4512,5.448,5.4416,5.4399,5.4335,5.4239,5.3922,5.3589,5.324,5.2854,5.2452,5.2018,5.1776,5.1185,5.0834,5.0036,4.9323,4.9156,4.8521,4.7822,4.7762,4.7651,4.706,4.6616,4.6311,4.6311,4.6249,4.6142,4.5788,4.6034,4.6018,4.5464,4.5334,4.4995,4.4918,4.5103,4.5611,4.608,4.6573,4.6711,4.6911,4.7019,4.7034,4.7019,4.7034,4.7234,4.7573,4.7609,4.7476,4.6868,4.6205,4.5511,4.4573,4.3931,4.3573,4.2955,4.235,4.1823,4.1184,4.0192,3.9662,3.9633,3.9359,3.9396,3.9251,3.9096,3.8827,3.8647,3.848,3.8311,3.8082,3.7807,3.7449,3.7168,3.6894,3.6789,3.6718,3.6228,3.5745,3.5347,3.4963,3.4203,3.3593,3.3384,3.3192,5.9012,5.9012,5.9012,5.9012,5.9012,5.9012,5.9012,5.9012,5.9012,5.9012,5.9012,5.9012,5.9012,5.8978,5.8944,5.8564,5.7823,5.7374,5.6667,5.5581,5.5132,5.4822,5.4649,5.4529,5.4512,5.4512,5.4512,5.4512,5.4512,5.4512,5.4512,5.4512,5.4512,5.4512,5.448,5.4385,5.4335,5.4036,5.3719,5.3348,5.3016,5.2683,5.2118,5.1791,5.1583,5.0481,4.9957,4.9942,4.9008,4.838,4.8438,4.8239,4.7718,4.7339,4.6757,4.6742,4.6865,4.6588,4.6311,4.6665,4.6496,4.6203,4.5988,4.5803,4.5557,4.5588,4.6188,4.6773,4.7265,4.7665,4.7942,4.8173,4.8142,4.8112,4.8189,4.825,4.8389,4.8527,4.8086,4.7532,4.6898,4.6266,4.5556,4.4928,4.4352,4.3888,4.3334,4.2757,4.214,4.135,4.0934,4.0757,4.0294,3.9949,3.9814,3.9733,3.9438,3.9216,3.9007,3.8782,3.848,3.82,3.7911,3.7657,3.7416,3.7338,3.726,3.7011,3.6564,3.6207,3.5807,3.5161,3.4387,3.3708,3.3533,5.8909,5.8909,5.8995,5.9012,5.9012,5.9012,5.9012,5.9012,5.9012,5.9012,5.9012,5.9012,5.9012,5.9012,5.8995,5.8685,5.8202,5.784,5.7202,5.5788,5.5529,5.527,5.5046,5.4615,5.4649,5.4598,5.4529,5.4512,5.4512,5.4512,5.4512,5.4512,5.4512,5.4512,5.448,5.448,5.4448,5.4333,5.4121,5.384,5.3755,5.3336,5.2902,5.2809,5.1639,5.0216,5.0199,4.9573,4.8518,4.8664,4.8666,4.8646,4.8322,4.8029,4.7404,4.7157,4.7342,4.7127,4.6927,4.7173,4.7111,4.6865,4.6665,4.6726,4.6619,4.608,4.6496,4.7111,4.7573,4.7835,4.8096,4.8219,4.8235,4.8235,4.8281,4.8235,4.8189,4.8235,4.8019,4.7542,4.7102,4.6545,4.6327,4.5666,4.4747,4.458,4.4186,4.3518,4.3096,4.2456,4.2021,4.1763,4.1236,4.076,4.0817,4.0617,4.0126,3.9821,3.9628,3.9261,3.8948,3.8692,3.8421,3.8121,3.7834,3.7802,3.7691,3.7442,3.722,3.6992,3.6577,3.6067,3.5386,3.4584,3.3954,5.8185,5.8219,5.8771,5.9012,5.9012,5.9012,5.9012,5.9012,5.9012,5.9012,5.9012,5.9012,5.9012,5.9012,5.9012,5.8806,5.8668,5.8202,5.7736,5.6926,5.6305,5.6029,5.5857,5.5184,5.4994,5.5012,5.4908,5.4512,5.4512,5.4512,5.4512,5.4512,5.4512,5.4512,5.4512,5.4512,5.4512,5.448,5.4303,5.4239,5.4235,5.4154,5.3907,5.3498,5.2352,5.1503,5.1241,5.0607,4.9913,4.9623,4.9242,4.8953,4.863,4.8435,4.8296,4.8127,4.7804,4.7588,4.7527,4.7588,4.7527,4.7496,4.7434,4.7742,4.7573,4.6803,4.6696,4.7311,4.7742,4.7989,4.8158,4.825,4.8312,4.8312,4.8312,4.8142,4.7989,4.7896,4.7819,4.7558,4.7204,4.6948,4.68,4.6254,4.5331,4.4794,4.4433,4.405,4.394,4.3433,4.2866,4.2504,4.2029,4.1699,4.1701,4.1507,4.0986,4.0658,4.0456,3.9993,3.9482,3.9127,3.8814,3.848,3.8226,3.8161,3.807,3.788,3.7639,3.7482,3.724,3.6746,3.648,3.5849,3.5012,5.8099,5.8426,5.884,5.9012,5.9012,5.9012,5.9012,5.9012,5.9012,5.9012,5.9012,5.9012,5.9012,5.9012,5.9012,5.9012,5.8944,5.8616,5.815,5.7598,5.715,5.6805,5.6357,5.5891,5.5615,5.5529,5.4891,5.4512,5.4512,5.4512,5.4512,5.4512,5.4512,5.4512,5.4512,5.4512,5.4512,5.4512,5.4367,5.4416,5.448,5.4303,5.4143,5.3699,5.3027,5.2335,5.1829,5.1141,5.0327,4.9719,4.928,4.8903,4.862,4.8558,4.8573,4.8481,4.8281,4.805,4.8035,4.8004,4.8004,4.7989,4.8035,4.8281,4.8312,4.7665,4.7635,4.8158,4.8173,4.8389,4.8404,4.8481,4.8481,4.8481,4.8481,4.8404,4.8158,4.7942,4.805,4.8158,4.765,4.7034,4.6871,4.6687,4.594,4.574,4.5278,4.4872,4.4709,4.4371,4.382,4.3319,4.2854,4.2444,4.2252,4.2078,4.1832,4.1552,4.1327,4.0614,4.0021,3.9584,3.9216,3.8917,3.8692,3.8557,3.8421,3.8253,3.7992,3.7789,3.7599,3.7416,3.7175,3.6934,3.6263,5.8219,5.8961,5.9012,5.9012,5.9012,5.9012,5.9012,5.9012,5.9012,5.9012,5.9012,5.9012,5.9012,5.9012,5.9012,5.9012,5.8961,5.8857,5.8512,5.8219,5.7874,5.7633,5.7271,5.6805,5.6236,5.5546,5.4874,5.4615,5.4512,5.4512,5.4512,5.4512,5.4512,5.4512,5.4512,5.4512,5.4512,5.448,5.4448,5.4448,5.4353,5.4175,5.4078,5.3594,5.3058,5.2488,5.2071,5.1448,5.0499,4.9818,4.9358,4.8877,4.8646,4.8604,4.8604,4.8558,4.8543,4.8466,4.8496,4.8466,4.8496,4.8543,4.8604,4.8604,4.8604,4.8589,4.8558,4.8558,4.8573,4.8573,4.8589,4.8604,4.8604,4.8558,4.8558,4.8481,4.8204,4.7942,4.8158,4.8404,4.7865,4.7157,4.7142,4.6973,4.668,4.6511,4.628,4.5957,4.5595,4.5147,4.466,4.4219,4.3797,4.3389,4.2945,4.2824,4.2726,4.2551,4.2231,4.1369,4.0555,4.0078,3.9686,3.9438,3.9216,3.8993,3.8872,3.8692,3.8434,3.8129,3.8024,3.7892,3.7665,3.7462,3.7378,5.7805,5.9012,5.9012,5.9012,5.9012,5.9012,5.9012,5.9012,5.9012,5.9012,5.9012,5.9012,5.9012,5.9012,5.9012,5.9012,5.9012,5.9012,5.9012,5.8788,5.8271,5.8271,5.8012,5.7185,5.6391,5.5667,5.4994,5.4581,5.4512,5.4512,5.4512,5.4512,5.4512,5.4512,5.4512,5.4512,5.4512,5.448,5.4367,5.4335,5.4303,5.4207,5.4158,5.3975,5.3828,5.3415,5.2958,5.2424,5.1638,5.0811,4.9805,4.9138,4.8785,4.862,4.865,4.8727,4.8712,4.8696,4.8712,4.865,4.8593,4.8604,4.8604,4.8604,4.8604,4.8604,4.8589,4.8589,4.8589,4.8589,4.8604,4.8604,4.8589,4.845,4.8389,4.8158,4.7912,4.7788,4.7835,4.7881,4.7696,4.7619,4.7942,4.7588,4.7004,4.6865,4.6788,4.648,4.6342,4.5933,4.5455,4.5076,4.4713,4.4254,4.3808,4.3813,4.3752,4.3556,4.3245,4.2519,4.1639,4.0568,4.0194,4.0184,3.9777,3.938,3.9261,3.9261,3.8917,3.8647,3.8525,3.8395,3.8116,3.7874,3.7697]}]]